Logo
 


Wetterdaten - Dienstag, 29.09.2020 - Rheinberg-Annaberg     25 m ber NN private Wetterstation Rheinberg/Angaben ohne Gewhr!
Wetterdaten: aktuell Dienstag, 29.09.2020 14:48
Datum Zeit Temp. A. Feuchte A. Luftdruck Regen Wind Richtung Richtung Sonnenschein ET UV Solar Taupunkt Windchill Windben Empfang
29.09.2020 14:48 14,3 C 98 % 1015,9 hPa 0,0 l/m 3,3 km/h S-SW 200 0 min 0,000 mm 0,5 UV-I 94 W/m 14,0 C 14,3 C 5,7 km/h 100,00 %
29.09.2020 14:47 14,3 C 98 % 1015,9 hPa 0,0 l/m 3,3 km/h S-SW 200 0 min 0,000 mm 0,5 UV-I 93 W/m 14,0 C 14,3 C 5,7 km/h 100,00 %
29.09.2020 14:46 14,3 C 98 % 1015,9 hPa 0,0 l/m 1,0 km/h S-SW 200 0 min 0,000 mm 0,5 UV-I 92 W/m 14,0 C 14,3 C 1,9 km/h 100,00 %
29.09.2020 14:45 14,3 C 98 % 1015,9 hPa 0,0 l/m 0,7 km/h S-SW 200 0 min 0,000 mm 0,5 UV-I 90 W/m 14,0 C 14,3 C 3,8 km/h 97,37 %
29.09.2020 14:44 14,2 C 98 % 1015,9 hPa 0,0 l/m 2,7 km/h S-SW 200 0 min 0,000 mm 0,5 UV-I 90 W/m 13,9 C 14,2 C 3,8 km/h 100,00 %
29.09.2020 14:43 14,2 C 98 % 1015,9 hPa 0,0 l/m 4,2 km/h S-SW 200 0 min 0,000 mm 0,5 UV-I 92 W/m 13,9 C 14,2 C 5,7 km/h 95,65 %
29.09.2020 14:42 14,2 C 98 % 1015,9 hPa 0,0 l/m 2,7 km/h S-SW 200 0 min 0,000 mm 0,6 UV-I 94 W/m 13,9 C 14,2 C 5,7 km/h 100,00 %
29.09.2020 14:41 14,2 C 98 % 1015,9 hPa 0,0 l/m 3,5 km/h S-SW 200 0 min 0,000 mm 0,6 UV-I 95 W/m 13,9 C 14,2 C 5,7 km/h 100,00 %
29.09.2020 14:40 14,2 C 98 % 1015,9 hPa 0,0 l/m 1,1 km/h S-SW 200 0 min 0,000 mm 0,6 UV-I 94 W/m 13,9 C 14,2 C 3,8 km/h 100,00 %
29.09.2020 14:39 14,2 C 98 % 1016,0 hPa 0,0 l/m 2,2 km/h S-SW 200 0 min 0,000 mm 0,6 UV-I 91 W/m 13,9 C 14,2 C 3,8 km/h 100,00 %
29.09.2020 14:38 14,2 C 98 % 1016,0 hPa 0,0 l/m 3,6 km/h SW 215 0 min 0,000 mm 0,5 UV-I 90 W/m 13,9 C 14,2 C 5,7 km/h 100,00 %
29.09.2020 14:37 14,2 C 98 % 1016,0 hPa 0,0 l/m 3,7 km/h SW 215 0 min 0,000 mm 0,5 UV-I 91 W/m 13,9 C 14,2 C 7,7 km/h 100,00 %
29.09.2020 14:36 14,2 C 98 % 1016,0 hPa 0,0 l/m 2,7 km/h SW 217 0 min 0,000 mm 0,6 UV-I 92 W/m 13,9 C 14,2 C 7,7 km/h 100,00 %
29.09.2020 14:35 14,2 C 98 % 1015,9 hPa 0,0 l/m 1,5 km/h SW 217 0 min 0,000 mm 0,6 UV-I 94 W/m 13,9 C 14,2 C 3,8 km/h 100,00 %
29.09.2020 14:34 14,1 C 98 % 1015,9 hPa 0,0 l/m 1,0 km/h SW 216 0 min 0,000 mm 0,6 UV-I 95 W/m 13,8 C 14,1 C 3,8 km/h 100,00 %
29.09.2020 14:33 14,1 C 98 % 1015,9 hPa 0,0 l/m 1,6 km/h SW 216 0 min 0,000 mm 0,6 UV-I 95 W/m 13,8 C 14,1 C 3,8 km/h 100,00 %
29.09.2020 14:32 14,1 C 98 % 1016,0 hPa 0,0 l/m 2,8 km/h SW 217 0 min 0,000 mm 0,6 UV-I 98 W/m 13,8 C 14,1 C 5,7 km/h 100,00 %
29.09.2020 14:31 14,1 C 98 % 1016,0 hPa 0,0 l/m 1,2 km/h SW 217 0 min 0,000 mm 0,6 UV-I 101 W/m 13,8 C 14,1 C 3,8 km/h 100,00 %
29.09.2020 14:30 14,1 C 98 % 1015,9 hPa 0,0 l/m 1,4 km/h SW 217 0 min 0,000 mm 0,6 UV-I 102 W/m 13,8 C 14,1 C 5,7 km/h 100,00 %
29.09.2020 14:29 14,1 C 98 % 1016,0 hPa 0,0 l/m 6,4 km/h SW 217 0 min 0,000 mm 0,6 UV-I 100 W/m 13,8 C 14,1 C 9,6 km/h 100,00 %
29.09.2020 14:28 14,0 C 98 % 1016,0 hPa 0,0 l/m 3,0 km/h SW 217 0 min 0,000 mm 0,5 UV-I 96 W/m 13,7 C 14,0 C 3,8 km/h 100,00 %
29.09.2020 14:27 14,0 C 98 % 1016,0 hPa 0,0 l/m 2,4 km/h SW 217 0 min 0,000 mm 0,5 UV-I 92 W/m 13,7 C 14,0 C 5,7 km/h 100,00 %
29.09.2020 14:26 14,0 C 98 % 1016,0 hPa 0,0 l/m 3,1 km/h SW 217 0 min 0,000 mm 0,5 UV-I 93 W/m 13,7 C 14,0 C 5,7 km/h 100,00 %
29.09.2020 14:25 14,0 C 98 % 1016,0 hPa 0,0 l/m 2,2 km/h SW 217 0 min 0,000 mm 0,5 UV-I 96 W/m 13,7 C 14,0 C 5,7 km/h 95,83 %
29.09.2020 14:24 13,9 C 98 % 1015,9 hPa 0,0 l/m 1,2 km/h SW 217 0 min 0,000 mm 0,6 UV-I 96 W/m 13,6 C 13,9 C 3,8 km/h 100,00 %
29.09.2020 14:23 13,9 C 98 % 1016,0 hPa 0,0 l/m 1,0 km/h SW 217 0 min 0,000 mm 0,5 UV-I 94 W/m 13,6 C 13,9 C 3,8 km/h 100,00 %
29.09.2020 14:22 13,9 C 97 % 1016,0 hPa 0,0 l/m 3,8 km/h SW 217 0 min 0,000 mm 0,5 UV-I 92 W/m 13,4 C 13,9 C 5,7 km/h 96,15 %
29.09.2020 14:21 13,9 C 98 % 1015,9 hPa 0,0 l/m 4,5 km/h SW 217 0 min 0,000 mm 0,5 UV-I 91 W/m 13,6 C 13,9 C 5,7 km/h 100,00 %
29.09.2020 14:20 13,9 C 97 % 1016,0 hPa 0,0 l/m 2,0 km/h SW 217 0 min 0,000 mm 0,5 UV-I 93 W/m 13,4 C 13,9 C 3,8 km/h 100,00 %
29.09.2020 14:19 13,8 C 97 % 1016,0 hPa 0,0 l/m 2,3 km/h SW 217 0 min 0,000 mm 0,5 UV-I 93 W/m 13,3 C 13,8 C 3,8 km/h 100,00 %
29.09.2020 14:18 13,8 C 97 % 1016,0 hPa 0,0 l/m 4,2 km/h SW 217 0 min 0,000 mm 0,5 UV-I 92 W/m 13,3 C 13,8 C 9,6 km/h 100,00 %
29.09.2020 14:17 13,8 C 97 % 1016,0 hPa 0,0 l/m 4,8 km/h SW 231 0 min 0,000 mm 0,5 UV-I 90 W/m 13,3 C 13,8 C 11,5 km/h 100,00 %
29.09.2020 14:16 13,8 C 97 % 1016,0 hPa 0,0 l/m 5,5 km/h SW 235 0 min 0,000 mm 0,5 UV-I 89 W/m 13,3 C 13,8 C 11,5 km/h 100,00 %
29.09.2020 14:15 13,8 C 98 % 1016,0 hPa 0,0 l/m 3,1 km/h S-SW 203 0 min 0,000 mm 0,5 UV-I 86 W/m 13,5 C 13,8 C 7,7 km/h 100,00 %
29.09.2020 14:14 13,8 C 98 % 1016,0 hPa 0,0 l/m 4,2 km/h S-SW 203 0 min 0,000 mm 0,5 UV-I 84 W/m 13,5 C 13,8 C 7,7 km/h 100,00 %
29.09.2020 14:13 13,8 C 98 % 1015,9 hPa 0,0 l/m 8,2 km/h S-SW 213 0 min 0,000 mm 0,5 UV-I 84 W/m 13,5 C 12,7 C 13,4 km/h 100,00 %
29.09.2020 14:12 13,8 C 98 % 1015,9 hPa 0,0 l/m 8,6 km/h S-SW 203 0 min 0,000 mm 0,5 UV-I 81 W/m 13,5 C 12,5 C 11,5 km/h 100,00 %
29.09.2020 14:11 13,8 C 98 % 1016,0 hPa 0,0 l/m 4,0 km/h S-SW 211 0 min 0,000 mm 0,1 UV-I 77 W/m 13,5 C 13,8 C 7,7 km/h 100,00 %
29.09.2020 14:10 13,8 C 98 % 1016,0 hPa 0,0 l/m 8,7 km/h S 187 0 min 0,000 mm 0,0 UV-I 76 W/m 13,5 C 12,5 C 17,2 km/h 100,00 %
29.09.2020 14:09 13,8 C 98 % 1016,0 hPa 0,0 l/m 9,0 km/h SW 219 0 min 0,000 mm 0,0 UV-I 74 W/m 13,5 C 12,3 C 15,3 km/h 100,00 %
29.09.2020 14:08 13,8 C 98 % 1015,9 hPa 0,0 l/m 3,9 km/h S-SW 211 0 min 0,000 mm 0,0 UV-I 72 W/m 13,5 C 13,8 C 7,7 km/h 100,00 %
29.09.2020 14:07 13,8 C 98 % 1016,0 hPa 0,0 l/m 6,8 km/h S-SW 212 0 min 0,000 mm 0,0 UV-I 72 W/m 13,5 C 13,6 C 9,6 km/h 96,15 %
29.09.2020 14:06 13,8 C 98 % 1015,9 hPa 0,0 l/m 2,6 km/h SW 223 0 min 0,000 mm 0,0 UV-I 72 W/m 13,5 C 13,8 C 3,8 km/h 100,00 %
29.09.2020 14:05 13,8 C 98 % 1016,0 hPa 0,0 l/m 3,4 km/h SW 223 0 min 0,000 mm 0,0 UV-I 73 W/m 13,5 C 13,8 C 7,7 km/h 100,00 %
29.09.2020 14:04 13,8 C 98 % 1015,9 hPa 0,0 l/m 3,7 km/h SW 215 0 min 0,000 mm 0,0 UV-I 74 W/m 13,5 C 13,8 C 5,7 km/h 100,00 %
29.09.2020 14:03 13,8 C 98 % 1015,9 hPa 0,0 l/m 4,6 km/h SW 219 0 min 0,000 mm 0,1 UV-I 76 W/m 13,5 C 13,8 C 7,7 km/h 100,00 %
29.09.2020 14:02 13,8 C 98 % 1016,0 hPa 0,0 l/m 9,2 km/h SW 222 0 min 0,000 mm 0,5 UV-I 78 W/m 13,5 C 12,2 C 21,0 km/h 100,00 %
29.09.2020 14:01 13,8 C 98 % 1015,9 hPa 0,0 l/m 7,2 km/h S 184 0 min 0,025 mm 0,5 UV-I 79 W/m 13,5 C 13,3 C 9,6 km/h 100,00 %
29.09.2020 14:00 13,8 C 98 % 1016,0 hPa 0,0 l/m 4,7 km/h S-SW 204 0 min 0,000 mm 0,5 UV-I 79 W/m 13,5 C 13,8 C 7,7 km/h 100,00 %
29.09.2020 13:59 13,8 C 98 % 1015,9 hPa 0,0 l/m 4,8 km/h S-SW 195 0 min 0,000 mm 0,5 UV-I 78 W/m 13,5 C 13,8 C 7,7 km/h 100,00 %
29.09.2020 13:58 13,9 C 98 % 1016,0 hPa 0,0 l/m 10,0 km/h S-SW 201 0 min 0,000 mm 0,5 UV-I 77 W/m 13,6 C 11,9 C 15,3 km/h 100,00 %
29.09.2020 13:57 13,9 C 98 % 1016,0 hPa 0,0 l/m 9,2 km/h S-SW 208 0 min 0,000 mm 0,5 UV-I 76 W/m 13,6 C 12,3 C 13,4 km/h 100,00 %
29.09.2020 13:56 13,9 C 98 % 1015,9 hPa 0,0 l/m 6,8 km/h SW 222 0 min 0,000 mm 0,5 UV-I 76 W/m 13,6 C 13,7 C 11,5 km/h 96,15 %
29.09.2020 13:55 13,9 C 98 % 1016,0 hPa 0,0 l/m 4,7 km/h S-SW 205 0 min 0,000 mm 0,2 UV-I 74 W/m 13,6 C 13,9 C 5,7 km/h 100,00 %
29.09.2020 13:54 13,9 C 98 % 1015,9 hPa 0,0 l/m 4,6 km/h S-SW 207 0 min 0,000 mm 0,0 UV-I 73 W/m 13,6 C 13,9 C 11,5 km/h 100,00 %
29.09.2020 13:53 13,9 C 98 % 1016,0 hPa 0,0 l/m 1,8 km/h SW 221 0 min 0,000 mm 0,0 UV-I 71 W/m 13,6 C 13,9 C 3,8 km/h 100,00 %
29.09.2020 13:52 13,9 C 98 % 1015,9 hPa 0,0 l/m 8,5 km/h SW 221 0 min 0,000 mm 0,0 UV-I 72 W/m 13,6 C 12,7 C 11,5 km/h 100,00 %
29.09.2020 13:51 13,9 C 98 % 1015,9 hPa 0,0 l/m 7,1 km/h SW 217 0 min 0,000 mm 0,2 UV-I 74 W/m 13,6 C 13,5 C 9,6 km/h 100,00 %
29.09.2020 13:50 13,9 C 98 % 1015,9 hPa 0,0 l/m 6,1 km/h SW 215 0 min 0,000 mm 0,2 UV-I 73 W/m 13,6 C 13,9 C 7,7 km/h 100,00 %
29.09.2020 13:49 13,9 C 98 % 1016,0 hPa 0,0 l/m 7,7 km/h SW 215 0 min 0,000 mm 0,3 UV-I 74 W/m 13,6 C 13,1 C 11,5 km/h 100,00 %
29.09.2020 13:48 13,9 C 98 % 1016,0 hPa 0,0 l/m 7,7 km/h SW 227 0 min 0,000 mm 0,5 UV-I 77 W/m 13,6 C 13,1 C 11,5 km/h 95,83 %
29.09.2020 13:47 13,9 C 98 % 1016,0 hPa 0,0 l/m 8,6 km/h SW 221 0 min 0,000 mm 0,5 UV-I 77 W/m 13,6 C 12,6 C 15,3 km/h 100,00 %
29.09.2020 13:46 13,9 C 98 % 1015,9 hPa 0,0 l/m 4,8 km/h S-SW 199 0 min 0,000 mm 0,5 UV-I 77 W/m 13,6 C 13,9 C 13,4 km/h 100,00 %
29.09.2020 13:45 13,9 C 98 % 1015,9 hPa 0,0 l/m 5,1 km/h S-SW 207 0 min 0,000 mm 0,5 UV-I 76 W/m 13,6 C 13,9 C 7,7 km/h 100,00 %
29.09.2020 13:44 13,9 C 98 % 1015,9 hPa 0,0 l/m 9,9 km/h S-SW 205 0 min 0,000 mm 0,5 UV-I 76 W/m 13,6 C 12,0 C 11,5 km/h 100,00 %
29.09.2020 13:43 13,9 C 98 % 1015,9 hPa 0,0 l/m 8,9 km/h SW 217 0 min 0,000 mm 0,5 UV-I 78 W/m 13,6 C 12,5 C 11,5 km/h 100,00 %
29.09.2020 13:42 13,9 C 98 % 1015,9 hPa 0,0 l/m 8,3 km/h S-SW 211 0 min 0,000 mm 0,5 UV-I 82 W/m 13,6 C 12,8 C 13,4 km/h 96,15 %
29.09.2020 13:41 13,9 C 98 % 1015,9 hPa 0,0 l/m 7,3 km/h SW 236 0 min 0,000 mm 0,5 UV-I 83 W/m 13,6 C 13,4 C 9,6 km/h 100,00 %
29.09.2020 13:40 13,9 C 98 % 1015,9 hPa 0,0 l/m 8,7 km/h SW 217 0 min 0,000 mm 0,5 UV-I 84 W/m 13,6 C 12,6 C 17,2 km/h 100,00 %
29.09.2020 13:39 13,9 C 98 % 1015,9 hPa 0,0 l/m 4,4 km/h S-SW 213 0 min 0,000 mm 0,5 UV-I 84 W/m 13,6 C 13,9 C 7,7 km/h 100,00 %
29.09.2020 13:38 13,9 C 98 % 1015,9 hPa 0,0 l/m 5,4 km/h W-SW 237 0 min 0,000 mm 0,6 UV-I 88 W/m 13,6 C 13,9 C 9,6 km/h 100,00 %
29.09.2020 13:37 13,9 C 98 % 1015,9 hPa 0,0 l/m 6,9 km/h S-SW 209 0 min 0,000 mm 0,5 UV-I 86 W/m 13,6 C 13,6 C 9,6 km/h 100,00 %
29.09.2020 13:36 13,9 C 98 % 1015,9 hPa 0,0 l/m 3,4 km/h S-SW 213 0 min 0,000 mm 0,5 UV-I 86 W/m 13,6 C 13,9 C 7,7 km/h 100,00 %
29.09.2020 13:35 13,9 C 98 % 1015,8 hPa 0,0 l/m 3,3 km/h SW 214 0 min 0,000 mm 0,5 UV-I 88 W/m 13,6 C 13,9 C 7,7 km/h 100,00 %
29.09.2020 13:34 13,8 C 98 % 1015,8 hPa 0,0 l/m 6,1 km/h SW 217 0 min 0,000 mm 0,5 UV-I 83 W/m 13,5 C 13,8 C 9,6 km/h 95,83 %
29.09.2020 13:33 13,8 C 98 % 1015,9 hPa 0,0 l/m 6,3 km/h S-SW 212 0 min 0,000 mm 0,5 UV-I 82 W/m 13,5 C 13,8 C 17,2 km/h 100,00 %
29.09.2020 13:32 13,8 C 98 % 1015,8 hPa 0,0 l/m 6,2 km/h S 191 0 min 0,000 mm 0,5 UV-I 78 W/m 13,5 C 13,8 C 9,6 km/h 100,00 %
29.09.2020 13:31 13,8 C 98 % 1015,9 hPa 0,0 l/m 8,0 km/h SW 215 0 min 0,000 mm 0,2 UV-I 73 W/m 13,5 C 12,8 C 13,4 km/h 95,83 %
29.09.2020 13:30 13,8 C 98 % 1015,8 hPa 0,0 l/m 6,6 km/h S 190 0 min 0,000 mm 0,0 UV-I 67 W/m 13,5 C 13,7 C 11,5 km/h 100,00 %
29.09.2020 13:29 13,8 C 98 % 1015,8 hPa 0,0 l/m 6,8 km/h SW 226 0 min 0,000 mm 0,0 UV-I 61 W/m 13,5 C 13,6 C 9,6 km/h 100,00 %
29.09.2020 13:28 13,8 C 98 % 1015,8 hPa 0,0 l/m 11,6 km/h S-SW 211 0 min 0,000 mm 0,0 UV-I 56 W/m 13,5 C 11,1 C 15,3 km/h 100,00 %
29.09.2020 13:27 13,8 C 98 % 1015,8 hPa 0,0 l/m 6,6 km/h SW 233 0 min 0,000 mm 0,0 UV-I 58 W/m 13,5 C 13,7 C 13,4 km/h 100,00 %
29.09.2020 13:26 13,8 C 98 % 1015,8 hPa 0,0 l/m 6,0 km/h S-SW 207 0 min 0,000 mm 0,0 UV-I 58 W/m 13,5 C 13,8 C 7,7 km/h 100,00 %
29.09.2020 13:25 13,8 C 98 % 1015,8 hPa 0,0 l/m 6,6 km/h S-SW 213 0 min 0,000 mm 0,0 UV-I 59 W/m 13,5 C 13,7 C 11,5 km/h 100,00 %
29.09.2020 13:24 13,8 C 98 % 1015,8 hPa 0,0 l/m 8,8 km/h S-SW 208 0 min 0,000 mm 0,0 UV-I 61 W/m 13,5 C 12,4 C 13,4 km/h 100,00 %
29.09.2020 13:23 13,9 C 98 % 1015,8 hPa 0,0 l/m 8,5 km/h SW 217 0 min 0,000 mm 0,0 UV-I 59 W/m 13,6 C 12,7 C 11,5 km/h 100,00 %
29.09.2020 13:22 13,9 C 98 % 1015,8 hPa 0,0 l/m 9,5 km/h SW 223 0 min 0,000 mm 0,0 UV-I 58 W/m 13,6 C 12,1 C 15,3 km/h 100,00 %
29.09.2020 13:21 13,9 C 98 % 1015,7 hPa 0,0 l/m 6,6 km/h SW 230 0 min 0,000 mm 0,0 UV-I 56 W/m 13,6 C 13,8 C 11,5 km/h 100,00 %
29.09.2020 13:20 13,9 C 98 % 1015,8 hPa 0,0 l/m 7,8 km/h S-SW 204 0 min 0,000 mm 0,0 UV-I 57 W/m 13,6 C 13,1 C 13,4 km/h 100,00 %
29.09.2020 13:19 13,9 C 98 % 1015,8 hPa 0,0 l/m 6,9 km/h S-SW 213 0 min 0,000 mm 0,0 UV-I 61 W/m 13,6 C 13,6 C 11,5 km/h 100,00 %
29.09.2020 13:18 13,9 C 98 % 1015,8 hPa 0,0 l/m 6,0 km/h SW 229 0 min 0,000 mm 0,0 UV-I 61 W/m 13,6 C 13,9 C 7,7 km/h 100,00 %
29.09.2020 13:17 13,9 C 98 % 1015,8 hPa 0,0 l/m 5,6 km/h W-SW 238 0 min 0,000 mm 0,0 UV-I 62 W/m 13,6 C 13,9 C 9,6 km/h 100,00 %
29.09.2020 13:16 13,9 C 98 % 1015,8 hPa 0,0 l/m 9,2 km/h SW 214 0 min 0,000 mm 0,0 UV-I 62 W/m 13,6 C 12,3 C 13,4 km/h 100,00 %
29.09.2020 13:15 13,9 C 98 % 1015,7 hPa 0,0 l/m 4,8 km/h S-SW 213 0 min 0,000 mm 0,0 UV-I 58 W/m 13,6 C 13,9 C 9,6 km/h 100,00 %
29.09.2020 13:14 13,9 C 98 % 1015,8 hPa 0,0 l/m 5,1 km/h SW 217 0 min 0,000 mm 0,0 UV-I 60 W/m 13,6 C 13,9 C 9,6 km/h 100,00 %
29.09.2020 13:13 13,9 C 98 % 1015,7 hPa 0,0 l/m 5,4 km/h W-SW 244 0 min 0,000 mm 0,0 UV-I 63 W/m 13,6 C 13,9 C 7,7 km/h 100,00 %
29.09.2020 13:12 13,9 C 98 % 1015,7 hPa 0,0 l/m 8,3 km/h SW 225 0 min 0,000 mm 0,0 UV-I 64 W/m 13,6 C 12,8 C 11,5 km/h 100,00 %
29.09.2020 13:11 13,9 C 98 % 1015,7 hPa 0,0 l/m 6,0 km/h SW 235 0 min 0,000 mm 0,0 UV-I 67 W/m 13,6 C 13,9 C 9,6 km/h 100,00 %
29.09.2020 13:10 13,9 C 98 % 1015,7 hPa 0,0 l/m 9,0 km/h SW 217 0 min 0,000 mm 0,0 UV-I 67 W/m 13,6 C 12,4 C 13,4 km/h 100,00 %
29.09.2020 13:09 13,9 C 98 % 1015,7 hPa 0,0 l/m 9,0 km/h S-SW 195 0 min 0,000 mm 0,0 UV-I 66 W/m 13,6 C 12,4 C 11,5 km/h 100,00 %
29.09.2020 13:08 13,9 C 98 % 1015,7 hPa 0,0 l/m 7,7 km/h SW 223 0 min 0,000 mm 0,0 UV-I 65 W/m 13,6 C 13,1 C 13,4 km/h 96,15 %
29.09.2020 13:07 13,9 C 98 % 1015,7 hPa 0,0 l/m 6,0 km/h S-SW 210 0 min 0,000 mm 0,0 UV-I 63 W/m 13,6 C 13,9 C 9,6 km/h 100,00 %
29.09.2020 13:06 13,9 C 98 % 1015,7 hPa 0,0 l/m 6,1 km/h SW 214 0 min 0,000 mm 0,0 UV-I 65 W/m 13,6 C 13,9 C 9,6 km/h 100,00 %
29.09.2020 13:05 13,9 C 98 % 1015,7 hPa 0,0 l/m 4,3 km/h S-SW 206 0 min 0,000 mm 0,0 UV-I 67 W/m 13,6 C 13,9 C 7,7 km/h 100,00 %
29.09.2020 13:04 13,9 C 98 % 1015,7 hPa 0,0 l/m 5,1 km/h SW 220 0 min 0,000 mm 0,0 UV-I 65 W/m 13,6 C 13,9 C 7,7 km/h 100,00 %
29.09.2020 13:03 13,9 C 98 % 1015,7 hPa 0,0 l/m 5,1 km/h W-SW 237 0 min 0,000 mm 0,0 UV-I 64 W/m 13,6 C 13,9 C 7,7 km/h 100,00 %
29.09.2020 13:02 13,9 C 98 % 1015,7 hPa 0,0 l/m 5,9 km/h W-SW 248 0 min 0,000 mm 0,0 UV-I 63 W/m 13,6 C 13,9 C 9,6 km/h 100,00 %
29.09.2020 13:01 13,9 C 98 % 1015,7 hPa 0,0 l/m 6,2 km/h S-SW 207 0 min 0,051 mm 0,0 UV-I 64 W/m 13,6 C 13,9 C 9,6 km/h 100,00 %
29.09.2020 13:00 13,9 C 98 % 1015,7 hPa 0,0 l/m 9,5 km/h S 188 0 min 0,000 mm 0,0 UV-I 66 W/m 13,6 C 12,1 C 15,3 km/h 100,00 %
29.09.2020 12:59 13,9 C 98 % 1015,6 hPa 0,0 l/m 7,7 km/h S-SW 213 0 min 0,000 mm 0,0 UV-I 69 W/m 13,6 C 13,1 C 9,6 km/h 100,00 %
29.09.2020 12:58 14,0 C 98 % 1015,6 hPa 0,0 l/m 6,7 km/h S-SW 209 0 min 0,000 mm 0,0 UV-I 64 W/m 13,7 C 13,8 C 9,6 km/h 100,00 %
29.09.2020 12:57 14,0 C 98 % 1015,6 hPa 0,0 l/m 7,5 km/h SW 223 0 min 0,000 mm 0,0 UV-I 67 W/m 13,7 C 13,3 C 15,3 km/h 95,65 %
29.09.2020 12:56 14,0 C 98 % 1015,6 hPa 0,0 l/m 8,3 km/h S-SW 199 0 min 0,000 mm 0,0 UV-I 68 W/m 13,7 C 12,9 C 13,4 km/h 100,00 %
29.09.2020 12:55 14,1 C 98 % 1015,6 hPa 0,0 l/m 8,7 km/h S-SW 211 0 min 0,000 mm 0,4 UV-I 70 W/m 13,8 C 12,8 C 13,4 km/h 100,00 %
29.09.2020 12:54 14,0 C 98 % 1015,6 hPa 0,0 l/m 6,3 km/h S-SW 211 0 min 0,000 mm 0,5 UV-I 75 W/m 13,7 C 14,0 C 9,6 km/h 100,00 %
29.09.2020 12:53 14,0 C 98 % 1015,5 hPa 0,0 l/m 7,9 km/h W-SW 248 0 min 0,000 mm 0,5 UV-I 84 W/m 13,7 C 13,1 C 13,4 km/h 100,00 %
29.09.2020 12:52 14,0 C 98 % 1015,6 hPa 0,0 l/m 6,5 km/h S-SW 213 0 min 0,000 mm 0,6 UV-I 95 W/m 13,7 C 14,0 C 19,1 km/h 100,00 %
29.09.2020 12:51 14,0 C 98 % 1015,5 hPa 0,0 l/m 3,4 km/h S-SW 210 0 min 0,000 mm 0,7 UV-I 105 W/m 13,7 C 14,0 C 7,7 km/h 100,00 %
29.09.2020 12:50 14,0 C 98 % 1015,5 hPa 0,0 l/m 3,5 km/h SW 215 0 min 0,000 mm 0,7 UV-I 108 W/m 13,7 C 14,0 C 5,7 km/h 100,00 %
29.09.2020 12:49 14,0 C 98 % 1015,5 hPa 0,0 l/m 6,1 km/h SW 215 0 min 0,000 mm 0,7 UV-I 106 W/m 13,7 C 14,0 C 7,7 km/h 100,00 %
29.09.2020 12:48 13,9 C 98 % 1015,5 hPa 0,0 l/m 5,6 km/h S-SO 163 0 min 0,000 mm 0,6 UV-I 104 W/m 13,6 C 13,9 C 7,7 km/h 100,00 %
29.09.2020 12:47 13,9 C 98 % 1015,5 hPa 0,2 l/m 6,2 km/h SW 215 0 min 0,000 mm 0,7 UV-I 106 W/m 13,6 C 13,9 C 9,6 km/h 96,15 %
29.09.2020 12:46 13,9 C 98 % 1015,5 hPa 0,0 l/m 8,3 km/h S-SW 206 0 min 0,000 mm 0,6 UV-I 99 W/m 13,6 C 12,8 C 11,5 km/h 100,00 %
29.09.2020 12:45 14,0 C 98 % 1015,5 hPa 0,0 l/m 4,5 km/h SW 217 0 min 0,000 mm 0,5 UV-I 92 W/m 13,7 C 14,0 C 11,5 km/h 100,00 %
29.09.2020 12:44 14,0 C 98 % 1015,5 hPa 0,0 l/m 7,2 km/h SW 214 0 min 0,000 mm 0,5 UV-I 86 W/m 13,7 C 13,5 C 11,5 km/h 96,30 %
29.09.2020 12:43 14,0 C 98 % 1015,5 hPa 0,0 l/m 5,0 km/h S-SW 212 0 min 0,000 mm 0,5 UV-I 81 W/m 13,7 C 14,0 C 9,6 km/h 100,00 %
29.09.2020 12:42 14,0 C 98 % 1015,5 hPa 0,0 l/m 3,8 km/h S-SW 212 0 min 0,000 mm 0,5 UV-I 78 W/m 13,7 C 14,0 C 5,7 km/h 98,61 %
29.09.2020 12:41 14,0 C 98 % 1015,5 hPa 0,0 l/m 4,2 km/h S-SW 213 0 min 0,000 mm 0,3 UV-I 76 W/m 13,7 C 14,0 C 7,7 km/h 100,00 %
29.09.2020 12:40 14,0 C 98 % 1015,6 hPa 0,0 l/m 5,1 km/h S-SW 212 0 min 0,000 mm 0,0 UV-I 72 W/m 13,7 C 14,0 C 9,6 km/h 100,00 %
29.09.2020 12:39 14,0 C 98 % 1015,5 hPa 0,0 l/m 7,1 km/h S-SW 209 0 min 0,000 mm 0,0 UV-I 71 W/m 13,7 C 13,6 C 9,6 km/h 100,00 %
29.09.2020 12:38 14,0 C 98 % 1015,5 hPa 0,0 l/m 7,3 km/h S-SW 213 0 min 0,000 mm 0,0 UV-I 71 W/m 13,7 C 13,5 C 13,4 km/h 100,00 %
29.09.2020 12:37 14,1 C 98 % 1015,5 hPa 0,2 l/m 7,1 km/h SW 236 0 min 0,000 mm 0,0 UV-I 66 W/m 13,8 C 13,7 C 15,3 km/h 100,00 %
29.09.2020 12:36 14,1 C 98 % 1015,5 hPa 0,0 l/m 8,1 km/h SW 225 0 min 0,000 mm 0,0 UV-I 60 W/m 13,8 C 13,1 C 11,5 km/h 100,00 %
29.09.2020 12:35 14,1 C 98 % 1015,5 hPa 0,0 l/m 10,1 km/h SW 217 0 min 0,000 mm 0,0 UV-I 56 W/m 13,8 C 12,1 C 15,3 km/h 100,00 %
29.09.2020 12:34 14,1 C 98 % 1015,5 hPa 0,0 l/m 8,4 km/h S-SW 209 0 min 0,000 mm 0,0 UV-I 54 W/m 13,8 C 12,9 C 17,2 km/h 100,00 %
29.09.2020 12:33 14,1 C 98 % 1015,5 hPa 0,0 l/m 4,1 km/h SW 215 0 min 0,000 mm 0,0 UV-I 60 W/m 13,8 C 14,1 C 5,7 km/h 100,00 %
29.09.2020 12:32 14,1 C 98 % 1015,4 hPa 0,0 l/m 6,1 km/h SW 215 0 min 0,000 mm 0,0 UV-I 65 W/m 13,8 C 14,1 C 9,6 km/h 100,00 %
29.09.2020 12:31 14,1 C 98 % 1015,5 hPa 0,0 l/m 7,1 km/h SW 216 0 min 0,000 mm 0,4 UV-I 74 W/m 13,8 C 13,7 C 11,5 km/h 100,00 %
29.09.2020 12:30 14,1 C 98 % 1015,4 hPa 0,0 l/m 5,6 km/h S 178 0 min 0,000 mm 0,5 UV-I 82 W/m 13,8 C 14,1 C 11,5 km/h 100,00 %
29.09.2020 12:29 14,1 C 98 % 1015,4 hPa 0,0 l/m 6,4 km/h S-SW 207 0 min 0,000 mm 0,5 UV-I 83 W/m 13,8 C 14,1 C 11,5 km/h 100,00 %
29.09.2020 12:28 14,1 C 98 % 1015,4 hPa 0,0 l/m 8,6 km/h SW 221 0 min 0,000 mm 0,5 UV-I 85 W/m 13,8 C 12,8 C 15,3 km/h 100,00 %
29.09.2020 12:27 14,1 C 98 % 1015,4 hPa 0,2 l/m 5,2 km/h SW 215 0 min 0,000 mm 0,5 UV-I 86 W/m 13,8 C 14,1 C 15,3 km/h 100,00 %
29.09.2020 12:26 14,1 C 98 % 1015,4 hPa 0,0 l/m 9,4 km/h S-SW 202 0 min 0,000 mm 0,5 UV-I 83 W/m 13,8 C 12,4 C 17,2 km/h 100,00 %
29.09.2020 12:25 14,1 C 98 % 1015,5 hPa 0,0 l/m 4,3 km/h SW 232 0 min 0,000 mm 0,5 UV-I 77 W/m 13,8 C 14,1 C 9,6 km/h 100,00 %
29.09.2020 12:24 14,1 C 98 % 1015,4 hPa 0,2 l/m 6,4 km/h W-SW 244 0 min 0,000 mm 0,0 UV-I 70 W/m 13,8 C 14,1 C 11,5 km/h 100,00 %
29.09.2020 12:23 14,1 C 98 % 1015,4 hPa 0,0 l/m 7,2 km/h SW 222 0 min 0,000 mm 0,0 UV-I 66 W/m 13,8 C 13,6 C 13,4 km/h 100,00 %
29.09.2020 12:22 14,1 C 98 % 1015,4 hPa 0,0 l/m 6,9 km/h SW 215 0 min 0,000 mm 0,0 UV-I 68 W/m 13,8 C 13,8 C 11,5 km/h 100,00 %
29.09.2020 12:21 14,1 C 98 % 1015,4 hPa 0,0 l/m 8,4 km/h SW 226 0 min 0,000 mm 0,0 UV-I 68 W/m 13,8 C 12,9 C 11,5 km/h 100,00 %
29.09.2020 12:20 14,1 C 98 % 1015,4 hPa 0,0 l/m 8,2 km/h SW 216 0 min 0,000 mm 0,0 UV-I 70 W/m 13,8 C 13,0 C 11,5 km/h 100,00 %
29.09.2020 12:19 14,1 C 98 % 1015,4 hPa 0,0 l/m 7,4 km/h SW 230 0 min 0,000 mm 0,0 UV-I 69 W/m 13,8 C 13,5 C 9,6 km/h 100,00 %
29.09.2020 12:18 14,1 C 98 % 1015,4 hPa 0,0 l/m 2,2 km/h S 186 0 min 0,000 mm 0,0 UV-I 74 W/m 13,8 C 14,1 C 5,7 km/h 96,00 %
29.09.2020 12:17 14,1 C 98 % 1015,4 hPa 0,0 l/m 3,7 km/h S 184 0 min 0,000 mm 0,0 UV-I 75 W/m 13,8 C 14,1 C 5,7 km/h 100,00 %
29.09.2020 12:16 14,1 C 98 % 1015,4 hPa 0,0 l/m 8,0 km/h S 182 0 min 0,000 mm 0,0 UV-I 74 W/m 13,8 C 13,2 C 13,4 km/h 100,00 %
29.09.2020 12:15 14,1 C 98 % 1015,4 hPa 0,0 l/m 5,9 km/h SW 219 0 min 0,000 mm 0,0 UV-I 76 W/m 13,8 C 14,1 C 9,6 km/h 100,00 %
29.09.2020 12:14 14,0 C 98 % 1015,4 hPa 0,0 l/m 5,1 km/h S-SW 211 0 min 0,000 mm 0,0 UV-I 75 W/m 13,7 C 14,0 C 11,5 km/h 100,00 %
29.09.2020 12:13 14,0 C 98 % 1015,4 hPa 0,0 l/m 3,0 km/h W-SW 237 0 min 0,000 mm 0,0 UV-I 74 W/m 13,7 C 14,0 C 3,8 km/h 100,00 %
29.09.2020 12:12 13,9 C 98 % 1015,4 hPa 0,0 l/m 6,6 km/h W-SW 237 0 min 0,000 mm 0,0 UV-I 74 W/m 13,6 C 13,8 C 15,3 km/h 96,67 %
29.09.2020 12:11 13,9 C 98 % 1015,4 hPa 0,0 l/m 6,1 km/h W-SW 237 0 min 0,000 mm 0,0 UV-I 74 W/m 13,6 C 13,9 C 13,4 km/h 100,00 %
29.09.2020 12:10 13,9 C 98 % 1015,4 hPa 0,0 l/m 6,0 km/h SW 216 0 min 0,000 mm 0,0 UV-I 69 W/m 13,6 C 13,9 C 9,6 km/h 100,00 %
29.09.2020 12:09 13,9 C 98 % 1015,4 hPa 0,0 l/m 3,0 km/h SW 222 0 min 0,000 mm 0,0 UV-I 69 W/m 13,6 C 13,9 C 5,7 km/h 100,00 %
29.09.2020 12:08 13,9 C 98 % 1015,4 hPa 0,0 l/m 6,1 km/h SW 222 0 min 0,000 mm 0,0 UV-I 65 W/m 13,6 C 13,9 C 7,7 km/h 100,00 %
29.09.2020 12:07 13,9 C 98 % 1015,4 hPa 0,0 l/m 7,5 km/h SW 224 0 min 0,000 mm 0,0 UV-I 68 W/m 13,6 C 13,2 C 11,5 km/h 100,00 %
29.09.2020 12:06 13,8 C 98 % 1015,4 hPa 0,0 l/m 5,2 km/h S-SW 200 0 min 0,000 mm 0,0 UV-I 72 W/m 13,5 C 13,8 C 7,7 km/h 100,00 %
29.09.2020 12:05 13,8 C 98 % 1015,4 hPa 0,0 l/m 6,0 km/h SW 225 0 min 0,000 mm 0,0 UV-I 81 W/m 13,5 C 13,8 C 9,6 km/h 100,00 %
29.09.2020 12:04 13,8 C 98 % 1015,4 hPa 0,0 l/m 3,0 km/h S 190 0 min 0,000 mm 0,3 UV-I 83 W/m 13,5 C 13,8 C 7,7 km/h 100,00 %
29.09.2020 12:03 13,8 C 98 % 1015,4 hPa 0,0 l/m 1,8 km/h S-SW 211 0 min 0,000 mm 0,5 UV-I 84 W/m 13,5 C 13,8 C 3,8 km/h 100,00 %
29.09.2020 12:02 13,7 C 98 % 1015,4 hPa 0,0 l/m 2,4 km/h S-SW 211 0 min 0,000 mm 0,5 UV-I 83 W/m 13,4 C 13,7 C 5,7 km/h 100,00 %
29.09.2020 12:01 13,7 C 98 % 1015,4 hPa 0,0 l/m 5,1 km/h S-SW 211 0 min 0,000 mm 0,5 UV-I 83 W/m 13,4 C 13,7 C 7,7 km/h 95,83 %
29.09.2020 12:00 13,7 C 98 % 1015,4 hPa 0,0 l/m 1,7 km/h S-SW 212 0 min 0,026 mm 0,4 UV-I 83 W/m 13,4 C 13,7 C 3,8 km/h 95,65 %
29.09.2020 11:59 13,7 C 98 % 1015,4 hPa 0,0 l/m 0,7 km/h S-SW 212 0 min 0,000 mm 0,0 UV-I 75 W/m 13,4 C 13,7 C 3,8 km/h 100,00 %
29.09.2020 11:58 13,6 C 98 % 1015,4 hPa 0,0 l/m 3,8 km/h S-SW 212 0 min 0,000 mm 0,0 UV-I 72 W/m 13,3 C 13,6 C 7,7 km/h 100,00 %
29.09.2020 11:57 13,6 C 98 % 1015,4 hPa 0,0 l/m 3,7 km/h S-SW 212 0 min 0,000 mm 0,0 UV-I 66 W/m 13,3 C 13,6 C 7,7 km/h 100,00 %
29.09.2020 11:56 13,6 C 98 % 1015,4 hPa 0,2 l/m 1,4 km/h S 186 0 min 0,000 mm 0,0 UV-I 64 W/m 13,3 C 13,6 C 3,8 km/h 100,00 %
29.09.2020 11:55 13,6 C 98 % 1015,4 hPa 0,0 l/m 0,2 km/h S 186 0 min 0,000 mm 0,0 UV-I 63 W/m 13,3 C 13,6 C 1,9 km/h 100,00 %
29.09.2020 11:54 13,6 C 98 % 1015,4 hPa 0,0 l/m 2,1 km/h S 186 0 min 0,000 mm 0,0 UV-I 60 W/m 13,3 C 13,6 C 3,8 km/h 100,00 %
29.09.2020 11:53 13,5 C 98 % 1015,4 hPa 0,0 l/m 1,8 km/h S 186 0 min 0,000 mm 0,0 UV-I 57 W/m 13,2 C 13,5 C 3,8 km/h 100,00 %
29.09.2020 11:52 13,5 C 98 % 1015,4 hPa 0,0 l/m 4,2 km/h S 186 0 min 0,000 mm 0,0 UV-I 55 W/m 13,2 C 13,5 C 5,7 km/h 100,00 %
29.09.2020 11:51 13,5 C 98 % 1015,4 hPa 0,0 l/m 0,8 km/h S 186 0 min 0,000 mm 0,0 UV-I 53 W/m 13,2 C 13,5 C 1,9 km/h 100,00 %
29.09.2020 11:50 13,4 C 98 % 1015,4 hPa 0,0 l/m 0,1 km/h S 186 0 min 0,000 mm 0,0 UV-I 50 W/m 13,1 C 13,4 C 1,9 km/h 95,65 %
29.09.2020 11:49 13,4 C 98 % 1015,4 hPa 0,0 l/m 1,0 km/h S 186 0 min 0,000 mm 0,0 UV-I 46 W/m 13,1 C 13,4 C 3,8 km/h 100,00 %
29.09.2020 11:48 13,4 C 98 % 1015,3 hPa 0,0 l/m 2,2 km/h S 186 0 min 0,000 mm 0,0 UV-I 46 W/m 13,1 C 13,4 C 5,7 km/h 100,00 %
29.09.2020 11:47 13,4 C 98 % 1015,4 hPa 0,0 l/m 1,6 km/h S 186 0 min 0,000 mm 0,0 UV-I 43 W/m 13,1 C 13,4 C 5,7 km/h 100,00 %
29.09.2020 11:46 13,4 C 98 % 1015,4 hPa 0,0 l/m 0,2 km/h S 186 0 min 0,000 mm 0,0 UV-I 42 W/m 13,1 C 13,4 C 1,9 km/h 100,00 %
29.09.2020 11:45 13,3 C 98 % 1015,4 hPa 0,0 l/m 1,2 km/h S 186 0 min 0,000 mm 0,0 UV-I 42 W/m 13,0 C 13,3 C 3,8 km/h 100,00 %
29.09.2020 11:44 13,3 C 98 % 1015,4 hPa 0,0 l/m 0,5 km/h S 186 0 min 0,000 mm 0,0 UV-I 42 W/m 13,0 C 13,3 C 1,9 km/h 100,00 %
29.09.2020 11:43 13,3 C 98 % 1015,4 hPa 0,0 l/m 0,4 km/h S 186 0 min 0,000 mm 0,0 UV-I 40 W/m 13,0 C 13,3 C 1,9 km/h 100,00 %
29.09.2020 11:42 13,3 C 98 % 1015,4 hPa 0,0 l/m 2,2 km/h S 186 0 min 0,000 mm 0,0 UV-I 37 W/m 13,0 C 13,3 C 3,8 km/h 100,00 %
29.09.2020 11:41 13,3 C 98 % 1015,3 hPa 0,0 l/m 3,5 km/h S 186 0 min 0,000 mm 0,0 UV-I 38 W/m 13,0 C 13,3 C 5,7 km/h 100,00 %
29.09.2020 11:40 13,3 C 98 % 1015,3 hPa 0,0 l/m 2,0 km/h S 186 0 min 0,000 mm 0,0 UV-I 39 W/m 13,0 C 13,3 C 3,8 km/h 97,56 %
29.09.2020 11:39 13,3 C 98 % 1015,3 hPa 0,0 l/m 0,6 km/h S 186 0 min 0,000 mm 0,0 UV-I 40 W/m 13,0 C 13,3 C 1,9 km/h 98,48 %
29.09.2020 11:38 13,2 C 98 % 1015,3 hPa 0,0 l/m 0,4 km/h S 186 0 min 0,000 mm 0,0 UV-I 40 W/m 12,9 C 13,2 C 1,9 km/h 100,00 %
29.09.2020 11:37 13,2 C 97 % 1015,4 hPa 0,0 l/m 1,0 km/h S 186 0 min 0,000 mm 0,0 UV-I 40 W/m 12,7 C 13,2 C 3,8 km/h 100,00 %
29.09.2020 11:36 13,2 C 97 % 1015,4 hPa 0,0 l/m 0,3 km/h S 186 0 min 0,000 mm 0,0 UV-I 40 W/m 12,7 C 13,2 C 1,9 km/h 100,00 %
29.09.2020 11:35 13,2 C 97 % 1015,3 hPa 0,0 l/m 1,0 km/h S 186 0 min 0,000 mm 0,0 UV-I 40 W/m 12,7 C 13,2 C 3,8 km/h 100,00 %
29.09.2020 11:34 13,2 C 97 % 1015,3 hPa 0,0 l/m 3,0 km/h S 186 0 min 0,000 mm 0,0 UV-I 38 W/m 12,7 C 13,2 C 5,7 km/h 96,30 %
29.09.2020 11:33 13,1 C 97 % 1015,3 hPa 0,0 l/m 1,5 km/h S 186 0 min 0,000 mm 0,0 UV-I 37 W/m 12,6 C 13,1 C 3,8 km/h 90,91 %
29.09.2020 11:32 13,1 C 97 % 1015,3 hPa 0,0 l/m 2,1 km/h S 186 0 min 0,000 mm 0,0 UV-I 37 W/m 12,6 C 13,1 C 3,8 km/h 100,00 %
29.09.2020 11:31 13,1 C 97 % 1015,3 hPa 0,0 l/m 4,4 km/h S 186 0 min 0,000 mm 0,0 UV-I 37 W/m 12,6 C 13,1 C 7,7 km/h 100,00 %
29.09.2020 11:30 13,1 C 97 % 1015,3 hPa 0,0 l/m 2,0 km/h S 185 0 min 0,000 mm 0,0 UV-I 37 W/m 12,6 C 13,1 C 3,8 km/h 100,00 %
29.09.2020 11:29 13,1 C 97 % 1015,3 hPa 0,0 l/m 2,1 km/h S 186 0 min 0,000 mm 0,0 UV-I 38 W/m 12,6 C 13,1 C 3,8 km/h 100,00 %
29.09.2020 11:28 13,1 C 98 % 1015,3 hPa 0,0 l/m 2,7 km/h S 186 0 min 0,000 mm 0,0 UV-I 39 W/m 12,8 C 13,1 C 3,8 km/h 100,00 %
29.09.2020 11:27 13,1 C 98 % 1015,2 hPa 0,0 l/m 2,4 km/h S 186 0 min 0,000 mm 0,0 UV-I 39 W/m 12,8 C 13,1 C 5,7 km/h 100,00 %
29.09.2020 11:26 13,0 C 98 % 1015,2 hPa 0,0 l/m 2,9 km/h S 186 0 min 0,000 mm 0,0 UV-I 40 W/m 12,7 C 13,0 C 5,7 km/h 96,30 %
29.09.2020 11:25 13,0 C 98 % 1015,2 hPa 0,0 l/m 2,0 km/h S 187 0 min 0,000 mm 0,0 UV-I 40 W/m 12,7 C 13,0 C 3,8 km/h 100,00 %
29.09.2020 11:24 13,0 C 98 % 1015,2 hPa 0,0 l/m 3,7 km/h S 187 0 min 0,000 mm 0,0 UV-I 40 W/m 12,7 C 13,0 C 5,7 km/h 100,00 %
29.09.2020 11:23 12,9 C 98 % 1015,2 hPa 0,0 l/m 3,9 km/h S 190 0 min 0,000 mm 0,0 UV-I 41 W/m 12,6 C 12,9 C 5,7 km/h 100,00 %
29.09.2020 11:22 12,9 C 98 % 1015,2 hPa 0,0 l/m 2,8 km/h S 190 0 min 0,000 mm 0,0 UV-I 42 W/m 12,6 C 12,9 C 5,7 km/h 100,00 %
29.09.2020 11:21 12,9 C 98 % 1015,3 hPa 0,0 l/m 0,5 km/h S 190 0 min 0,000 mm 0,0 UV-I 42 W/m 12,6 C 12,9 C 1,9 km/h 100,00 %
29.09.2020 11:20 12,9 C 98 % 1015,3 hPa 0,0 l/m 1,2 km/h S 190 0 min 0,000 mm 0,0 UV-I 40 W/m 12,6 C 12,9 C 3,8 km/h 100,00 %
29.09.2020 11:19 12,8 C 97 % 1015,3 hPa 0,0 l/m 1,8 km/h S 190 0 min 0,000 mm 0,0 UV-I 37 W/m 12,3 C 12,8 C 3,8 km/h 100,00 %
29.09.2020 11:18 12,8 C 97 % 1015,3 hPa 0,0 l/m 1,1 km/h S 190 0 min 0,000 mm 0,0 UV-I 35 W/m 12,3 C 12,8 C 3,8 km/h 96,15 %
29.09.2020 11:17 12,8 C 97 % 1015,3 hPa 0,0 l/m 0,2 km/h S 190 0 min 0,000 mm 0,0 UV-I 33 W/m 12,3 C 12,8 C 1,9 km/h 100,00 %
29.09.2020 11:16 12,8 C 97 % 1015,3 hPa 0,0 l/m 1,3 km/h S 190 0 min 0,000 mm 0,0 UV-I 31 W/m 12,3 C 12,8 C 3,8 km/h 100,00 %
29.09.2020 11:15 12,8 C 97 % 1015,2 hPa 0,0 l/m 2,3 km/h S 190 0 min 0,000 mm 0,0 UV-I 30 W/m 12,3 C 12,8 C 3,8 km/h 100,00 %
29.09.2020 11:14 12,8 C 97 % 1015,2 hPa 0,0 l/m 1,0 km/h S 190 0 min 0,000 mm 0,0 UV-I 30 W/m 12,3 C 12,8 C 3,8 km/h 100,00 %
29.09.2020 11:13 12,8 C 97 % 1015,2 hPa 0,0 l/m 2,9 km/h S 190 0 min 0,000 mm 0,0 UV-I 30 W/m 12,3 C 12,8 C 7,7 km/h 100,00 %
29.09.2020 11:12 12,8 C 97 % 1015,2 hPa 0,0 l/m 3,0 km/h S 190 0 min 0,000 mm 0,0 UV-I 30 W/m 12,3 C 12,8 C 3,8 km/h 100,00 %
29.09.2020 11:11 12,8 C 97 % 1015,2 hPa 0,0 l/m 2,6 km/h S 190 0 min 0,000 mm 0,0 UV-I 32 W/m 12,3 C 12,8 C 3,8 km/h 100,00 %
29.09.2020 11:10 12,8 C 97 % 1015,2 hPa 0,0 l/m 4,0 km/h S 190 0 min 0,000 mm 0,0 UV-I 33 W/m 12,3 C 12,8 C 5,7 km/h 100,00 %
29.09.2020 11:09 12,8 C 97 % 1015,2 hPa 0,0 l/m 1,9 km/h S 190 0 min 0,000 mm 0,0 UV-I 33 W/m 12,3 C 12,8 C 3,8 km/h 100,00 %
29.09.2020 11:08 12,8 C 97 % 1015,2 hPa 0,0 l/m 2,1 km/h S 190 0 min 0,000 mm 0,0 UV-I 33 W/m 12,3 C 12,8 C 3,8 km/h 100,00 %
29.09.2020 11:07 12,7 C 97 % 1015,2 hPa 0,0 l/m 2,0 km/h S 190 0 min 0,000 mm 0,0 UV-I 33 W/m 12,2 C 12,7 C 5,7 km/h 100,00 %
29.09.2020 11:06 12,7 C 97 % 1015,2 hPa 0,0 l/m 1,8 km/h S 190 0 min 0,000 mm 0,0 UV-I 33 W/m 12,2 C 12,7 C 3,8 km/h 100,00 %
29.09.2020 11:05 12,7 C 97 % 1015,2 hPa 0,0 l/m 3,9 km/h S 191 0 min 0,000 mm 0,0 UV-I 30 W/m 12,2 C 12,7 C 5,7 km/h 100,00 %
29.09.2020 11:04 12,7 C 97 % 1015,2 hPa 0,0 l/m 3,1 km/h S 190 0 min 0,000 mm 0,0 UV-I 29 W/m 12,2 C 12,7 C 5,7 km/h 100,00 %
29.09.2020 11:03 12,7 C 97 % 1015,2 hPa 0,0 l/m 2,3 km/h S-SO 150 0 min 0,000 mm 0,0 UV-I 31 W/m 12,2 C 12,7 C 5,7 km/h 100,00 %
29.09.2020 11:02 12,7 C 97 % 1015,1 hPa 0,0 l/m 3,4 km/h S-SO 148 0 min 0,000 mm 0,0 UV-I 34 W/m 12,2 C 12,7 C 7,7 km/h 100,00 %
29.09.2020 11:01 12,7 C 97 % 1015,1 hPa 0,0 l/m 2,1 km/h S-SO 161 0 min 0,025 mm 0,0 UV-I 36 W/m 12,2 C 12,7 C 3,8 km/h 100,00 %
29.09.2020 11:00 12,7 C 97 % 1015,1 hPa 0,0 l/m 4,7 km/h S-SO 161 0 min 0,000 mm 0,0 UV-I 39 W/m 12,2 C 12,7 C 7,7 km/h 100,00 %
29.09.2020 10:59 12,6 C 97 % 1015,1 hPa 0,0 l/m 3,8 km/h S-SO 161 0 min 0,000 mm 0,0 UV-I 39 W/m 12,1 C 12,6 C 7,7 km/h 95,65 %
29.09.2020 10:58 12,6 C 97 % 1015,1 hPa 0,0 l/m 2,7 km/h S-SO 162 0 min 0,000 mm 0,0 UV-I 40 W/m 12,1 C 12,6 C 3,8 km/h 100,00 %
29.09.2020 10:57 12,6 C 97 % 1015,1 hPa 0,0 l/m 2,9 km/h S-SO 162 0 min 0,000 mm 0,0 UV-I 39 W/m 12,1 C 12,6 C 7,7 km/h 95,65 %
29.09.2020 10:56 12,6 C 97 % 1015,1 hPa 0,0 l/m 1,7 km/h S-SO 162 0 min 0,000 mm 0,0 UV-I 35 W/m 12,1 C 12,6 C 3,8 km/h 100,00 %
29.09.2020 10:55 12,6 C 97 % 1015,1 hPa 0,0 l/m 1,9 km/h S-SO 162 0 min 0,000 mm 0,0 UV-I 33 W/m 12,1 C 12,6 C 7,7 km/h 100,00 %
29.09.2020 10:54 12,6 C 97 % 1015,1 hPa 0,0 l/m 0,6 km/h S-SO 162 0 min 0,000 mm 0,0 UV-I 32 W/m 12,1 C 12,6 C 3,8 km/h 100,00 %
29.09.2020 10:53 12,6 C 97 % 1015,0 hPa 0,0 l/m 2,7 km/h S-SO 162 0 min 0,000 mm 0,0 UV-I 32 W/m 12,1 C 12,6 C 3,8 km/h 95,65 %
29.09.2020 10:52 12,5 C 97 % 1015,0 hPa 0,0 l/m 0,3 km/h S-SO 161 0 min 0,000 mm 0,0 UV-I 33 W/m 12,0 C 12,5 C 1,9 km/h 96,00 %
29.09.2020 10:51 12,5 C 97 % 1015,0 hPa 0,0 l/m 3,1 km/h S-SO 161 0 min 0,000 mm 0,0 UV-I 36 W/m 12,0 C 12,5 C 7,7 km/h 100,00 %
29.09.2020 10:50 12,5 C 97 % 1015,0 hPa 0,0 l/m 4,4 km/h S-SO 161 0 min 0,000 mm 0,0 UV-I 39 W/m 12,0 C 12,5 C 7,7 km/h 100,00 %
29.09.2020 10:49 12,5 C 97 % 1015,0 hPa 0,0 l/m 3,8 km/h S-SO 161 0 min 0,000 mm 0,0 UV-I 39 W/m 12,0 C 12,5 C 9,6 km/h 100,00 %
29.09.2020 10:48 12,5 C 97 % 1015,0 hPa 0,0 l/m 2,5 km/h S-SO 164 0 min 0,000 mm 0,0 UV-I 36 W/m 12,0 C 12,5 C 3,8 km/h 100,00 %
29.09.2020 10:47 12,4 C 97 % 1015,0 hPa 0,0 l/m 0,8 km/h S-SO 164 0 min 0,000 mm 0,0 UV-I 34 W/m 11,9 C 12,4 C 3,8 km/h 100,00 %
29.09.2020 10:46 12,5 C 97 % 1015,0 hPa 0,0 l/m 1,0 km/h S-SO 164 0 min 0,000 mm 0,0 UV-I 31 W/m 12,0 C 12,5 C 3,8 km/h 100,00 %
29.09.2020 10:45 12,4 C 97 % 1015,0 hPa 0,0 l/m 0,6 km/h S-SO 164 0 min 0,000 mm 0,0 UV-I 30 W/m 11,9 C 12,4 C 1,9 km/h 100,00 %
29.09.2020 10:44 12,4 C 97 % 1014,9 hPa 0,0 l/m 1,4 km/h S-SO 164 0 min 0,000 mm 0,0 UV-I 30 W/m 11,9 C 12,4 C 3,8 km/h 100,00 %
29.09.2020 10:43 12,4 C 97 % 1014,9 hPa 0,0 l/m 1,7 km/h S-SO 164 0 min 0,000 mm 0,0 UV-I 30 W/m 11,9 C 12,4 C 3,8 km/h 100,00 %
29.09.2020 10:42 12,4 C 97 % 1014,9 hPa 0,0 l/m 2,2 km/h S-SO 164 0 min 0,000 mm 0,0 UV-I 30 W/m 11,9 C 12,4 C 3,8 km/h 100,00 %
29.09.2020 10:41 12,4 C 97 % 1014,9 hPa 0,0 l/m 5,5 km/h S-SO 164 0 min 0,000 mm 0,0 UV-I 30 W/m 11,9 C 12,4 C 9,6 km/h 100,00 %
29.09.2020 10:40 12,4 C 97 % 1014,9 hPa 0,0 l/m 2,8 km/h S-SO 165 0 min 0,000 mm 0,0 UV-I 31 W/m 11,9 C 12,4 C 7,7 km/h 100,00 %
29.09.2020 10:39 12,4 C 97 % 1014,9 hPa 0,0 l/m 3,2 km/h S-SO 166 0 min 0,000 mm 0,0 UV-I 32 W/m 11,9 C 12,4 C 9,6 km/h 100,00 %
29.09.2020 10:38 12,3 C 97 % 1014,9 hPa 0,0 l/m 2,2 km/h S-SO 164 0 min 0,000 mm 0,0 UV-I 33 W/m 11,8 C 12,3 C 3,8 km/h 100,00 %
29.09.2020 10:37 12,3 C 97 % 1014,9 hPa 0,0 l/m 4,1 km/h S-SO 163 0 min 0,000 mm 0,0 UV-I 36 W/m 11,8 C 12,3 C 7,7 km/h 100,00 %
29.09.2020 10:36 12,3 C 97 % 1014,8 hPa 0,0 l/m 3,2 km/h S-SO 163 0 min 0,000 mm 0,0 UV-I 37 W/m 11,8 C 12,3 C 7,7 km/h 96,15 %
29.09.2020 10:35 12,3 C 97 % 1014,8 hPa 0,0 l/m 2,8 km/h S-SO 168 0 min 0,000 mm 0,0 UV-I 36 W/m 11,8 C 12,3 C 3,8 km/h 100,00 %
29.09.2020 10:34 12,3 C 97 % 1014,8 hPa 0,0 l/m 2,7 km/h S-SO 168 0 min 0,000 mm 0,0 UV-I 35 W/m 11,8 C 12,3 C 7,7 km/h 95,65 %
29.09.2020 10:33 12,3 C 97 % 1014,8 hPa 0,0 l/m 4,2 km/h S-SO 167 0 min 0,000 mm 0,0 UV-I 33 W/m 11,8 C 12,3 C 7,7 km/h 100,00 %
29.09.2020 10:32 12,3 C 97 % 1014,8 hPa 0,0 l/m 2,0 km/h S-SO 156 0 min 0,000 mm 0,0 UV-I 33 W/m 11,8 C 12,3 C 3,8 km/h 100,00 %
29.09.2020 10:31 12,3 C 97 % 1014,8 hPa 0,0 l/m 4,1 km/h S-SO 156 0 min 0,000 mm 0,0 UV-I 33 W/m 11,8 C 12,3 C 5,7 km/h 100,00 %
29.09.2020 10:30 12,3 C 97 % 1014,8 hPa 0,0 l/m 2,7 km/h S-SO 156 0 min 0,000 mm 0,0 UV-I 33 W/m 11,8 C 12,3 C 3,8 km/h 100,00 %
29.09.2020 10:29 12,3 C 97 % 1014,8 hPa 0,0 l/m 5,4 km/h S-SO 155 0 min 0,000 mm 0,0 UV-I 33 W/m 11,8 C 12,3 C 7,7 km/h 100,00 %
29.09.2020 10:28 12,3 C 97 % 1014,8 hPa 0,0 l/m 3,7 km/h S-SO 164 0 min 0,000 mm 0,0 UV-I 33 W/m 11,8 C 12,3 C 5,7 km/h 100,00 %
29.09.2020 10:27 12,2 C 97 % 1014,8 hPa 0,0 l/m 3,0 km/h SO 135 0 min 0,000 mm 0,0 UV-I 35 W/m 11,7 C 12,2 C 7,7 km/h 100,00 %
29.09.2020 10:26 12,2 C 97 % 1014,8 hPa 0,0 l/m 3,3 km/h S 171 0 min 0,000 mm 0,0 UV-I 35 W/m 11,7 C 12,2 C 7,7 km/h 100,00 %
29.09.2020 10:25 12,2 C 97 % 1014,7 hPa 0,0 l/m 6,0 km/h S 170 0 min 0,000 mm 0,0 UV-I 33 W/m 11,7 C 12,2 C 7,7 km/h 100,00 %
29.09.2020 10:24 12,2 C 97 % 1014,7 hPa 0,0 l/m 2,2 km/h S-SO 157 0 min 0,000 mm 0,0 UV-I 33 W/m 11,7 C 12,2 C 3,8 km/h 100,00 %
29.09.2020 10:23 12,2 C 97 % 1014,7 hPa 0,0 l/m 1,9 km/h S-SO 157 0 min 0,000 mm 0,0 UV-I 32 W/m 11,7 C 12,2 C 5,7 km/h 100,00 %
29.09.2020 10:22 12,2 C 97 % 1014,7 hPa 0,0 l/m 0,3 km/h S-SO 157 0 min 0,000 mm 0,0 UV-I 32 W/m 11,7 C 12,2 C 1,9 km/h 100,00 %
29.09.2020 10:21 12,2 C 97 % 1014,7 hPa 0,0 l/m 1,6 km/h S-SO 157 0 min 0,000 mm 0,0 UV-I 30 W/m 11,7 C 12,2 C 3,8 km/h 100,00 %
29.09.2020 10:20 12,2 C 97 % 1014,8 hPa 0,0 l/m 3,0 km/h S-SO 157 0 min 0,000 mm 0,0 UV-I 33 W/m 11,7 C 12,2 C 5,7 km/h 100,00 %
29.09.2020 10:19 12,2 C 97 % 1014,8 hPa 0,0 l/m 3,0 km/h S-SO 156 0 min 0,000 mm 0,0 UV-I 35 W/m 11,7 C 12,2 C 5,7 km/h 100,00 %
29.09.2020 10:18 12,2 C 97 % 1014,7 hPa 0,0 l/m 1,2 km/h S-SO 154 0 min 0,000 mm 0,0 UV-I 34 W/m 11,7 C 12,2 C 3,8 km/h 100,00 %
29.09.2020 10:17 12,2 C 97 % 1014,7 hPa 0,0 l/m 2,8 km/h S-SO 154 0 min 0,000 mm 0,0 UV-I 33 W/m 11,7 C 12,2 C 7,7 km/h 100,00 %
29.09.2020 10:16 12,1 C 97 % 1014,7 hPa 0,0 l/m 3,5 km/h S-SO 155 0 min 0,000 mm 0,0 UV-I 33 W/m 11,6 C 12,1 C 5,7 km/h 100,00 %
29.09.2020 10:15 12,1 C 97 % 1014,7 hPa 0,0 l/m 3,3 km/h S-SO 155 0 min 0,000 mm 0,0 UV-I 33 W/m 11,6 C 12,1 C 5,7 km/h 100,00 %
29.09.2020 10:14 12,1 C 97 % 1014,7 hPa 0,0 l/m 4,5 km/h S-SO 155 0 min 0,000 mm 0,0 UV-I 33 W/m 11,6 C 12,1 C 5,7 km/h 100,00 %
29.09.2020 10:13 12,1 C 97 % 1014,7 hPa 0,0 l/m 4,2 km/h S-SO 155 0 min 0,000 mm 0,0 UV-I 32 W/m 11,6 C 12,1 C 7,7 km/h 100,00 %
29.09.2020 10:12 12,1 C 97 % 1014,7 hPa 0,0 l/m 2,5 km/h S-SO 153 0 min 0,000 mm 0,0 UV-I 32 W/m 11,6 C 12,1 C 5,7 km/h 100,00 %
29.09.2020 10:11 12,1 C 97 % 1014,7 hPa 0,0 l/m 7,6 km/h S-SO 153 0 min 0,000 mm 0,0 UV-I 31 W/m 11,6 C 11,3 C 11,5 km/h 100,00 %
29.09.2020 10:10 12,1 C 97 % 1014,7 hPa 0,0 l/m 3,6 km/h S-SO 167 0 min 0,000 mm 0,0 UV-I 30 W/m 11,6 C 12,1 C 5,7 km/h 100,00 %
29.09.2020 10:09 12,1 C 97 % 1014,7 hPa 0,0 l/m 3,5 km/h S-SO 167 0 min 0,000 mm 0,0 UV-I 26 W/m 11,6 C 12,1 C 7,7 km/h 100,00 %
29.09.2020 10:08 12,1 C 97 % 1014,7 hPa 0,0 l/m 4,6 km/h S-SO 165 0 min 0,000 mm 0,0 UV-I 23 W/m 11,6 C 12,1 C 7,7 km/h 96,30 %
29.09.2020 10:07 12,1 C 97 % 1014,7 hPa 0,0 l/m 2,6 km/h S 181 0 min 0,000 mm 0,0 UV-I 22 W/m 11,6 C 12,1 C 5,7 km/h 100,00 %
29.09.2020 10:06 12,1 C 97 % 1014,6 hPa 0,0 l/m 5,0 km/h S 181 0 min 0,000 mm 0,0 UV-I 20 W/m 11,6 C 12,1 C 7,7 km/h 100,00 %
29.09.2020 10:05 12,1 C 97 % 1014,7 hPa 0,0 l/m 3,6 km/h S 181 0 min 0,000 mm 0,0 UV-I 19 W/m 11,6 C 12,1 C 5,7 km/h 100,00 %
29.09.2020 10:04 12,1 C 97 % 1014,7 hPa 0,0 l/m 4,5 km/h S 181 0 min 0,000 mm 0,0 UV-I 19 W/m 11,6 C 12,1 C 9,6 km/h 100,00 %
29.09.2020 10:03 12,1 C 97 % 1014,6 hPa 0,0 l/m 3,4 km/h S-SO 153 0 min 0,000 mm 0,0 UV-I 19 W/m 11,6 C 12,1 C 5,7 km/h 100,00 %
29.09.2020 10:02 12,1 C 97 % 1014,7 hPa 0,0 l/m 2,2 km/h S-SO 152 0 min 0,000 mm 0,0 UV-I 18 W/m 11,6 C 12,1 C 5,7 km/h 95,65 %
29.09.2020 10:01 12,1 C 97 % 1014,7 hPa 0,0 l/m 3,0 km/h S-SO 153 0 min 0,000 mm 0,0 UV-I 18 W/m 11,6 C 12,1 C 5,7 km/h 100,00 %
29.09.2020 10:00 12,1 C 97 % 1014,7 hPa 0,0 l/m 4,4 km/h S-SO 153 0 min 0,000 mm 0,0 UV-I 18 W/m 11,6 C 12,1 C 7,7 km/h 100,00 %
29.09.2020 09:59 12,1 C 97 % 1014,7 hPa 0,0 l/m 3,6 km/h S-SO 147 0 min 0,000 mm 0,0 UV-I 18 W/m 11,6 C 12,1 C 5,7 km/h 100,00 %
29.09.2020 09:58 12,1 C 97 % 1014,7 hPa 0,0 l/m 2,6 km/h S-SO 148 0 min 0,000 mm 0,0 UV-I 18 W/m 11,6 C 12,1 C 3,8 km/h 100,00 %
29.09.2020 09:57 12,1 C 97 % 1014,7 hPa 0,0 l/m 2,6 km/h S-SO 147 0 min 0,000 mm 0,0 UV-I 19 W/m 11,6 C 12,1 C 5,7 km/h 100,00 %
29.09.2020 09:56 12,1 C 97 % 1014,6 hPa 0,2 l/m 1,9 km/h S-SO 147 0 min 0,000 mm 0,0 UV-I 19 W/m 11,6 C 12,1 C 3,8 km/h 100,00 %
29.09.2020 09:55 12,1 C 97 % 1014,6 hPa 0,0 l/m 4,1 km/h S-SO 147 0 min 0,000 mm 0,0 UV-I 19 W/m 11,6 C 12,1 C 7,7 km/h 95,83 %
29.09.2020 09:54 12,1 C 97 % 1014,6 hPa 0,0 l/m 2,0 km/h S-SO 166 0 min 0,000 mm 0,0 UV-I 19 W/m 11,6 C 12,1 C 5,7 km/h 100,00 %
29.09.2020 09:53 12,0 C 97 % 1014,6 hPa 0,0 l/m 0,9 km/h S-SO 166 0 min 0,000 mm 0,0 UV-I 19 W/m 11,5 C 12,0 C 1,9 km/h 100,00 %
29.09.2020 09:52 12,0 C 97 % 1014,6 hPa 0,0 l/m 2,5 km/h S-SO 166 0 min 0,000 mm 0,0 UV-I 21 W/m 11,5 C 12,0 C 5,7 km/h 100,00 %
29.09.2020 09:51 12,0 C 97 % 1014,6 hPa 0,0 l/m 6,1 km/h S-SO 166 0 min 0,000 mm 0,0 UV-I 21 W/m 11,5 C 12,0 C 9,6 km/h 100,00 %
29.09.2020 09:50 12,0 C 97 % 1014,6 hPa 0,0 l/m 5,2 km/h S 171 0 min 0,000 mm 0,0 UV-I 21 W/m 11,5 C 12,0 C 9,6 km/h 100,00 %
29.09.2020 09:49 12,0 C 97 % 1014,6 hPa 0,0 l/m 4,7 km/h S-SO 155 0 min 0,000 mm 0,0 UV-I 21 W/m 11,5 C 12,0 C 7,7 km/h 100,00 %
29.09.2020 09:48 11,9 C 97 % 1014,6 hPa 0,0 l/m 1,0 km/h S 171 0 min 0,000 mm 0,0 UV-I 21 W/m 11,4 C 11,9 C 3,8 km/h 100,00 %
29.09.2020 09:47 11,9 C 97 % 1014,5 hPa 0,0 l/m 3,9 km/h S 171 0 min 0,000 mm 0,0 UV-I 21 W/m 11,4 C 11,9 C 7,7 km/h 96,30 %
29.09.2020 09:46 11,9 C 97 % 1014,5 hPa 0,0 l/m 2,7 km/h S 170 0 min 0,000 mm 0,0 UV-I 21 W/m 11,4 C 11,9 C 3,8 km/h 100,00 %
29.09.2020 09:45 11,9 C 97 % 1014,5 hPa 0,0 l/m 1,9 km/h S 170 0 min 0,000 mm 0,0 UV-I 19 W/m 11,4 C 11,9 C 3,8 km/h 96,30 %
29.09.2020 09:44 11,9 C 97 % 1014,5 hPa 0,0 l/m 3,2 km/h S 170 0 min 0,000 mm 0,0 UV-I 19 W/m 11,4 C 11,9 C 3,8 km/h 100,00 %
29.09.2020 09:43 11,9 C 97 % 1014,5 hPa 0,0 l/m 3,7 km/h S 170 0 min 0,000 mm 0,0 UV-I 19 W/m 11,4 C 11,9 C 7,7 km/h 100,00 %
29.09.2020 09:42 11,9 C 97 % 1014,5 hPa 0,0 l/m 1,0 km/h S 170 0 min 0,000 mm 0,0 UV-I 19 W/m 11,4 C 11,9 C 7,7 km/h 100,00 %
29.09.2020 09:41 11,9 C 97 % 1014,4 hPa 0,0 l/m 0,6 km/h S 169 0 min 0,000 mm 0,0 UV-I 19 W/m 11,4 C 11,9 C 3,8 km/h 95,65 %
29.09.2020 09:40 11,9 C 97 % 1014,5 hPa 0,0 l/m 0,9 km/h S 170 0 min 0,000 mm 0,0 UV-I 19 W/m 11,4 C 11,9 C 1,9 km/h 100,00 %
29.09.2020 09:39 11,9 C 97 % 1014,4 hPa 0,0 l/m 2,2 km/h S 170 0 min 0,000 mm 0,0 UV-I 19 W/m 11,4 C 11,9 C 3,8 km/h 100,00 %
29.09.2020 09:38 11,9 C 97 % 1014,4 hPa 0,0 l/m 4,7 km/h S 170 0 min 0,000 mm 0,0 UV-I 20 W/m 11,4 C 11,9 C 7,7 km/h 100,00 %
29.09.2020 09:37 11,9 C 97 % 1014,4 hPa 0,0 l/m 4,1 km/h S 169 0 min 0,000 mm 0,0 UV-I 21 W/m 11,4 C 11,9 C 7,7 km/h 100,00 %
29.09.2020 09:36 11,9 C 97 % 1014,4 hPa 0,0 l/m 3,2 km/h S-SO 165 0 min 0,000 mm 0,0 UV-I 21 W/m 11,4 C 11,9 C 3,8 km/h 100,00 %
29.09.2020 09:35 11,9 C 97 % 1014,4 hPa 0,0 l/m 1,7 km/h S-SO 164 0 min 0,000 mm 0,0 UV-I 22 W/m 11,4 C 11,9 C 3,8 km/h 100,00 %
29.09.2020 09:34 11,8 C 97 % 1014,3 hPa 0,0 l/m 4,1 km/h S-SO 164 0 min 0,000 mm 0,0 UV-I 23 W/m 11,3 C 11,8 C 7,7 km/h 98,11 %
29.09.2020 09:33 11,8 C 97 % 1014,3 hPa 0,0 l/m 1,9 km/h S 169 0 min 0,000 mm 0,0 UV-I 23 W/m 11,3 C 11,8 C 3,8 km/h 96,15 %
29.09.2020 09:32 11,8 C 97 % 1014,3 hPa 0,0 l/m 3,3 km/h S 169 0 min 0,000 mm 0,0 UV-I 24 W/m 11,3 C 11,8 C 7,7 km/h 96,30 %
29.09.2020 09:31 11,8 C 97 % 1014,3 hPa 0,0 l/m 2,0 km/h S 169 0 min 0,000 mm 0,0 UV-I 25 W/m 11,3 C 11,8 C 3,8 km/h 96,15 %
29.09.2020 09:30 11,8 C 97 % 1014,3 hPa 0,0 l/m 1,8 km/h S-SO 168 0 min 0,000 mm 0,0 UV-I 27 W/m 11,3 C 11,8 C 7,7 km/h 100,00 %
29.09.2020 09:29 11,8 C 97 % 1014,3 hPa 0,0 l/m 2,0 km/h S 169 0 min 0,000 mm 0,0 UV-I 30 W/m 11,3 C 11,8 C 7,7 km/h 100,00 %
29.09.2020 09:28 11,8 C 97 % 1014,3 hPa 0,0 l/m 3,1 km/h S-SO 168 0 min 0,000 mm 0,0 UV-I 30 W/m 11,3 C 11,8 C 5,7 km/h 100,00 %
29.09.2020 09:27 11,8 C 97 % 1014,3 hPa 0,0 l/m 2,8 km/h S-SO 167 0 min 0,000 mm 0,0 UV-I 32 W/m 11,3 C 11,8 C 7,7 km/h 100,00 %
29.09.2020 09:26 11,8 C 97 % 1014,2 hPa 0,0 l/m 2,5 km/h S-SO 167 0 min 0,000 mm 0,0 UV-I 32 W/m 11,3 C 11,8 C 5,7 km/h 100,00 %
29.09.2020 09:25 11,8 C 97 % 1014,2 hPa 0,0 l/m 4,8 km/h S-SO 158 0 min 0,000 mm 0,0 UV-I 32 W/m 11,3 C 11,8 C 9,6 km/h 100,00 %
29.09.2020 09:24 11,8 C 97 % 1014,2 hPa 0,0 l/m 1,5 km/h S 175 0 min 0,000 mm 0,0 UV-I 32 W/m 11,3 C 11,8 C 3,8 km/h 100,00 %
29.09.2020 09:23 11,7 C 97 % 1014,2 hPa 0,0 l/m 4,2 km/h S 175 0 min 0,000 mm 0,0 UV-I 32 W/m 11,2 C 11,7 C 9,6 km/h 98,09 %
29.09.2020 09:22 11,7 C 97 % 1014,2 hPa 0,0 l/m 0,0 km/h S-SO 159 0 min 0,000 mm 0,0 UV-I 32 W/m 11,2 C 11,7 C 0,0 km/h 95,65 %
29.09.2020 09:21 11,7 C 97 % 1014,2 hPa 0,0 l/m 3,1 km/h S-SO 159 0 min 0,000 mm 0,0 UV-I 32 W/m 11,2 C 11,7 C 3,8 km/h 100,00 %
29.09.2020 09:20 11,7 C 97 % 1014,2 hPa 0,0 l/m 2,6 km/h S-SO 148 0 min 0,000 mm 0,0 UV-I 30 W/m 11,2 C 11,7 C 3,8 km/h 100,00 %
29.09.2020 09:19 11,7 C 96 % 1014,2 hPa 0,0 l/m 2,2 km/h SO 142 0 min 0,000 mm 0,0 UV-I 29 W/m 11,1 C 11,7 C 3,8 km/h 100,00 %
29.09.2020 09:18 11,7 C 96 % 1014,2 hPa 0,0 l/m 3,8 km/h SO 136 0 min 0,000 mm 0,0 UV-I 27 W/m 11,1 C 11,7 C 5,7 km/h 100,00 %
29.09.2020 09:17 11,7 C 96 % 1014,1 hPa 0,0 l/m 1,3 km/h S 184 0 min 0,000 mm 0,0 UV-I 26 W/m 11,1 C 11,7 C 3,8 km/h 100,00 %
29.09.2020 09:16 11,7 C 96 % 1014,1 hPa 0,0 l/m 0,9 km/h S 184 0 min 0,000 mm 0,0 UV-I 28 W/m 11,1 C 11,7 C 3,8 km/h 100,00 %
29.09.2020 09:15 11,7 C 96 % 1014,1 hPa 0,0 l/m 2,2 km/h S 184 0 min 0,000 mm 0,0 UV-I 26 W/m 11,1 C 11,7 C 5,7 km/h 100,00 %
29.09.2020 09:14 11,7 C 96 % 1014,1 hPa 0,0 l/m 3,1 km/h S 186 0 min 0,000 mm 0,0 UV-I 26 W/m 11,1 C 11,7 C 7,7 km/h 100,00 %
29.09.2020 09:13 11,7 C 96 % 1014,1 hPa 0,0 l/m 3,7 km/h S-SO 163 0 min 0,000 mm 0,0 UV-I 26 W/m 11,1 C 11,7 C 7,7 km/h 100,00 %
29.09.2020 09:12 11,7 C 96 % 1014,1 hPa 0,0 l/m 2,8 km/h SO 146 0 min 0,000 mm 0,0 UV-I 26 W/m 11,1 C 11,7 C 5,7 km/h 91,67 %
29.09.2020 09:11 11,6 C 96 % 1014,1 hPa 0,0 l/m 1,6 km/h S-SO 154 0 min 0,000 mm 0,0 UV-I 25 W/m 11,0 C 11,6 C 3,8 km/h 100,00 %
29.09.2020 09:10 11,6 C 96 % 1014,1 hPa 0,0 l/m 4,6 km/h S-SO 154 0 min 0,000 mm 0,0 UV-I 23 W/m 11,0 C 11,6 C 7,7 km/h 100,00 %
29.09.2020 09:09 11,6 C 96 % 1014,1 hPa 0,0 l/m 4,5 km/h S-SO 155 0 min 0,000 mm 0,0 UV-I 22 W/m 11,0 C 11,6 C 7,7 km/h 100,00 %
29.09.2020 09:08 11,6 C 96 % 1014,1 hPa 0,0 l/m 4,2 km/h S-SO 163 0 min 0,000 mm 0,0 UV-I 21 W/m 11,0 C 11,6 C 9,6 km/h 100,00 %
29.09.2020 09:07 11,6 C 96 % 1014,1 hPa 0,0 l/m 4,4 km/h S 171 0 min 0,000 mm 0,0 UV-I 20 W/m 11,0 C 11,6 C 7,7 km/h 93,33 %
29.09.2020 09:06 11,6 C 96 % 1014,1 hPa 0,0 l/m 3,7 km/h S-SO 150 0 min 0,000 mm 0,0 UV-I 18 W/m 11,0 C 11,6 C 7,7 km/h 95,83 %
29.09.2020 09:05 11,6 C 96 % 1014,1 hPa 0,0 l/m 5,8 km/h S-SO 155 0 min 0,000 mm 0,0 UV-I 18 W/m 11,0 C 11,6 C 11,5 km/h 96,15 %
29.09.2020 09:04 11,6 C 96 % 1014,1 hPa 0,0 l/m 4,4 km/h S 171 0 min 0,000 mm 0,0 UV-I 16 W/m 11,0 C 11,6 C 9,6 km/h 100,00 %
29.09.2020 09:03 11,6 C 96 % 1014,1 hPa 0,0 l/m 2,6 km/h S-SO 157 0 min 0,000 mm 0,0 UV-I 14 W/m 11,0 C 11,6 C 5,7 km/h 100,00 %
29.09.2020 09:02 11,6 C 96 % 1014,1 hPa 0,0 l/m 3,2 km/h S-SO 157 0 min 0,000 mm 0,0 UV-I 14 W/m 11,0 C 11,6 C 5,7 km/h 100,00 %
29.09.2020 09:01 11,6 C 96 % 1014,1 hPa 0,0 l/m 1,6 km/h S-SO 152 0 min 0,000 mm 0,0 UV-I 14 W/m 11,0 C 11,6 C 3,8 km/h 100,00 %
29.09.2020 09:00 11,6 C 96 % 1014,1 hPa 0,0 l/m 0,5 km/h S-SO 152 0 min 0,000 mm 0,0 UV-I 14 W/m 11,0 C 11,6 C 1,9 km/h 100,00 %
29.09.2020 08:59 11,6 C 96 % 1014,1 hPa 0,0 l/m 3,6 km/h S-SO 152 0 min 0,000 mm 0,0 UV-I 14 W/m 11,0 C 11,6 C 7,7 km/h 100,00 %
29.09.2020 08:58 11,6 C 96 % 1014,0 hPa 0,0 l/m 2,0 km/h S-SO 151 0 min 0,000 mm 0,0 UV-I 16 W/m 11,0 C 11,6 C 5,7 km/h 100,00 %
29.09.2020 08:57 11,6 C 96 % 1014,0 hPa 0,0 l/m 0,6 km/h S-SO 151 0 min 0,000 mm 0,0 UV-I 17 W/m 11,0 C 11,6 C 1,9 km/h 100,00 %
29.09.2020 08:56 11,6 C 96 % 1014,0 hPa 0,0 l/m 3,4 km/h S-SO 151 0 min 0,000 mm 0,0 UV-I 18 W/m 11,0 C 11,6 C 7,7 km/h 100,00 %
29.09.2020 08:55 11,6 C 96 % 1014,0 hPa 0,0 l/m 1,8 km/h S-SO 153 0 min 0,000 mm 0,0 UV-I 18 W/m 11,0 C 11,6 C 5,7 km/h 100,00 %
29.09.2020 08:54 11,5 C 96 % 1014,0 hPa 0,0 l/m 2,7 km/h S-SO 153 0 min 0,000 mm 0,0 UV-I 18 W/m 10,9 C 11,5 C 5,7 km/h 100,00 %
29.09.2020 08:53 11,5 C 96 % 1014,0 hPa 0,0 l/m 0,9 km/h S-SO 153 0 min 0,000 mm 0,0 UV-I 18 W/m 10,9 C 11,5 C 3,8 km/h 95,65 %
29.09.2020 08:52 11,5 C 96 % 1014,0 hPa 0,0 l/m 3,4 km/h S-SO 153 0 min 0,000 mm 0,0 UV-I 18 W/m 10,9 C 11,5 C 7,7 km/h 100,00 %
29.09.2020 08:51 11,5 C 96 % 1014,0 hPa 0,0 l/m 3,7 km/h S 170 0 min 0,000 mm 0,0 UV-I 16 W/m 10,9 C 11,5 C 7,7 km/h 100,00 %
29.09.2020 08:50 11,5 C 96 % 1014,1 hPa 0,0 l/m 2,4 km/h S-SO 159 0 min 0,000 mm 0,0 UV-I 15 W/m 10,9 C 11,5 C 5,7 km/h 100,00 %
29.09.2020 08:49 11,5 C 96 % 1014,0 hPa 0,0 l/m 1,9 km/h S-SO 159 0 min 0,000 mm 0,0 UV-I 14 W/m 10,9 C 11,5 C 3,8 km/h 96,00 %
29.09.2020 08:48 11,5 C 96 % 1014,0 hPa 0,0 l/m 1,7 km/h S-SO 159 0 min 0,000 mm 0,0 UV-I 14 W/m 10,9 C 11,5 C 3,8 km/h 100,00 %
29.09.2020 08:47 11,5 C 96 % 1014,0 hPa 0,0 l/m 2,9 km/h S-SO 159 0 min 0,000 mm 0,0 UV-I 12 W/m 10,9 C 11,5 C 9,6 km/h 100,00 %
29.09.2020 08:46 11,5 C 96 % 1014,0 hPa 0,0 l/m 2,5 km/h SO 128 0 min 0,000 mm 0,0 UV-I 14 W/m 10,9 C 11,5 C 9,6 km/h 100,00 %
29.09.2020 08:45 11,5 C 96 % 1014,0 hPa 0,0 l/m 2,4 km/h SO 145 0 min 0,000 mm 0,0 UV-I 12 W/m 10,9 C 11,5 C 7,7 km/h 100,00 %
29.09.2020 08:44 11,5 C 96 % 1014,0 hPa 0,0 l/m 2,4 km/h S-SO 160 0 min 0,000 mm 0,0 UV-I 12 W/m 10,9 C 11,5 C 7,7 km/h 100,00 %
29.09.2020 08:43 11,5 C 96 % 1014,0 hPa 0,0 l/m 7,0 km/h S-SO 160 0 min 0,000 mm 0,0 UV-I 11 W/m 10,9 C 11,1 C 11,5 km/h 96,67 %
29.09.2020 08:42 11,5 C 96 % 1013,9 hPa 0,0 l/m 2,4 km/h S 182 0 min 0,000 mm 0,0 UV-I 11 W/m 10,9 C 11,5 C 5,7 km/h 100,00 %
29.09.2020 08:41 11,5 C 96 % 1014,0 hPa 0,0 l/m 4,4 km/h S 182 0 min 0,000 mm 0,0 UV-I 11 W/m 10,9 C 11,5 C 9,6 km/h 100,00 %
29.09.2020 08:40 11,5 C 96 % 1013,9 hPa 0,0 l/m 6,9 km/h S-SO 167 0 min 0,000 mm 0,0 UV-I 9 W/m 10,9 C 11,2 C 11,5 km/h 100,00 %
29.09.2020 08:39 11,5 C 96 % 1013,9 hPa 0,0 l/m 5,1 km/h SO 146 0 min 0,000 mm 0,0 UV-I 9 W/m 10,9 C 11,5 C 9,6 km/h 100,00 %
29.09.2020 08:38 11,5 C 96 % 1013,9 hPa 0,0 l/m 1,8 km/h SO 146 0 min 0,000 mm 0,0 UV-I 8 W/m 10,9 C 11,5 C 3,8 km/h 100,00 %
29.09.2020 08:37 11,4 C 96 % 1014,0 hPa 0,0 l/m 2,9 km/h SO 140 0 min 0,000 mm 0,0 UV-I 7 W/m 10,8 C 11,4 C 5,7 km/h 100,00 %
29.09.2020 08:36 11,5 C 96 % 1013,9 hPa 0,0 l/m 0,3 km/h SO 140 0 min 0,000 mm 0,0 UV-I 7 W/m 10,9 C 11,5 C 1,9 km/h 100,00 %
29.09.2020 08:35 11,5 C 96 % 1013,9 hPa 0,0 l/m 0,2 km/h SO 140 0 min 0,000 mm 0,0 UV-I 7 W/m 10,9 C 11,5 C 1,9 km/h 96,30 %
29.09.2020 08:34 11,4 C 96 % 1013,9 hPa 0,0 l/m 0,2 km/h SO 140 0 min 0,000 mm 0,0 UV-I 5 W/m 10,8 C 11,4 C 1,9 km/h 100,00 %
29.09.2020 08:33 11,4 C 96 % 1013,8 hPa 0,0 l/m 1,1 km/h SO 140 0 min 0,000 mm 0,0 UV-I 5 W/m 10,8 C 11,4 C 3,8 km/h 97,89 %
29.09.2020 08:32 11,4 C 96 % 1013,8 hPa 0,0 l/m 0,8 km/h SO 140 0 min 0,000 mm 0,0 UV-I 5 W/m 10,8 C 11,4 C 1,9 km/h 96,15 %
29.09.2020 08:31 11,4 C 96 % 1013,9 hPa 0,0 l/m 3,0 km/h SO 140 0 min 0,000 mm 0,0 UV-I 5 W/m 10,8 C 11,4 C 7,7 km/h 100,00 %
29.09.2020 08:30 11,4 C 96 % 1013,8 hPa 0,0 l/m 3,2 km/h SO 140 0 min 0,000 mm 0,0 UV-I 5 W/m 10,8 C 11,4 C 5,7 km/h 100,00 %
29.09.2020 08:29 11,4 C 96 % 1013,8 hPa 0,0 l/m 3,8 km/h SO 142 0 min 0,000 mm 0,0 UV-I 5 W/m 10,8 C 11,4 C 5,7 km/h 100,00 %
29.09.2020 08:28 11,4 C 96 % 1013,8 hPa 0,0 l/m 2,6 km/h S-SO 153 0 min 0,000 mm 0,0 UV-I 5 W/m 10,8 C 11,4 C 5,7 km/h 100,00 %
29.09.2020 08:27 11,4 C 96 % 1013,9 hPa 0,0 l/m 5,3 km/h S-SO 153 0 min 0,000 mm 0,0 UV-I 5 W/m 10,8 C 11,4 C 7,7 km/h 100,00 %
29.09.2020 08:26 11,4 C 96 % 1013,8 hPa 0,0 l/m 1,5 km/h SO 139 0 min 0,000 mm 0,0 UV-I 5 W/m 10,8 C 11,4 C 3,8 km/h 100,00 %
29.09.2020 08:25 11,4 C 96 % 1013,8 hPa 0,0 l/m 3,3 km/h SO 139 0 min 0,000 mm 0,0 UV-I 5 W/m 10,8 C 11,4 C 5,7 km/h 92,31 %
29.09.2020 08:24 11,4 C 96 % 1013,8 hPa 0,0 l/m 5,2 km/h SO 141 0 min 0,000 mm 0,0 UV-I 1 W/m 10,8 C 11,4 C 7,7 km/h 100,00 %
29.09.2020 08:23 11,4 C 96 % 1013,8 hPa 0,0 l/m 5,7 km/h O-SO 115 0 min 0,000 mm 0,0 UV-I 0 W/m 10,8 C 11,4 C 11,5 km/h 100,00 %
29.09.2020 08:22 11,4 C 96 % 1013,9 hPa 0,0 l/m 3,1 km/h SO 132 0 min 0,000 mm 0,0 UV-I 0 W/m 10,8 C 11,4 C 7,7 km/h 100,00 %
29.09.2020 08:21 11,4 C 96 % 1013,9 hPa 0,0 l/m 0,6 km/h S-SO 150 0 min 0,000 mm 0,0 UV-I 0 W/m 10,8 C 11,4 C 1,9 km/h 100,00 %
29.09.2020 08:20 11,4 C 96 % 1013,8 hPa 0,0 l/m 2,3 km/h S-SO 150 0 min 0,000 mm 0,0 UV-I 0 W/m 10,8 C 11,4 C 3,8 km/h 100,00 %
29.09.2020 08:19 11,4 C 96 % 1013,8 hPa 0,0 l/m 2,2 km/h S-SO 150 0 min 0,000 mm 0,0 UV-I 0 W/m 10,8 C 11,4 C 3,8 km/h 100,00 %
29.09.2020 08:18 11,4 C 96 % 1013,8 hPa 0,0 l/m 1,0 km/h S-SO 150 0 min 0,000 mm 0,0 UV-I 0 W/m 10,8 C 11,4 C 1,9 km/h 100,00 %
29.09.2020 08:17 11,4 C 95 % 1013,8 hPa 0,0 l/m 2,7 km/h S-SO 150 0 min 0,000 mm 0,0 UV-I 0 W/m 10,6 C 11,4 C 5,7 km/h 100,00 %
29.09.2020 08:16 11,4 C 95 % 1013,8 hPa 0,0 l/m 0,3 km/h S-SO 150 0 min 0,000 mm 0,0 UV-I 0 W/m 10,6 C 11,4 C 1,9 km/h 96,30 %
29.09.2020 08:15 11,4 C 95 % 1013,7 hPa 0,0 l/m 1,7 km/h S-SO 150 0 min 0,000 mm 0,0 UV-I 0 W/m 10,6 C 11,4 C 3,8 km/h 100,00 %
29.09.2020 08:14 11,4 C 95 % 1013,8 hPa 0,0 l/m 1,1 km/h S-SO 150 0 min 0,000 mm 0,0 UV-I 0 W/m 10,6 C 11,4 C 3,8 km/h 100,00 %
29.09.2020 08:13 11,4 C 95 % 1013,8 hPa 0,0 l/m 1,4 km/h S-SO 150 0 min 0,000 mm 0,0 UV-I 0 W/m 10,6 C 11,4 C 3,8 km/h 100,00 %
29.09.2020 08:12 11,4 C 95 % 1013,8 hPa 0,0 l/m 1,0 km/h S-SO 150 0 min 0,000 mm 0,0 UV-I 0 W/m 10,6 C 11,4 C 3,8 km/h 100,00 %
29.09.2020 08:11 11,3 C 95 % 1013,7 hPa 0,0 l/m 2,4 km/h S-SO 150 0 min 0,000 mm 0,0 UV-I 0 W/m 10,5 C 11,3 C 3,8 km/h 95,83 %
29.09.2020 08:10 11,3 C 95 % 1013,7 hPa 0,0 l/m 4,6 km/h S-SO 150 0 min 0,000 mm 0,0 UV-I 0 W/m 10,5 C 11,3 C 5,7 km/h 100,00 %
29.09.2020 08:09 11,4 C 95 % 1013,7 hPa 0,0 l/m 0,0 km/h SO 144 0 min 0,000 mm 0,0 UV-I 0 W/m 10,6 C 11,4 C 0,0 km/h 100,00 %
29.09.2020 08:08 11,3 C 95 % 1013,7 hPa 0,0 l/m 1,4 km/h SO 144 0 min 0,000 mm 0,0 UV-I 0 W/m 10,5 C 11,3 C 3,8 km/h 91,30 %
29.09.2020 08:07 11,3 C 95 % 1013,7 hPa 0,0 l/m 2,2 km/h SO 144 0 min 0,000 mm 0,0 UV-I 0 W/m 10,5 C 11,3 C 3,8 km/h 96,00 %
29.09.2020 08:06 11,3 C 95 % 1013,7 hPa 0,0 l/m 1,1 km/h SO 144 0 min 0,000 mm 0,0 UV-I 0 W/m 10,5 C 11,3 C 3,8 km/h 100,00 %
29.09.2020 08:05 11,3 C 95 % 1013,7 hPa 0,0 l/m 1,7 km/h SO 144 0 min 0,000 mm 0,0 UV-I 0 W/m 10,5 C 11,3 C 3,8 km/h 100,00 %
29.09.2020 08:04 11,3 C 95 % 1013,6 hPa 0,0 l/m 2,9 km/h SO 144 0 min 0,000 mm 0,0 UV-I 0 W/m 10,5 C 11,3 C 5,7 km/h 100,00 %
29.09.2020 08:03 11,3 C 95 % 1013,6 hPa 0,0 l/m 0,9 km/h SO 144 0 min 0,000 mm 0,0 UV-I 0 W/m 10,5 C 11,3 C 3,8 km/h 100,00 %
29.09.2020 08:02 11,3 C 95 % 1013,6 hPa 0,2 l/m 1,4 km/h SO 144 0 min 0,000 mm 0,0 UV-I 0 W/m 10,5 C 11,3 C 3,8 km/h 100,00 %
29.09.2020 08:01 11,3 C 95 % 1013,5 hPa 0,0 l/m 3,4 km/h SO 143 0 min 0,000 mm 0,0 UV-I 0 W/m 10,5 C 11,3 C 7,7 km/h 95,83 %
29.09.2020 08:00 11,3 C 95 % 1013,6 hPa 0,0 l/m 4,8 km/h SO 141 0 min 0,000 mm 0,0 UV-I 0 W/m 10,5 C 11,3 C 11,5 km/h 96,55 %
29.09.2020 07:59 11,3 C 95 % 1013,6 hPa 0,0 l/m 4,5 km/h S 171 0 min 0,000 mm 0,0 UV-I 0 W/m 10,5 C 11,3 C 7,7 km/h 91,67 %
29.09.2020 07:58 11,3 C 95 % 1013,6 hPa 0,0 l/m 2,9 km/h S 173 0 min 0,000 mm 0,0 UV-I 0 W/m 10,5 C 11,3 C 3,8 km/h 96,15 %
29.09.2020 07:57 11,3 C 95 % 1013,5 hPa 0,0 l/m 4,6 km/h S 173 0 min 0,000 mm 0,0 UV-I 0 W/m 10,5 C 11,3 C 9,6 km/h 100,00 %
29.09.2020 07:56 11,3 C 95 % 1013,6 hPa 0,0 l/m 6,4 km/h S-SO 153 0 min 0,000 mm 0,0 UV-I 0 W/m 10,5 C 11,3 C 9,6 km/h 100,00 %
29.09.2020 07:55 11,4 C 95 % 1013,6 hPa 0,0 l/m 4,1 km/h S-SO 147 0 min 0,000 mm 0,0 UV-I 0 W/m 10,6 C 11,4 C 7,7 km/h 100,00 %
29.09.2020 07:54 11,3 C 95 % 1013,6 hPa 0,0 l/m 5,5 km/h S-SO 157 0 min 0,000 mm 0,0 UV-I 0 W/m 10,5 C 11,3 C 9,6 km/h 100,00 %
29.09.2020 07:53 11,4 C 95 % 1013,6 hPa 0,0 l/m 2,0 km/h S-SO 162 0 min 0,000 mm 0,0 UV-I 0 W/m 10,6 C 11,4 C 3,8 km/h 100,00 %
29.09.2020 07:52 11,3 C 95 % 1013,6 hPa 0,2 l/m 3,2 km/h S-SO 161 0 min 0,000 mm 0,0 UV-I 0 W/m 10,5 C 11,3 C 7,7 km/h 95,65 %
29.09.2020 07:51 11,3 C 95 % 1013,6 hPa 0,0 l/m 2,2 km/h S-SO 161 0 min 0,000 mm 0,0 UV-I 0 W/m 10,5 C 11,3 C 3,8 km/h 100,00 %
29.09.2020 07:50 11,3 C 95 % 1013,6 hPa 0,0 l/m 1,7 km/h S-SO 161 0 min 0,000 mm 0,0 UV-I 0 W/m 10,5 C 11,3 C 3,8 km/h 91,30 %
29.09.2020 07:49 11,4 C 95 % 1013,6 hPa 0,0 l/m 3,3 km/h S-SO 161 0 min 0,000 mm 0,0 UV-I 0 W/m 10,6 C 11,4 C 7,7 km/h 100,00 %
29.09.2020 07:48 11,4 C 95 % 1013,6 hPa 0,0 l/m 1,2 km/h SO 128 0 min 0,000 mm 0,0 UV-I 0 W/m 10,6 C 11,4 C 3,8 km/h 100,00 %
29.09.2020 07:47 11,4 C 95 % 1013,5 hPa 0,0 l/m 3,0 km/h SO 128 0 min 0,000 mm 0,0 UV-I 0 W/m 10,6 C 11,4 C 5,7 km/h 100,00 %
29.09.2020 07:46 11,4 C 95 % 1013,5 hPa 0,0 l/m 3,9 km/h SO 128 0 min 0,000 mm 0,0 UV-I 0 W/m 10,6 C 11,4 C 7,7 km/h 100,00 %
29.09.2020 07:45 11,4 C 95 % 1013,6 hPa 0,2 l/m 4,4 km/h SO 130 0 min 0,000 mm 0,0 UV-I 0 W/m 10,6 C 11,4 C 5,7 km/h 100,00 %
29.09.2020 07:44 11,4 C 95 % 1013,6 hPa 0,0 l/m 3,8 km/h SO 136 0 min 0,000 mm 0,0 UV-I 0 W/m 10,6 C 11,4 C 7,7 km/h 100,00 %
29.09.2020 07:43 11,4 C 95 % 1013,6 hPa 0,0 l/m 3,2 km/h SO 139 0 min 0,000 mm 0,0 UV-I 0 W/m 10,6 C 11,4 C 5,7 km/h 95,65 %
29.09.2020 07:42 11,3 C 95 % 1013,6 hPa 0,0 l/m 2,7 km/h SO 139 0 min 0,000 mm 0,0 UV-I 0 W/m 10,5 C 11,3 C 3,8 km/h 100,00 %
29.09.2020 07:41 11,4 C 95 % 1013,6 hPa 0,2 l/m 1,0 km/h SO 139 0 min 0,000 mm 0,0 UV-I 0 W/m 10,6 C 11,4 C 3,8 km/h 100,00 %
29.09.2020 07:40 11,3 C 95 % 1013,6 hPa 0,0 l/m 0,5 km/h SO 139 0 min 0,000 mm 0,0 UV-I 0 W/m 10,5 C 11,3 C 1,9 km/h 96,30 %
29.09.2020 07:39 11,3 C 95 % 1013,6 hPa 0,0 l/m 1,9 km/h SO 139 0 min 0,000 mm 0,0 UV-I 0 W/m 10,5 C 11,3 C 3,8 km/h 100,00 %
29.09.2020 07:38 11,3 C 95 % 1013,6 hPa 0,0 l/m 0,3 km/h SO 139 0 min 0,000 mm 0,0 UV-I 0 W/m 10,5 C 11,3 C 1,9 km/h 100,00 %
29.09.2020 07:37 11,3 C 95 % 1013,6 hPa 0,2 l/m 0,5 km/h SO 139 0 min 0,000 mm 0,0 UV-I 0 W/m 10,5 C 11,3 C 1,9 km/h 100,00 %
29.09.2020 07:36 11,3 C 95 % 1013,6 hPa 0,0 l/m 0,8 km/h SO 139 0 min 0,000 mm 0,0 UV-I 0 W/m 10,5 C 11,3 C 1,9 km/h 100,00 %
29.09.2020 07:35 11,3 C 95 % 1013,5 hPa 0,2 l/m 1,5 km/h SO 139 0 min 0,000 mm 0,0 UV-I 0 W/m 10,5 C 11,3 C 3,8 km/h 100,00 %
29.09.2020 07:34 11,3 C 95 % 1013,5 hPa 0,0 l/m 0,2 km/h SO 139 0 min 0,000 mm 0,0 UV-I 0 W/m 10,5 C 11,3 C 1,9 km/h 100,00 %
29.09.2020 07:33 11,3 C 95 % 1013,5 hPa 0,0 l/m 2,2 km/h SO 139 0 min 0,000 mm 0,0 UV-I 0 W/m 10,5 C 11,3 C 3,8 km/h 97,37 %
29.09.2020 07:32 11,3 C 95 % 1013,5 hPa 0,0 l/m 1,2 km/h SO 140 0 min 0,000 mm 0,0 UV-I 0 W/m 10,5 C 11,3 C 3,8 km/h 97,65 %
29.09.2020 07:31 11,3 C 95 % 1013,5 hPa 0,2 l/m 1,6 km/h SO 140 0 min 0,000 mm 0,0 UV-I 0 W/m 10,5 C 11,3 C 3,8 km/h 100,00 %
29.09.2020 07:30 11,3 C 95 % 1013,5 hPa 0,0 l/m 0,0 km/h SO 140 0 min 0,000 mm 0,0 UV-I 0 W/m 10,5 C 11,3 C 0,0 km/h 100,00 %
29.09.2020 07:29 11,3 C 95 % 1013,4 hPa 0,0 l/m 0,7 km/h SO 140 0 min 0,000 mm 0,0 UV-I 0 W/m 10,5 C 11,3 C 1,9 km/h 95,83 %
29.09.2020 07:28 11,3 C 95 % 1013,4 hPa 0,0 l/m 0,2 km/h SO 140 0 min 0,000 mm 0,0 UV-I 0 W/m 10,5 C 11,3 C 1,9 km/h 100,00 %
29.09.2020 07:27 11,3 C 95 % 1013,4 hPa 0,0 l/m 0,7 km/h SO 140 0 min 0,000 mm 0,0 UV-I 0 W/m 10,5 C 11,3 C 1,9 km/h 100,00 %
29.09.2020 07:26 11,3 C 94 % 1013,4 hPa 0,0 l/m 1,8 km/h SO 140 0 min 0,000 mm 0,0 UV-I 0 W/m 10,4 C 11,3 C 5,7 km/h 100,00 %
29.09.2020 07:25 11,3 C 94 % 1013,3 hPa 0,0 l/m 2,2 km/h SO 140 0 min 0,000 mm 0,0 UV-I 0 W/m 10,4 C 11,3 C 3,8 km/h 100,00 %
29.09.2020 07:24 11,3 C 94 % 1013,3 hPa 0,0 l/m 1,5 km/h SO 139 0 min 0,000 mm 0,0 UV-I 0 W/m 10,4 C 11,3 C 3,8 km/h 100,00 %
29.09.2020 07:23 11,3 C 95 % 1013,3 hPa 0,2 l/m 2,6 km/h SO 139 0 min 0,000 mm 0,0 UV-I 0 W/m 10,5 C 11,3 C 3,8 km/h 91,67 %
29.09.2020 07:22 11,3 C 94 % 1013,3 hPa 0,0 l/m 3,0 km/h SO 140 0 min 0,000 mm 0,0 UV-I 0 W/m 10,4 C 11,3 C 7,7 km/h 100,00 %
29.09.2020 07:21 11,3 C 94 % 1013,3 hPa 0,0 l/m 1,6 km/h SO 140 0 min 0,000 mm 0,0 UV-I 0 W/m 10,4 C 11,3 C 1,9 km/h 100,00 %
29.09.2020 07:20 11,3 C 94 % 1013,3 hPa 0,0 l/m 0,1 km/h SO 140 0 min 0,000 mm 0,0 UV-I 0 W/m 10,4 C 11,3 C 1,9 km/h 100,00 %
29.09.2020 07:19 11,3 C 94 % 1013,4 hPa 0,0 l/m 1,3 km/h SO 140 0 min 0,000 mm 0,0 UV-I 0 W/m 10,4 C 11,3 C 5,7 km/h 100,00 %
29.09.2020 07:18 11,3 C 94 % 1013,3 hPa 0,0 l/m 2,5 km/h SO 140 0 min 0,000 mm 0,0 UV-I 0 W/m 10,4 C 11,3 C 3,8 km/h 97,55 %
29.09.2020 07:17 11,3 C 94 % 1013,3 hPa 0,0 l/m 3,2 km/h SO 140 0 min 0,000 mm 0,0 UV-I 0 W/m 10,4 C 11,3 C 5,7 km/h 100,00 %
29.09.2020 07:16 11,3 C 94 % 1013,3 hPa 0,0 l/m 3,2 km/h SO 140 0 min 0,000 mm 0,0 UV-I 0 W/m 10,4 C 11,3 C 5,7 km/h 100,00 %
29.09.2020 07:15 11,3 C 94 % 1013,3 hPa 0,0 l/m 1,1 km/h SO 139 0 min 0,000 mm 0,0 UV-I 0 W/m 10,4 C 11,3 C 3,8 km/h 100,00 %
29.09.2020 07:14 11,3 C 94 % 1013,2 hPa 0,0 l/m 2,6 km/h SO 139 0 min 0,000 mm 0,0 UV-I 0 W/m 10,4 C 11,3 C 5,7 km/h 96,15 %
29.09.2020 07:13 11,3 C 94 % 1013,3 hPa 0,0 l/m 1,9 km/h SO 138 0 min 0,000 mm 0,0 UV-I 0 W/m 10,4 C 11,3 C 3,8 km/h 100,00 %
29.09.2020 07:12 11,3 C 94 % 1013,3 hPa 0,0 l/m 4,3 km/h SO 138 0 min 0,000 mm 0,0 UV-I 0 W/m 10,4 C 11,3 C 9,6 km/h 100,00 %
29.09.2020 07:11 11,3 C 94 % 1013,3 hPa 0,0 l/m 2,7 km/h S 176 0 min 0,000 mm 0,0 UV-I 0 W/m 10,4 C 11,3 C 3,8 km/h 100,00 %
29.09.2020 07:10 11,3 C 94 % 1013,2 hPa 0,0 l/m 1,0 km/h S 176 0 min 0,000 mm 0,0 UV-I 0 W/m 10,4 C 11,3 C 3,8 km/h 100,00 %
29.09.2020 07:09 11,3 C 94 % 1013,2 hPa 0,0 l/m 2,1 km/h S 176 0 min 0,000 mm 0,0 UV-I 0 W/m 10,4 C 11,3 C 5,7 km/h 100,00 %
29.09.2020 07:08 11,3 C 94 % 1013,2 hPa 0,0 l/m 2,7 km/h S 176 0 min 0,000 mm 0,0 UV-I 0 W/m 10,4 C 11,3 C 7,7 km/h 100,00 %
29.09.2020 07:07 11,3 C 94 % 1013,2 hPa 0,0 l/m 2,5 km/h S 173 0 min 0,000 mm 0,0 UV-I 0 W/m 10,4 C 11,3 C 5,7 km/h 100,00 %
29.09.2020 07:06 11,3 C 94 % 1013,2 hPa 0,0 l/m 1,3 km/h S 173 0 min 0,000 mm 0,0 UV-I 0 W/m 10,4 C 11,3 C 1,9 km/h 100,00 %
29.09.2020 07:05 11,3 C 94 % 1013,3 hPa 0,0 l/m 3,3 km/h S 173 0 min 0,000 mm 0,0 UV-I 0 W/m 10,4 C 11,3 C 3,8 km/h 95,65 %
29.09.2020 07:04 11,3 C 94 % 1013,2 hPa 0,0 l/m 4,7 km/h S 173 0 min 0,000 mm 0,0 UV-I 0 W/m 10,4 C 11,3 C 5,7 km/h 100,00 %
29.09.2020 07:03 11,3 C 94 % 1013,2 hPa 0,0 l/m 3,8 km/h S 173 0 min 0,000 mm 0,0 UV-I 0 W/m 10,4 C 11,3 C 5,7 km/h 100,00 %
29.09.2020 07:02 11,3 C 94 % 1013,2 hPa 0,0 l/m 5,5 km/h S 172 0 min 0,000 mm 0,0 UV-I 0 W/m 10,4 C 11,3 C 9,6 km/h 100,00 %
29.09.2020 07:01 11,3 C 94 % 1013,2 hPa 0,2 l/m 4,4 km/h S 178 0 min 0,000 mm 0,0 UV-I 0 W/m 10,4 C 11,3 C 7,7 km/h 100,00 %
29.09.2020 07:00 11,3 C 94 % 1013,2 hPa 0,0 l/m 6,3 km/h S 176 0 min 0,000 mm 0,0 UV-I 0 W/m 10,4 C 11,3 C 9,6 km/h 100,00 %
29.09.2020 06:59 11,3 C 94 % 1013,2 hPa 0,0 l/m 3,4 km/h S-SO 157 0 min 0,000 mm 0,0 UV-I 0 W/m 10,4 C 11,3 C 3,8 km/h 100,00 %
29.09.2020 06:58 11,3 C 94 % 1013,2 hPa 0,0 l/m 2,9 km/h S-SO 157 0 min 0,000 mm 0,0 UV-I 0 W/m 10,4 C 11,3 C 5,7 km/h 100,00 %
29.09.2020 06:57 11,3 C 94 % 1013,2 hPa 0,0 l/m 3,1 km/h S-SO 153 0 min 0,000 mm 0,0 UV-I 0 W/m 10,4 C 11,3 C 5,7 km/h 100,00 %
29.09.2020 06:56 11,3 C 94 % 1013,2 hPa 0,0 l/m 2,8 km/h S-SO 153 0 min 0,000 mm 0,0 UV-I 0 W/m 10,4 C 11,3 C 3,8 km/h 97,78 %
29.09.2020 06:55 11,3 C 94 % 1013,2 hPa 0,0 l/m 3,2 km/h S-SO 153 0 min 0,000 mm 0,0 UV-I 0 W/m 10,4 C 11,3 C 5,7 km/h 97,29 %
29.09.2020 06:54 11,3 C 94 % 1013,2 hPa 0,0 l/m 3,5 km/h S-SO 155 0 min 0,000 mm 0,0 UV-I 0 W/m 10,4 C 11,3 C 5,7 km/h 100,00 %
29.09.2020 06:53 11,3 C 94 % 1013,2 hPa 0,0 l/m 0,6 km/h S-SO 155 0 min 0,000 mm 0,0 UV-I 0 W/m 10,4 C 11,3 C 1,9 km/h 100,00 %
29.09.2020 06:52 11,3 C 94 % 1013,1 hPa 0,0 l/m 0,4 km/h S-SO 155 0 min 0,000 mm 0,0 UV-I 0 W/m 10,4 C 11,3 C 1,9 km/h 100,00 %
29.09.2020 06:51 11,3 C 94 % 1013,2 hPa 0,0 l/m 1,7 km/h S-SO 155 0 min 0,000 mm 0,0 UV-I 0 W/m 10,4 C 11,3 C 1,9 km/h 100,00 %
29.09.2020 06:50 11,3 C 94 % 1013,1 hPa 0,0 l/m 1,8 km/h S-SO 155 0 min 0,000 mm 0,0 UV-I 0 W/m 10,4 C 11,3 C 5,7 km/h 100,00 %
29.09.2020 06:49 11,3 C 94 % 1013,1 hPa 0,0 l/m 3,2 km/h S-SO 155 0 min 0,000 mm 0,0 UV-I 0 W/m 10,4 C 11,3 C 5,7 km/h 100,00 %
29.09.2020 06:48 11,3 C 94 % 1013,1 hPa 0,0 l/m 1,7 km/h S-SO 155 0 min 0,000 mm 0,0 UV-I 0 W/m 10,4 C 11,3 C 5,7 km/h 100,00 %
29.09.2020 06:47 11,3 C 94 % 1013,1 hPa 0,0 l/m 0,4 km/h S-SO 155 0 min 0,000 mm 0,0 UV-I 0 W/m 10,4 C 11,3 C 1,9 km/h 95,83 %
29.09.2020 06:46 11,3 C 94 % 1013,1 hPa 0,2 l/m 1,0 km/h S-SO 155 0 min 0,000 mm 0,0 UV-I 0 W/m 10,4 C 11,3 C 1,9 km/h 100,00 %
29.09.2020 06:45 11,3 C 94 % 1013,1 hPa 0,0 l/m 0,8 km/h S-SO 155 0 min 0,000 mm 0,0 UV-I 0 W/m 10,4 C 11,3 C 1,9 km/h 100,00 %
29.09.2020 06:44 11,3 C 93 % 1013,1 hPa 0,0 l/m 1,3 km/h S-SO 155 0 min 0,000 mm 0,0 UV-I 0 W/m 10,2 C 11,3 C 1,9 km/h 100,00 %
29.09.2020 06:43 11,3 C 93 % 1013,1 hPa 0,0 l/m 0,9 km/h S-SO 155 0 min 0,000 mm 0,0 UV-I 0 W/m 10,2 C 11,3 C 1,9 km/h 100,00 %
29.09.2020 06:42 11,3 C 93 % 1013,1 hPa 0,0 l/m 3,3 km/h S-SO 155 0 min 0,000 mm 0,0 UV-I 0 W/m 10,2 C 11,3 C 5,7 km/h 95,65 %
29.09.2020 06:41 11,3 C 93 % 1013,0 hPa 0,0 l/m 1,1 km/h S-SO 155 0 min 0,000 mm 0,0 UV-I 0 W/m 10,2 C 11,3 C 3,8 km/h 96,30 %
29.09.2020 06:40 11,3 C 93 % 1013,1 hPa 0,0 l/m 1,6 km/h S-SO 155 0 min 0,000 mm 0,0 UV-I 0 W/m 10,2 C 11,3 C 3,8 km/h 100,00 %
29.09.2020 06:39 11,3 C 93 % 1013,1 hPa 0,0 l/m 1,1 km/h S-SO 155 0 min 0,000 mm 0,0 UV-I 0 W/m 10,2 C 11,3 C 1,9 km/h 95,83 %
29.09.2020 06:38 11,3 C 93 % 1013,1 hPa 0,0 l/m 3,5 km/h S-SO 155 0 min 0,000 mm 0,0 UV-I 0 W/m 10,2 C 11,3 C 5,7 km/h 95,65 %
29.09.2020 06:37 11,3 C 93 % 1013,1 hPa 0,0 l/m 2,6 km/h S-SO 155 0 min 0,000 mm 0,0 UV-I 0 W/m 10,2 C 11,3 C 5,7 km/h 100,00 %
29.09.2020 06:36 11,3 C 93 % 1013,0 hPa 0,0 l/m 1,7 km/h S-SO 155 0 min 0,000 mm 0,0 UV-I 0 W/m 10,2 C 11,3 C 3,8 km/h 90,91 %
29.09.2020 06:35 11,3 C 93 % 1013,0 hPa 0,0 l/m 3,0 km/h S-SO 155 0 min 0,000 mm 0,0 UV-I 0 W/m 10,2 C 11,3 C 3,8 km/h 100,00 %
29.09.2020 06:34 11,3 C 93 % 1013,1 hPa 0,0 l/m 2,5 km/h S-SO 155 0 min 0,000 mm 0,0 UV-I 0 W/m 10,2 C 11,3 C 3,8 km/h 97,37 %
29.09.2020 06:33 11,3 C 93 % 1013,1 hPa 0,0 l/m 1,2 km/h S-SO 155 0 min 0,000 mm 0,0 UV-I 0 W/m 10,2 C 11,3 C 3,8 km/h 100,00 %
29.09.2020 06:32 11,3 C 93 % 1013,0 hPa 0,0 l/m 1,1 km/h S-SO 155 0 min 0,000 mm 0,0 UV-I 0 W/m 10,2 C 11,3 C 1,9 km/h 92,31 %
29.09.2020 06:31 11,3 C 93 % 1013,0 hPa 0,0 l/m 1,0 km/h S-SO 155 0 min 0,000 mm 0,0 UV-I 0 W/m 10,2 C 11,3 C 1,9 km/h 100,00 %
29.09.2020 06:30 11,3 C 93 % 1013,0 hPa 0,0 l/m 1,3 km/h S-SO 155 0 min 0,000 mm 0,0 UV-I 0 W/m 10,2 C 11,3 C 5,7 km/h 97,37 %
29.09.2020 06:29 11,3 C 93 % 1013,0 hPa 0,0 l/m 1,4 km/h S-SO 155 0 min 0,000 mm 0,0 UV-I 0 W/m 10,2 C 11,3 C 5,7 km/h 97,11 %
29.09.2020 06:28 11,3 C 93 % 1013,0 hPa 0,0 l/m 1,1 km/h S-SO 155 0 min 0,000 mm 0,0 UV-I 0 W/m 10,2 C 11,3 C 3,8 km/h 100,00 %
29.09.2020 06:27 11,3 C 93 % 1013,0 hPa 0,0 l/m 1,7 km/h S-SO 155 0 min 0,000 mm 0,0 UV-I 0 W/m 10,2 C 11,3 C 3,8 km/h 96,15 %
29.09.2020 06:26 11,3 C 93 % 1013,0 hPa 0,0 l/m 2,4 km/h S-SO 155 0 min 0,000 mm 0,0 UV-I 0 W/m 10,2 C 11,3 C 3,8 km/h 100,00 %
29.09.2020 06:25 11,3 C 93 % 1013,0 hPa 0,0 l/m 2,0 km/h S-SO 155 0 min 0,000 mm 0,0 UV-I 0 W/m 10,2 C 11,3 C 3,8 km/h 95,65 %
29.09.2020 06:24 11,3 C 93 % 1013,0 hPa 0,0 l/m 3,1 km/h S-SO 158 0 min 0,000 mm 0,0 UV-I 0 W/m 10,2 C 11,3 C 5,7 km/h 100,00 %
29.09.2020 06:23 11,3 C 93 % 1013,0 hPa 0,2 l/m 1,9 km/h S-SO 152 0 min 0,000 mm 0,0 UV-I 0 W/m 10,2 C 11,3 C 5,7 km/h 95,65 %
29.09.2020 06:22 11,3 C 93 % 1013,0 hPa 0,0 l/m 3,2 km/h S-SO 151 0 min 0,000 mm 0,0 UV-I 0 W/m 10,2 C 11,3 C 5,7 km/h 96,30 %
29.09.2020 06:21 11,3 C 93 % 1013,0 hPa 0,0 l/m 4,5 km/h S-SO 150 0 min 0,000 mm 0,0 UV-I 0 W/m 10,2 C 11,3 C 5,7 km/h 100,00 %
29.09.2020 06:20 11,3 C 93 % 1013,1 hPa 0,0 l/m 2,9 km/h S-SO 151 0 min 0,000 mm 0,0 UV-I 0 W/m 10,2 C 11,3 C 3,8 km/h 91,67 %
29.09.2020 06:19 11,3 C 93 % 1013,1 hPa 0,0 l/m 1,7 km/h S-SO 150 0 min 0,000 mm 0,0 UV-I 0 W/m 10,2 C 11,3 C 5,7 km/h 100,00 %
29.09.2020 06:18 11,3 C 93 % 1013,0 hPa 0,0 l/m 1,9 km/h S-SO 150 0 min 0,000 mm 0,0 UV-I 0 W/m 10,2 C 11,3 C 3,8 km/h 95,83 %
29.09.2020 06:17 11,3 C 93 % 1013,1 hPa 0,0 l/m 1,0 km/h S-SO 150 0 min 0,000 mm 0,0 UV-I 0 W/m 10,2 C 11,3 C 1,9 km/h 96,15 %
29.09.2020 06:16 11,3 C 93 % 1013,1 hPa 0,0 l/m 0,1 km/h S-SO 150 0 min 0,000 mm 0,0 UV-I 0 W/m 10,2 C 11,3 C 1,9 km/h 100,00 %
29.09.2020 06:15 11,3 C 93 % 1013,1 hPa 0,0 l/m 1,4 km/h S-SO 150 0 min 0,000 mm 0,0 UV-I 0 W/m 10,2 C 11,3 C 3,8 km/h 100,00 %
29.09.2020 06:14 11,3 C 93 % 1013,0 hPa 0,0 l/m 0,3 km/h S-SO 150 0 min 0,000 mm 0,0 UV-I 0 W/m 10,2 C 11,3 C 1,9 km/h 93,10 %
29.09.2020 06:13 11,3 C 93 % 1013,1 hPa 0,0 l/m 0,5 km/h S-SO 150 0 min 0,000 mm 0,0 UV-I 0 W/m 10,2 C 11,3 C 1,9 km/h 95,65 %
29.09.2020 06:12 11,3 C 93 % 1013,1 hPa 0,0 l/m 1,6 km/h S-SO 150 0 min 0,000 mm 0,0 UV-I 0 W/m 10,2 C 11,3 C 3,8 km/h 100,00 %
29.09.2020 06:11 11,3 C 93 % 1013,1 hPa 0,0 l/m 1,5 km/h S-SO 150 0 min 0,000 mm 0,0 UV-I 0 W/m 10,2 C 11,3 C 3,8 km/h 95,65 %
29.09.2020 06:10 11,3 C 93 % 1013,1 hPa 0,2 l/m 1,7 km/h S-SO 150 0 min 0,000 mm 0,0 UV-I 0 W/m 10,2 C 11,3 C 5,7 km/h 95,83 %
29.09.2020 06:09 11,3 C 92 % 1013,1 hPa 0,0 l/m 0,5 km/h S-SO 150 0 min 0,000 mm 0,0 UV-I 0 W/m 10,0 C 11,3 C 1,9 km/h 91,30 %
29.09.2020 06:08 11,3 C 92 % 1013,1 hPa 0,0 l/m 2,8 km/h S-SO 150 0 min 0,000 mm 0,0 UV-I 0 W/m 10,0 C 11,3 C 5,7 km/h 100,00 %
29.09.2020 06:07 11,3 C 92 % 1013,1 hPa 0,0 l/m 4,0 km/h S-SO 151 0 min 0,000 mm 0,0 UV-I 0 W/m 10,0 C 11,3 C 7,7 km/h 96,00 %
29.09.2020 06:06 11,3 C 92 % 1013,1 hPa 0,0 l/m 1,7 km/h S-SO 150 0 min 0,000 mm 0,0 UV-I 0 W/m 10,0 C 11,3 C 3,8 km/h 100,00 %
29.09.2020 06:05 11,2 C 92 % 1013,1 hPa 0,0 l/m 0,6 km/h S-SO 150 0 min 0,000 mm 0,0 UV-I 0 W/m 9,9 C 11,2 C 1,9 km/h 95,83 %
29.09.2020 06:04 11,2 C 92 % 1013,1 hPa 0,0 l/m 3,9 km/h S-SO 150 0 min 0,000 mm 0,0 UV-I 0 W/m 9,9 C 11,2 C 5,7 km/h 95,65 %
29.09.2020 06:03 11,2 C 92 % 1013,1 hPa 0,0 l/m 3,7 km/h S-SO 151 0 min 0,000 mm 0,0 UV-I 0 W/m 9,9 C 11,2 C 7,7 km/h 100,00 %
29.09.2020 06:02 11,2 C 92 % 1013,1 hPa 0,0 l/m 2,7 km/h S 177 0 min 0,000 mm 0,0 UV-I 0 W/m 9,9 C 11,2 C 5,7 km/h 95,65 %
29.09.2020 06:01 11,2 C 92 % 1013,1 hPa 0,0 l/m 1,6 km/h S 181 0 min 0,000 mm 0,0 UV-I 0 W/m 9,9 C 11,2 C 3,8 km/h 95,83 %
29.09.2020 06:00 11,2 C 92 % 1013,1 hPa 0,0 l/m 3,8 km/h S 181 0 min 0,000 mm 0,0 UV-I 0 W/m 9,9 C 11,2 C 5,7 km/h 96,55 %
29.09.2020 05:59 11,2 C 92 % 1013,1 hPa 0,0 l/m 2,2 km/h S 182 0 min 0,000 mm 0,0 UV-I 0 W/m 9,9 C 11,2 C 5,7 km/h 100,00 %
29.09.2020 05:58 11,2 C 92 % 1013,1 hPa 0,0 l/m 1,3 km/h S 181 0 min 0,000 mm 0,0 UV-I 0 W/m 9,9 C 11,2 C 3,8 km/h 91,30 %
29.09.2020 05:57 11,2 C 92 % 1013,1 hPa 0,0 l/m 1,1 km/h S 181 0 min 0,000 mm 0,0 UV-I 0 W/m 9,9 C 11,2 C 3,8 km/h 96,30 %
29.09.2020 05:56 11,2 C 92 % 1013,1 hPa 0,0 l/m 2,5 km/h S 181 0 min 0,000 mm 0,0 UV-I 0 W/m 9,9 C 11,2 C 3,8 km/h 100,00 %
29.09.2020 05:55 11,2 C 92 % 1013,0 hPa 0,0 l/m 2,0 km/h S 182 0 min 0,000 mm 0,0 UV-I 0 W/m 9,9 C 11,2 C 3,8 km/h 91,67 %
29.09.2020 05:54 11,2 C 92 % 1013,0 hPa 0,0 l/m 2,0 km/h S 182 0 min 0,000 mm 0,0 UV-I 0 W/m 9,9 C 11,2 C 5,7 km/h 100,00 %
29.09.2020 05:53 11,2 C 92 % 1013,0 hPa 0,0 l/m 3,8 km/h S 182 0 min 0,000 mm 0,0 UV-I 0 W/m 9,9 C 11,2 C 5,7 km/h 91,67 %
29.09.2020 05:52 11,2 C 92 % 1013,0 hPa 0,0 l/m 1,6 km/h S 182 0 min 0,000 mm 0,0 UV-I 0 W/m 9,9 C 11,2 C 3,8 km/h 100,00 %
29.09.2020 05:51 11,2 C 92 % 1013,0 hPa 0,0 l/m 1,1 km/h S 182 0 min 0,000 mm 0,0 UV-I 0 W/m 9,9 C 11,2 C 5,7 km/h 96,30 %
29.09.2020 05:50 11,2 C 92 % 1013,0 hPa 0,0 l/m 2,2 km/h S 182 0 min 0,000 mm 0,0 UV-I 0 W/m 9,9 C 11,2 C 3,8 km/h 100,00 %
29.09.2020 05:49 11,2 C 92 % 1013,0 hPa 0,0 l/m 2,7 km/h S 182 0 min 0,000 mm 0,0 UV-I 0 W/m 9,9 C 11,2 C 3,8 km/h 95,65 %
29.09.2020 05:48 11,3 C 92 % 1013,0 hPa 0,0 l/m 4,1 km/h S 182 0 min 0,000 mm 0,0 UV-I 0 W/m 10,0 C 11,3 C 9,6 km/h 95,83 %
29.09.2020 05:47 11,3 C 92 % 1013,0 hPa 0,0 l/m 4,4 km/h S 171 0 min 0,000 mm 0,0 UV-I 0 W/m 10,0 C 11,3 C 11,5 km/h 100,00 %
29.09.2020 05:46 11,3 C 92 % 1013,0 hPa 0,0 l/m 2,5 km/h S 177 0 min 0,000 mm 0,0 UV-I 0 W/m 10,0 C 11,3 C 3,8 km/h 96,00 %
29.09.2020 05:45 11,3 C 92 % 1013,0 hPa 0,0 l/m 3,2 km/h S 178 0 min 0,000 mm 0,0 UV-I 0 W/m 10,0 C 11,3 C 5,7 km/h 100,00 %
29.09.2020 05:44 11,3 C 92 % 1013,0 hPa 0,0 l/m 6,9 km/h S 182 0 min 0,000 mm 0,0 UV-I 0 W/m 10,0 C 11,0 C 11,5 km/h 91,67 %
29.09.2020 05:43 11,3 C 92 % 1013,0 hPa 0,0 l/m 4,2 km/h S 180 0 min 0,000 mm 0,0 UV-I 0 W/m 10,0 C 11,3 C 5,7 km/h 100,00 %
29.09.2020 05:42 11,3 C 92 % 1013,0 hPa 0,0 l/m 1,9 km/h S 180 0 min 0,000 mm 0,0 UV-I 0 W/m 10,0 C 11,3 C 3,8 km/h 96,00 %
29.09.2020 05:41 11,3 C 92 % 1013,0 hPa 0,0 l/m 2,7 km/h S 180 0 min 0,000 mm 0,0 UV-I 0 W/m 10,0 C 11,3 C 5,7 km/h 100,00 %
29.09.2020 05:40 11,3 C 92 % 1012,9 hPa 0,0 l/m 1,2 km/h S 186 0 min 0,000 mm 0,0 UV-I 0 W/m 10,0 C 11,3 C 3,8 km/h 95,83 %
29.09.2020 05:39 11,3 C 92 % 1013,0 hPa 0,0 l/m 4,1 km/h S 186 0 min 0,000 mm 0,0 UV-I 0 W/m 10,0 C 11,3 C 7,7 km/h 95,65 %
29.09.2020 05:38 11,3 C 92 % 1013,0 hPa 0,0 l/m 1,5 km/h SO 139 0 min 0,000 mm 0,0 UV-I 0 W/m 10,0 C 11,3 C 3,8 km/h 100,00 %
29.09.2020 05:37 11,3 C 92 % 1013,0 hPa 0,0 l/m 3,0 km/h SO 129 0 min 0,000 mm 0,0 UV-I 0 W/m 10,0 C 11,3 C 3,8 km/h 95,65 %
29.09.2020 05:36 11,3 C 92 % 1012,9 hPa 0,0 l/m 2,8 km/h SO 129 0 min 0,000 mm 0,0 UV-I 0 W/m 10,0 C 11,3 C 5,7 km/h 100,00 %
29.09.2020 05:35 11,3 C 92 % 1012,9 hPa 0,0 l/m 2,5 km/h SO 129 0 min 0,000 mm 0,0 UV-I 0 W/m 10,0 C 11,3 C 3,8 km/h 92,31 %
29.09.2020 05:34 11,3 C 92 % 1013,0 hPa 0,0 l/m 2,0 km/h SO 129 0 min 0,000 mm 0,0 UV-I 0 W/m 10,0 C 11,3 C 3,8 km/h 97,44 %
29.09.2020 05:33 11,3 C 92 % 1012,9 hPa 0,0 l/m 1,4 km/h SO 129 0 min 0,000 mm 0,0 UV-I 0 W/m 10,0 C 11,3 C 3,8 km/h 100,00 %
29.09.2020 05:32 11,3 C 92 % 1013,0 hPa 0,0 l/m 2,3 km/h SO 129 0 min 0,000 mm 0,0 UV-I 0 W/m 10,0 C 11,3 C 3,8 km/h 100,00 %
29.09.2020 05:31 11,3 C 92 % 1013,0 hPa 0,0 l/m 1,8 km/h SO 129 0 min 0,000 mm 0,0 UV-I 0 W/m 10,0 C 11,3 C 3,8 km/h 95,83 %
29.09.2020 05:30 11,3 C 92 % 1012,9 hPa 0,0 l/m 2,0 km/h SO 129 0 min 0,000 mm 0,0 UV-I 0 W/m 10,0 C 11,3 C 3,8 km/h 96,15 %
29.09.2020 05:29 11,3 C 92 % 1012,9 hPa 0,0 l/m 3,5 km/h SO 129 0 min 0,000 mm 0,0 UV-I 0 W/m 10,0 C 11,3 C 5,7 km/h 100,00 %
29.09.2020 05:28 11,3 C 92 % 1012,9 hPa 0,0 l/m 3,8 km/h SO 129 0 min 0,000 mm 0,0 UV-I 0 W/m 10,0 C 11,3 C 5,7 km/h 92,31 %
29.09.2020 05:27 11,3 C 92 % 1012,9 hPa 0,0 l/m 4,4 km/h SO 130 0 min 0,000 mm 0,0 UV-I 0 W/m 10,0 C 11,3 C 7,7 km/h 100,00 %
29.09.2020 05:26 11,3 C 92 % 1012,9 hPa 0,0 l/m 4,2 km/h SO 126 0 min 0,000 mm 0,0 UV-I 0 W/m 10,0 C 11,3 C 7,7 km/h 97,56 %
29.09.2020 05:25 11,3 C 92 % 1012,9 hPa 0,0 l/m 3,3 km/h SO 126 0 min 0,000 mm 0,0 UV-I 0 W/m 10,0 C 11,3 C 5,7 km/h 97,14 %
29.09.2020 05:24 11,3 C 92 % 1012,9 hPa 0,0 l/m 3,4 km/h SO 126 0 min 0,000 mm 0,0 UV-I 0 W/m 10,0 C 11,3 C 5,7 km/h 95,83 %
29.09.2020 05:23 11,3 C 92 % 1012,9 hPa 0,0 l/m 2,6 km/h SO 126 0 min 0,000 mm 0,0 UV-I 0 W/m 10,0 C 11,3 C 5,7 km/h 95,83 %
29.09.2020 05:22 11,3 C 92 % 1012,9 hPa 0,0 l/m 2,9 km/h O-SO 120 0 min 0,000 mm 0,0 UV-I 0 W/m 10,0 C 11,3 C 5,7 km/h 96,15 %
29.09.2020 05:21 11,3 C 92 % 1012,8 hPa 0,0 l/m 4,3 km/h O-SO 120 0 min 0,000 mm 0,0 UV-I 0 W/m 10,0 C 11,3 C 5,7 km/h 95,83 %
29.09.2020 05:20 11,3 C 92 % 1012,9 hPa 0,0 l/m 4,1 km/h O-SO 117 0 min 0,000 mm 0,0 UV-I 0 W/m 10,0 C 11,3 C 5,7 km/h 100,00 %
29.09.2020 05:19 11,3 C 92 % 1012,8 hPa 0,0 l/m 0,0 km/h O-SO 117 0 min 0,000 mm 0,0 UV-I 0 W/m 10,0 C 11,3 C 0,0 km/h 95,83 %
29.09.2020 05:18 11,3 C 92 % 1012,8 hPa 0,0 l/m 0,6 km/h O-SO 117 0 min 0,000 mm 0,0 UV-I 0 W/m 10,0 C 11,3 C 1,9 km/h 100,00 %
29.09.2020 05:17 11,3 C 92 % 1012,8 hPa 0,0 l/m 1,6 km/h O-SO 117 0 min 0,000 mm 0,0 UV-I 0 W/m 10,0 C 11,3 C 3,8 km/h 95,83 %
29.09.2020 05:16 11,3 C 92 % 1012,8 hPa 0,0 l/m 2,5 km/h O-SO 117 0 min 0,000 mm 0,0 UV-I 0 W/m 10,0 C 11,3 C 3,8 km/h 96,15 %
29.09.2020 05:15 11,3 C 92 % 1012,8 hPa 0,0 l/m 2,7 km/h O-SO 117 0 min 0,000 mm 0,0 UV-I 0 W/m 10,0 C 11,3 C 5,7 km/h 100,00 %
29.09.2020 05:14 11,3 C 92 % 1012,8 hPa 0,0 l/m 1,6 km/h O-SO 117 0 min 0,000 mm 0,0 UV-I 0 W/m 10,0 C 11,3 C 3,8 km/h 96,55 %
29.09.2020 05:13 11,3 C 92 % 1012,8 hPa 0,0 l/m 1,2 km/h O-SO 117 0 min 0,000 mm 0,0 UV-I 0 W/m 10,0 C 11,3 C 3,8 km/h 100,00 %
29.09.2020 05:12 11,3 C 92 % 1012,8 hPa 0,0 l/m 1,1 km/h O-SO 117 0 min 0,000 mm 0,0 UV-I 0 W/m 10,0 C 11,3 C 1,9 km/h 95,65 %
29.09.2020 05:11 11,3 C 92 % 1012,8 hPa 0,0 l/m 0,3 km/h O-SO 117 0 min 0,000 mm 0,0 UV-I 0 W/m 10,0 C 11,3 C 1,9 km/h 100,00 %
29.09.2020 05:10 11,3 C 92 % 1012,8 hPa 0,0 l/m 1,4 km/h O-SO 117 0 min 0,000 mm 0,0 UV-I 0 W/m 10,0 C 11,3 C 1,9 km/h 95,83 %
29.09.2020 05:09 11,3 C 92 % 1012,8 hPa 0,0 l/m 1,1 km/h O-SO 117 0 min 0,000 mm 0,0 UV-I 0 W/m 10,0 C 11,3 C 1,9 km/h 100,00 %
29.09.2020 05:08 11,3 C 92 % 1012,7 hPa 0,0 l/m 1,4 km/h O-SO 117 0 min 0,000 mm 0,0 UV-I 0 W/m 10,0 C 11,3 C 3,8 km/h 97,37 %
29.09.2020 05:07 11,3 C 92 % 1012,8 hPa 0,0 l/m 0,0 km/h O-SO 117 0 min 0,000 mm 0,0 UV-I 0 W/m 10,0 C 11,3 C 0,0 km/h 97,07 %
29.09.2020 05:06 11,3 C 92 % 1012,8 hPa 0,0 l/m 1,3 km/h O-SO 117 0 min 0,000 mm 0,0 UV-I 0 W/m 10,0 C 11,3 C 3,8 km/h 96,30 %
29.09.2020 05:05 11,3 C 92 % 1012,8 hPa 0,0 l/m 1,8 km/h O-SO 117 0 min 0,000 mm 0,0 UV-I 0 W/m 10,0 C 11,3 C 3,8 km/h 95,65 %
29.09.2020 05:04 11,3 C 92 % 1012,9 hPa 0,0 l/m 1,9 km/h O-SO 117 0 min 0,000 mm 0,0 UV-I 0 W/m 10,0 C 11,3 C 3,8 km/h 100,00 %
29.09.2020 05:03 11,3 C 92 % 1012,9 hPa 0,0 l/m 0,7 km/h O-SO 117 0 min 0,000 mm 0,0 UV-I 0 W/m 10,0 C 11,3 C 1,9 km/h 91,30 %
29.09.2020 05:02 11,3 C 92 % 1012,8 hPa 0,0 l/m 1,8 km/h O-SO 117 0 min 0,000 mm 0,0 UV-I 0 W/m 10,0 C 11,3 C 3,8 km/h 100,00 %
29.09.2020 05:01 11,3 C 92 % 1012,8 hPa 0,0 l/m 3,5 km/h O-SO 117 0 min 0,000 mm 0,0 UV-I 0 W/m 10,0 C 11,3 C 5,7 km/h 92,31 %
29.09.2020 05:00 11,3 C 92 % 1012,8 hPa 0,0 l/m 1,8 km/h O-SO 117 0 min 0,000 mm 0,0 UV-I 0 W/m 10,0 C 11,3 C 3,8 km/h 100,00 %
29.09.2020 04:59 11,3 C 92 % 1012,9 hPa 0,0 l/m 3,2 km/h O-SO 117 0 min 0,000 mm 0,0 UV-I 0 W/m 10,0 C 11,3 C 5,7 km/h 95,65 %
29.09.2020 04:58 11,3 C 92 % 1012,9 hPa 0,0 l/m 1,5 km/h O-SO 117 0 min 0,000 mm 0,0 UV-I 0 W/m 10,0 C 11,3 C 3,8 km/h 96,00 %
29.09.2020 04:57 11,3 C 92 % 1012,9 hPa 0,0 l/m 0,4 km/h O-SO 117 0 min 0,000 mm 0,0 UV-I 0 W/m 10,0 C 11,3 C 1,9 km/h 100,00 %
29.09.2020 04:56 11,3 C 92 % 1012,9 hPa 0,0 l/m 1,3 km/h O-SO 117 0 min 0,000 mm 0,0 UV-I 0 W/m 10,0 C 11,3 C 3,8 km/h 91,67 %
29.09.2020 04:55 11,3 C 92 % 1012,9 hPa 0,0 l/m 0,7 km/h O-SO 117 0 min 0,000 mm 0,0 UV-I 0 W/m 10,0 C 11,3 C 1,9 km/h 100,00 %
29.09.2020 04:54 11,3 C 92 % 1012,9 hPa 0,0 l/m 1,7 km/h O-SO 117 0 min 0,000 mm 0,0 UV-I 0 W/m 10,0 C 11,3 C 3,8 km/h 92,59 %
29.09.2020 04:53 11,3 C 92 % 1012,8 hPa 0,0 l/m 1,1 km/h O-SO 117 0 min 0,000 mm 0,0 UV-I 0 W/m 10,0 C 11,3 C 3,8 km/h 96,15 %
29.09.2020 04:52 11,3 C 92 % 1012,8 hPa 0,0 l/m 1,4 km/h O-SO 117 0 min 0,000 mm 0,0 UV-I 0 W/m 10,0 C 11,3 C 3,8 km/h 95,83 %
29.09.2020 04:51 11,3 C 91 % 1012,8 hPa 0,0 l/m 1,1 km/h O-SO 117 0 min 0,000 mm 0,0 UV-I 0 W/m 9,9 C 11,3 C 3,8 km/h 100,00 %
29.09.2020 04:50 11,3 C 91 % 1012,8 hPa 0,0 l/m 1,0 km/h O-SO 117 0 min 0,000 mm 0,0 UV-I 0 W/m 9,9 C 11,3 C 1,9 km/h 95,65 %
29.09.2020 04:49 11,3 C 91 % 1012,8 hPa 0,0 l/m 1,8 km/h O-SO 117 0 min 0,000 mm 0,0 UV-I 0 W/m 9,9 C 11,3 C 3,8 km/h 96,00 %
29.09.2020 04:48 11,3 C 91 % 1012,8 hPa 0,0 l/m 3,4 km/h O-SO 117 0 min 0,000 mm 0,0 UV-I 0 W/m 9,9 C 11,3 C 3,8 km/h 100,00 %
29.09.2020 04:47 11,3 C 91 % 1012,8 hPa 0,0 l/m 0,9 km/h O-SO 117 0 min 0,000 mm 0,0 UV-I 0 W/m 9,9 C 11,3 C 1,9 km/h 95,83 %
29.09.2020 04:46 11,3 C 91 % 1012,8 hPa 0,0 l/m 0,1 km/h O-SO 117 0 min 0,000 mm 0,0 UV-I 0 W/m 9,9 C 11,3 C 1,9 km/h 100,00 %
29.09.2020 04:45 11,3 C 91 % 1012,8 hPa 0,0 l/m 1,3 km/h O-SO 117 0 min 0,000 mm 0,0 UV-I 0 W/m 9,9 C 11,3 C 3,8 km/h 95,83 %
29.09.2020 04:44 11,3 C 91 % 1012,8 hPa 0,0 l/m 0,0 km/h O-SO 117 0 min 0,000 mm 0,0 UV-I 0 W/m 9,9 C 11,3 C 0,0 km/h 100,00 %
29.09.2020 04:43 11,3 C 91 % 1012,8 hPa 0,0 l/m 0,4 km/h O-SO 117 0 min 0,000 mm 0,0 UV-I 0 W/m 9,9 C 11,3 C 1,9 km/h 95,83 %
29.09.2020 04:42 11,3 C 91 % 1012,8 hPa 0,0 l/m 0,1 km/h O-SO 117 0 min 0,000 mm 0,0 UV-I 0 W/m 9,9 C 11,3 C 1,9 km/h 100,00 %
29.09.2020 04:41 11,3 C 91 % 1012,8 hPa 0,0 l/m 0,1 km/h O-SO 117 0 min 0,000 mm 0,0 UV-I 0 W/m 9,9 C 11,3 C 1,9 km/h 96,30 %
29.09.2020 04:40 11,3 C 91 % 1012,8 hPa 0,0 l/m 1,1 km/h O-SO 117 0 min 0,000 mm 0,0 UV-I 0 W/m 9,9 C 11,3 C 1,9 km/h 96,15 %
29.09.2020 04:39 11,3 C 91 % 1012,7 hPa 0,0 l/m 1,3 km/h O-SO 117 0 min 0,000 mm 0,0 UV-I 0 W/m 9,9 C 11,3 C 3,8 km/h 100,00 %
29.09.2020 04:38 11,3 C 91 % 1012,7 hPa 0,0 l/m 1,0 km/h O-SO 117 0 min 0,000 mm 0,0 UV-I 0 W/m 9,9 C 11,3 C 1,9 km/h 96,15 %
29.09.2020 04:37 11,3 C 91 % 1012,8 hPa 0,0 l/m 3,0 km/h O-SO 117 0 min 0,000 mm 0,0 UV-I 0 W/m 9,9 C 11,3 C 5,7 km/h 100,00 %
29.09.2020 04:36 11,3 C 91 % 1012,7 hPa 0,0 l/m 2,7 km/h O-SO 117 0 min 0,000 mm 0,0 UV-I 0 W/m 9,9 C 11,3 C 5,7 km/h 95,65 %
29.09.2020 04:35 11,3 C 91 % 1012,7 hPa 0,0 l/m 2,4 km/h O-SO 117 0 min 0,000 mm 0,0 UV-I 0 W/m 9,9 C 11,3 C 5,7 km/h 100,00 %
29.09.2020 04:34 11,3 C 91 % 1012,7 hPa 0,0 l/m 3,9 km/h O-SO 117 0 min 0,000 mm 0,0 UV-I 0 W/m 9,9 C 11,3 C 5,7 km/h 92,86 %
29.09.2020 04:33 11,3 C 91 % 1012,7 hPa 0,0 l/m 1,2 km/h O-SO 117 0 min 0,000 mm 0,0 UV-I 0 W/m 9,9 C 11,3 C 3,8 km/h 100,00 %
29.09.2020 04:32 11,3 C 91 % 1012,7 hPa 0,0 l/m 3,3 km/h O-SO 117 0 min 0,000 mm 0,0 UV-I 0 W/m 9,9 C 11,3 C 5,7 km/h 95,83 %
29.09.2020 04:31 11,3 C 91 % 1012,8 hPa 0,0 l/m 4,8 km/h O-SO 117 0 min 0,000 mm 0,0 UV-I 0 W/m 9,9 C 11,3 C 7,7 km/h 95,65 %
29.09.2020 04:30 11,3 C 91 % 1012,8 hPa 0,0 l/m 2,7 km/h O-SO 121 0 min 0,000 mm 0,0 UV-I 0 W/m 9,9 C 11,3 C 5,7 km/h 100,00 %
29.09.2020 04:29 11,3 C 91 % 1012,7 hPa 0,0 l/m 4,7 km/h O-SO 119 0 min 0,000 mm 0,0 UV-I 0 W/m 9,9 C 11,3 C 7,7 km/h 95,65 %
29.09.2020 04:28 11,2 C 91 % 1012,7 hPa 0,0 l/m 2,3 km/h S-SO 153 0 min 0,000 mm 0,0 UV-I 0 W/m 9,8 C 11,2 C 3,8 km/h 100,00 %
29.09.2020 04:27 11,2 C 91 % 1012,7 hPa 0,0 l/m 0,8 km/h S-SO 153 0 min 0,000 mm 0,0 UV-I 0 W/m 9,8 C 11,2 C 1,9 km/h 95,65 %
29.09.2020 04:26 11,2 C 91 % 1012,7 hPa 0,0 l/m 0,2 km/h S-SO 153 0 min 0,000 mm 0,0 UV-I 0 W/m 9,8 C 11,2 C 1,9 km/h 100,00 %
29.09.2020 04:25 11,2 C 91 % 1012,7 hPa 0,0 l/m 1,4 km/h S-SO 153 0 min 0,000 mm 0,0 UV-I 0 W/m 9,8 C 11,2 C 3,8 km/h 95,65 %
29.09.2020 04:24 11,2 C 91 % 1012,7 hPa 0,0 l/m 2,1 km/h S-SO 153 0 min 0,000 mm 0,0 UV-I 0 W/m 9,8 C 11,2 C 3,8 km/h 100,00 %
29.09.2020 04:23 11,2 C 91 % 1012,7 hPa 0,0 l/m 1,8 km/h S-SO 153 0 min 0,000 mm 0,0 UV-I 0 W/m 9,8 C 11,2 C 3,8 km/h 95,65 %
29.09.2020 04:22 11,2 C 91 % 1012,7 hPa 0,0 l/m 1,2 km/h S-SO 153 0 min 0,000 mm 0,0 UV-I 0 W/m 9,8 C 11,2 C 3,8 km/h 100,00 %
29.09.2020 04:21 11,2 C 91 % 1012,7 hPa 0,0 l/m 4,5 km/h S-SO 153 0 min 0,000 mm 0,0 UV-I 0 W/m 9,8 C 11,2 C 9,6 km/h 96,15 %
29.09.2020 04:20 11,2 C 91 % 1012,7 hPa 0,0 l/m 2,5 km/h S-SO 163 0 min 0,000 mm 0,0 UV-I 0 W/m 9,8 C 11,2 C 7,7 km/h 95,83 %
29.09.2020 04:19 11,2 C 91 % 1012,7 hPa 0,0 l/m 3,4 km/h S-SO 163 0 min 0,000 mm 0,0 UV-I 0 W/m 9,8 C 11,2 C 7,7 km/h 100,00 %
29.09.2020 04:18 11,2 C 91 % 1012,7 hPa 0,0 l/m 2,3 km/h S-SO 163 0 min 0,000 mm 0,0 UV-I 0 W/m 9,8 C 11,2 C 3,8 km/h 95,83 %
29.09.2020 04:17 11,2 C 91 % 1012,7 hPa 0,0 l/m 2,2 km/h S-SO 163 0 min 0,000 mm 0,0 UV-I 0 W/m 9,8 C 11,2 C 3,8 km/h 100,00 %
29.09.2020 04:16 11,2 C 91 % 1012,8 hPa 0,0 l/m 0,3 km/h S-SO 163 0 min 0,000 mm 0,0 UV-I 0 W/m 9,8 C 11,2 C 1,9 km/h 96,30 %
29.09.2020 04:15 11,2 C 91 % 1012,7 hPa 0,0 l/m 1,4 km/h S-SO 163 0 min 0,000 mm 0,0 UV-I 0 W/m 9,8 C 11,2 C 3,8 km/h 95,65 %
29.09.2020 04:14 11,2 C 91 % 1012,8 hPa 0,0 l/m 1,2 km/h S-SO 163 0 min 0,000 mm 0,0 UV-I 0 W/m 9,8 C 11,2 C 3,8 km/h 100,00 %
29.09.2020 04:13 11,2 C 91 % 1012,8 hPa 0,0 l/m 0,4 km/h S-SO 163 0 min 0,000 mm 0,0 UV-I 0 W/m 9,8 C 11,2 C 1,9 km/h 88,46 %
29.09.2020 04:12 11,2 C 91 % 1012,7 hPa 0,0 l/m 1,1 km/h S-SO 163 0 min 0,000 mm 0,0 UV-I 0 W/m 9,8 C 11,2 C 1,9 km/h 100,00 %
29.09.2020 04:11 11,2 C 91 % 1012,7 hPa 0,0 l/m 0,3 km/h S-SO 163 0 min 0,000 mm 0,0 UV-I 0 W/m 9,8 C 11,2 C 1,9 km/h 95,83 %
29.09.2020 04:10 11,2 C 91 % 1012,7 hPa 0,0 l/m 1,4 km/h S-SO 163 0 min 0,000 mm 0,0 UV-I 0 W/m 9,8 C 11,2 C 3,8 km/h 100,00 %
29.09.2020 04:09 11,2 C 91 % 1012,7 hPa 0,0 l/m 0,7 km/h S-SO 163 0 min 0,000 mm 0,0 UV-I 0 W/m 9,8 C 11,2 C 3,8 km/h 96,30 %
29.09.2020 04:08 11,2 C 91 % 1012,7 hPa 0,0 l/m 0,1 km/h S-SO 163 0 min 0,000 mm 0,0 UV-I 0 W/m 9,8 C 11,2 C 1,9 km/h 95,65 %
29.09.2020 04:07 11,2 C 91 % 1012,7 hPa 0,0 l/m 0,3 km/h S-SO 163 0 min 0,000 mm 0,0 UV-I 0 W/m 9,8 C 11,2 C 1,9 km/h 95,83 %
29.09.2020 04:06 11,2 C 91 % 1012,7 hPa 0,0 l/m 0,0 km/h S-SO 163 0 min 0,000 mm 0,0 UV-I 0 W/m 9,8 C 11,2 C 0,0 km/h 100,00 %
29.09.2020 04:05 11,2 C 91 % 1012,7 hPa 0,0 l/m 0,1 km/h S-SO 163 0 min 0,000 mm 0,0 UV-I 0 W/m 9,8 C 11,2 C 1,9 km/h 95,83 %
29.09.2020 04:04 11,2 C 91 % 1012,6 hPa 0,0 l/m 0,3 km/h S-SO 163 0 min 0,000 mm 0,0 UV-I 0 W/m 9,8 C 11,2 C 1,9 km/h 96,15 %
29.09.2020 04:03 11,2 C 91 % 1012,6 hPa 0,0 l/m 0,5 km/h S-SO 163 0 min 0,000 mm 0,0 UV-I 0 W/m 9,8 C 11,2 C 1,9 km/h 100,00 %
29.09.2020 04:02 11,2 C 91 % 1012,6 hPa 0,0 l/m 2,8 km/h S-SO 163 0 min 0,000 mm 0,0 UV-I 0 W/m 9,8 C 11,2 C 7,7 km/h 95,65 %
29.09.2020 04:01 11,2 C 91 % 1012,5 hPa 0,0 l/m 2,2 km/h S-SO 163 0 min 0,000 mm 0,0 UV-I 0 W/m 9,8 C 11,2 C 7,7 km/h 100,00 %
29.09.2020 04:00 11,2 C 91 % 1012,6 hPa 0,0 l/m 1,1 km/h S-SO 163 0 min 0,000 mm 0,0 UV-I 0 W/m 9,8 C 11,2 C 3,8 km/h 96,55 %
29.09.2020 03:59 11,2 C 91 % 1012,5 hPa 0,0 l/m 0,1 km/h S-SO 163 0 min 0,000 mm 0,0 UV-I 0 W/m 9,8 C 11,2 C 1,9 km/h 100,00 %
29.09.2020 03:58 11,2 C 91 % 1012,5 hPa 0,0 l/m 2,6 km/h S-SO 163 0 min 0,000 mm 0,0 UV-I 0 W/m 9,8 C 11,2 C 3,8 km/h 91,30 %
29.09.2020 03:57 11,2 C 90 % 1012,5 hPa 0,0 l/m 1,4 km/h S-SO 163 0 min 0,000 mm 0,0 UV-I 0 W/m 9,6 C 11,2 C 3,8 km/h 95,83 %
29.09.2020 03:56 11,3 C 90 % 1012,5 hPa 0,0 l/m 2,9 km/h S-SO 163 0 min 0,000 mm 0,0 UV-I 0 W/m 9,7 C 11,3 C 3,8 km/h 96,55 %
29.09.2020 03:55 11,3 C 90 % 1012,5 hPa 0,0 l/m 0,0 km/h S-SO 163 0 min 0,000 mm 0,0 UV-I 0 W/m 9,7 C 11,3 C 0,0 km/h 95,83 %
29.09.2020 03:54 11,3 C 90 % 1012,5 hPa 0,0 l/m 0,7 km/h S-SO 163 0 min 0,000 mm 0,0 UV-I 0 W/m 9,7 C 11,3 C 3,8 km/h 100,00 %
29.09.2020 03:53 11,3 C 90 % 1012,4 hPa 0,0 l/m 1,9 km/h S-SO 163 0 min 0,000 mm 0,0 UV-I 0 W/m 9,7 C 11,3 C 3,8 km/h 93,33 %
29.09.2020 03:52 11,3 C 91 % 1012,4 hPa 0,0 l/m 3,0 km/h S-SO 163 0 min 0,000 mm 0,0 UV-I 0 W/m 9,9 C 11,3 C 7,7 km/h 100,00 %
29.09.2020 03:51 11,3 C 91 % 1012,5 hPa 0,0 l/m 3,0 km/h S-SO 163 0 min 0,000 mm 0,0 UV-I 0 W/m 9,9 C 11,3 C 3,8 km/h 96,15 %
29.09.2020 03:50 11,3 C 90 % 1012,5 hPa 0,0 l/m 0,6 km/h S-SO 163 0 min 0,000 mm 0,0 UV-I 0 W/m 9,7 C 11,3 C 1,9 km/h 100,00 %
29.09.2020 03:49 11,3 C 90 % 1012,5 hPa 0,0 l/m 0,1 km/h S-SO 163 0 min 0,000 mm 0,0 UV-I 0 W/m 9,7 C 11,3 C 1,9 km/h 95,65 %
29.09.2020 03:48 11,3 C 90 % 1012,4 hPa 0,0 l/m 1,6 km/h S-SO 163 0 min 0,000 mm 0,0 UV-I 0 W/m 9,7 C 11,3 C 3,8 km/h 95,83 %
29.09.2020 03:47 11,3 C 90 % 1012,4 hPa 0,0 l/m 1,4 km/h S-SO 163 0 min 0,000 mm 0,0 UV-I 0 W/m 9,7 C 11,3 C 3,8 km/h 100,00 %
29.09.2020 03:46 11,3 C 90 % 1012,5 hPa 0,0 l/m 0,4 km/h S-SO 163 0 min 0,000 mm 0,0 UV-I 0 W/m 9,7 C 11,3 C 1,9 km/h 95,83 %
29.09.2020 03:45 11,3 C 90 % 1012,5 hPa 0,0 l/m 1,6 km/h S-SO 163 0 min 0,000 mm 0,0 UV-I 0 W/m 9,7 C 11,3 C 1,9 km/h 100,00 %
29.09.2020 03:44 11,3 C 90 % 1012,4 hPa 0,0 l/m 2,5 km/h S-SO 163 0 min 0,000 mm 0,0 UV-I 0 W/m 9,7 C 11,3 C 7,7 km/h 95,83 %
29.09.2020 03:43 11,3 C 90 % 1012,4 hPa 0,0 l/m 0,7 km/h S-SO 163 0 min 0,000 mm 0,0 UV-I 0 W/m 9,7 C 11,3 C 3,8 km/h 100,00 %
29.09.2020 03:42 11,3 C 90 % 1012,4 hPa 0,0 l/m 2,2 km/h S-SO 163 0 min 0,000 mm 0,0 UV-I 0 W/m 9,7 C 11,3 C 3,8 km/h 96,30 %
29.09.2020 03:41 11,4 C 90 % 1012,4 hPa 0,0 l/m 1,2 km/h S-SO 163 0 min 0,000 mm 0,0 UV-I 0 W/m 9,8 C 11,4 C 3,8 km/h 100,00 %
29.09.2020 03:40 11,4 C 90 % 1012,4 hPa 0,0 l/m 1,4 km/h S-SO 163 0 min 0,000 mm 0,0 UV-I 0 W/m 9,8 C 11,4 C 3,8 km/h 96,30 %
29.09.2020 03:39 11,4 C 90 % 1012,5 hPa 0,0 l/m 4,2 km/h S-SO 163 0 min 0,000 mm 0,0 UV-I 0 W/m 9,8 C 11,4 C 9,6 km/h 96,15 %
29.09.2020 03:38 11,4 C 90 % 1012,5 hPa 0,0 l/m 1,8 km/h S-SO 163 0 min 0,000 mm 0,0 UV-I 0 W/m 9,8 C 11,4 C 7,7 km/h 100,00 %
29.09.2020 03:37 11,4 C 90 % 1012,5 hPa 0,0 l/m 2,7 km/h S-SO 164 0 min 0,000 mm 0,0 UV-I 0 W/m 9,8 C 11,4 C 3,8 km/h 95,65 %
29.09.2020 03:36 11,4 C 90 % 1012,5 hPa 0,0 l/m 2,6 km/h S-SO 164 0 min 0,000 mm 0,0 UV-I 0 W/m 9,8 C 11,4 C 3,8 km/h 100,00 %
29.09.2020 03:35 11,5 C 90 % 1012,5 hPa 0,0 l/m 1,4 km/h S-SO 164 0 min 0,000 mm 0,0 UV-I 0 W/m 9,9 C 11,5 C 3,8 km/h 95,65 %
29.09.2020 03:34 11,5 C 90 % 1012,5 hPa 0,0 l/m 5,2 km/h S-SO 164 0 min 0,000 mm 0,0 UV-I 0 W/m 9,9 C 11,5 C 7,7 km/h 100,00 %
29.09.2020 03:33 11,5 C 90 % 1012,5 hPa 0,0 l/m 5,3 km/h S-SO 163 0 min 0,000 mm 0,0 UV-I 0 W/m 9,9 C 11,5 C 9,6 km/h 95,83 %
29.09.2020 03:32 11,6 C 90 % 1012,4 hPa 0,0 l/m 4,9 km/h S 177 0 min 0,000 mm 0,0 UV-I 0 W/m 10,0 C 11,6 C 9,6 km/h 100,00 %
29.09.2020 03:31 11,6 C 90 % 1012,4 hPa 0,0 l/m 4,7 km/h S 175 0 min 0,000 mm 0,0 UV-I 0 W/m 10,0 C 11,6 C 11,5 km/h 96,30 %
29.09.2020 03:30 11,6 C 90 % 1012,4 hPa 0,0 l/m 1,0 km/h S 170 0 min 0,000 mm 0,0 UV-I 0 W/m 10,0 C 11,6 C 3,8 km/h 96,15 %
29.09.2020 03:29 11,6 C 90 % 1012,4 hPa 0,0 l/m 4,3 km/h S 170 0 min 0,000 mm 0,0 UV-I 0 W/m 10,0 C 11,6 C 7,7 km/h 100,00 %
29.09.2020 03:28 11,6 C 90 % 1012,4 hPa 0,0 l/m 4,9 km/h S-SO 168 0 min 0,000 mm 0,0 UV-I 0 W/m 10,0 C 11,6 C 7,7 km/h 96,15 %
29.09.2020 03:27 11,6 C 90 % 1012,4 hPa 0,0 l/m 2,5 km/h SO 137 0 min 0,000 mm 0,0 UV-I 0 W/m 10,0 C 11,6 C 3,8 km/h 100,00 %
29.09.2020 03:26 11,6 C 90 % 1012,4 hPa 0,0 l/m 1,1 km/h SO 137 0 min 0,000 mm 0,0 UV-I 0 W/m 10,0 C 11,6 C 3,8 km/h 95,65 %
29.09.2020 03:25 11,6 C 90 % 1012,4 hPa 0,0 l/m 3,0 km/h SO 137 0 min 0,000 mm 0,0 UV-I 0 W/m 10,0 C 11,6 C 5,7 km/h 100,00 %
29.09.2020 03:24 11,6 C 90 % 1012,4 hPa 0,0 l/m 5,6 km/h SO 134 0 min 0,000 mm 0,0 UV-I 0 W/m 10,0 C 11,6 C 11,5 km/h 96,15 %
29.09.2020 03:23 11,7 C 90 % 1012,4 hPa 0,0 l/m 4,0 km/h SO 126 0 min 0,000 mm 0,0 UV-I 0 W/m 10,1 C 11,7 C 7,7 km/h 100,00 %
29.09.2020 03:22 11,7 C 90 % 1012,4 hPa 0,0 l/m 2,7 km/h SO 127 0 min 0,000 mm 0,0 UV-I 0 W/m 10,1 C 11,7 C 5,7 km/h 97,14 %
29.09.2020 03:21 11,7 C 90 % 1012,4 hPa 0,0 l/m 4,1 km/h SO 127 0 min 0,000 mm 0,0 UV-I 0 W/m 10,1 C 11,7 C 7,7 km/h 95,83 %
29.09.2020 03:20 11,7 C 90 % 1012,4 hPa 0,0 l/m 4,3 km/h SO 126 0 min 0,000 mm 0,0 UV-I 0 W/m 10,1 C 11,7 C 5,7 km/h 100,00 %
29.09.2020 03:19 11,7 C 90 % 1012,4 hPa 0,0 l/m 3,0 km/h SO 126 0 min 0,000 mm 0,0 UV-I 0 W/m 10,1 C 11,7 C 5,7 km/h 96,15 %
29.09.2020 03:18 11,7 C 90 % 1012,4 hPa 0,0 l/m 4,3 km/h SO 127 0 min 0,000 mm 0,0 UV-I 0 W/m 10,1 C 11,7 C 5,7 km/h 100,00 %
29.09.2020 03:17 11,7 C 90 % 1012,5 hPa 0,0 l/m 2,4 km/h SO 127 0 min 0,000 mm 0,0 UV-I 0 W/m 10,1 C 11,7 C 5,7 km/h 95,83 %
29.09.2020 03:16 11,7 C 90 % 1012,5 hPa 0,0 l/m 1,4 km/h SO 127 0 min 0,000 mm 0,0 UV-I 0 W/m 10,1 C 11,7 C 3,8 km/h 100,00 %
29.09.2020 03:15 11,7 C 90 % 1012,5 hPa 0,0 l/m 2,9 km/h SO 127 0 min 0,000 mm 0,0 UV-I 0 W/m 10,1 C 11,7 C 5,7 km/h 95,83 %
29.09.2020 03:14 11,7 C 90 % 1012,4 hPa 0,0 l/m 2,6 km/h SO 127 0 min 0,000 mm 0,0 UV-I 0 W/m 10,1 C 11,7 C 3,8 km/h 95,83 %
29.09.2020 03:13 11,7 C 90 % 1012,5 hPa 0,0 l/m 3,9 km/h SO 126 0 min 0,000 mm 0,0 UV-I 0 W/m 10,1 C 11,7 C 5,7 km/h 100,00 %
29.09.2020 03:12 11,7 C 90 % 1012,5 hPa 0,0 l/m 2,2 km/h O-SO 122 0 min 0,000 mm 0,0 UV-I 0 W/m 10,1 C 11,7 C 5,7 km/h 96,30 %
29.09.2020 03:11 11,7 C 90 % 1012,5 hPa 0,0 l/m 0,5 km/h O-SO 122 0 min 0,000 mm 0,0 UV-I 0 W/m 10,1 C 11,7 C 1,9 km/h 100,00 %
29.09.2020 03:10 11,7 C 90 % 1012,5 hPa 0,0 l/m 2,4 km/h O-SO 122 0 min 0,000 mm 0,0 UV-I 0 W/m 10,1 C 11,7 C 3,8 km/h 91,67 %
29.09.2020 03:09 11,7 C 90 % 1012,5 hPa 0,0 l/m 1,8 km/h O-SO 122 0 min 0,000 mm 0,0 UV-I 0 W/m 10,1 C 11,7 C 5,7 km/h 100,00 %
29.09.2020 03:08 11,7 C 90 % 1012,5 hPa 0,0 l/m 2,9 km/h O-SO 122 0 min 0,000 mm 0,0 UV-I 0 W/m 10,1 C 11,7 C 7,7 km/h 96,67 %
29.09.2020 03:07 11,7 C 90 % 1012,5 hPa 0,0 l/m 2,6 km/h SO 126 0 min 0,000 mm 0,0 UV-I 0 W/m 10,1 C 11,7 C 3,8 km/h 100,00 %
29.09.2020 03:06 11,7 C 90 % 1012,5 hPa 0,0 l/m 5,5 km/h SO 126 0 min 0,000 mm 0,0 UV-I 0 W/m 10,1 C 11,7 C 9,6 km/h 93,33 %
29.09.2020 03:05 11,7 C 90 % 1012,5 hPa 0,0 l/m 3,5 km/h SO 126 0 min 0,000 mm 0,0 UV-I 0 W/m 10,1 C 11,7 C 9,6 km/h 100,00 %
29.09.2020 03:04 11,7 C 90 % 1012,5 hPa 0,0 l/m 4,5 km/h SO 130 0 min 0,000 mm 0,0 UV-I 0 W/m 10,1 C 11,7 C 5,7 km/h 95,83 %
29.09.2020 03:03 11,7 C 90 % 1012,5 hPa 0,0 l/m 3,3 km/h SO 130 0 min 0,000 mm 0,0 UV-I 0 W/m 10,1 C 11,7 C 7,7 km/h 95,65 %
29.09.2020 03:02 11,7 C 91 % 1012,5 hPa 0,0 l/m 5,2 km/h SO 126 0 min 0,000 mm 0,0 UV-I 0 W/m 10,3 C 11,7 C 9,6 km/h 100,00 %
29.09.2020 03:01 11,7 C 91 % 1012,5 hPa 0,0 l/m 5,7 km/h O-SO 113 0 min 0,000 mm 0,0 UV-I 0 W/m 10,3 C 11,7 C 7,7 km/h 95,65 %
29.09.2020 03:00 11,7 C 91 % 1012,5 hPa 0,0 l/m 6,1 km/h O-SO 110 0 min 0,000 mm 0,0 UV-I 0 W/m 10,3 C 11,7 C 7,7 km/h 100,00 %
29.09.2020 02:59 11,7 C 91 % 1012,4 hPa 0,0 l/m 5,9 km/h O-SO 109 0 min 0,000 mm 0,0 UV-I 0 W/m 10,3 C 11,7 C 7,7 km/h 96,15 %
29.09.2020 02:58 11,7 C 91 % 1012,5 hPa 0,0 l/m 6,4 km/h O-SO 104 0 min 0,000 mm 0,0 UV-I 0 W/m 10,3 C 11,7 C 11,5 km/h 100,00 %
29.09.2020 02:57 11,7 C 91 % 1012,5 hPa 0,0 l/m 4,8 km/h O-SO 121 0 min 0,000 mm 0,0 UV-I 0 W/m 10,3 C 11,7 C 7,7 km/h 96,15 %
29.09.2020 02:56 11,8 C 91 % 1012,5 hPa 0,0 l/m 3,1 km/h SO 126 0 min 0,000 mm 0,0 UV-I 0 W/m 10,4 C 11,8 C 5,7 km/h 100,00 %
29.09.2020 02:55 11,8 C 91 % 1012,5 hPa 0,0 l/m 3,3 km/h SO 126 0 min 0,000 mm 0,0 UV-I 0 W/m 10,4 C 11,8 C 5,7 km/h 95,83 %
29.09.2020 02:54 11,8 C 91 % 1012,5 hPa 0,0 l/m 3,3 km/h SO 126 0 min 0,000 mm 0,0 UV-I 0 W/m 10,4 C 11,8 C 3,8 km/h 96,15 %
29.09.2020 02:53 11,8 C 91 % 1012,5 hPa 0,0 l/m 4,7 km/h SO 127 0 min 0,000 mm 0,0 UV-I 0 W/m 10,4 C 11,8 C 7,7 km/h 100,00 %
29.09.2020 02:52 11,8 C 91 % 1012,5 hPa 0,0 l/m 2,4 km/h SO 126 0 min 0,000 mm 0,0 UV-I 0 W/m 10,4 C 11,8 C 3,8 km/h 96,15 %
29.09.2020 02:51 11,8 C 91 % 1012,5 hPa 0,0 l/m 3,6 km/h SO 126 0 min 0,000 mm 0,0 UV-I 0 W/m 10,4 C 11,8 C 5,7 km/h 100,00 %
29.09.2020 02:50 11,8 C 91 % 1012,6 hPa 0,0 l/m 1,2 km/h SO 126 0 min 0,000 mm 0,0 UV-I 0 W/m 10,4 C 11,8 C 1,9 km/h 91,67 %
29.09.2020 02:49 11,8 C 91 % 1012,6 hPa 0,0 l/m 0,1 km/h SO 126 0 min 0,000 mm 0,0 UV-I 0 W/m 10,4 C 11,8 C 1,9 km/h 91,67 %
29.09.2020 02:48 11,8 C 91 % 1012,6 hPa 0,0 l/m 0,0 km/h SO 126 0 min 0,000 mm 0,0 UV-I 0 W/m 10,4 C 11,8 C 0,0 km/h 95,65 %
29.09.2020 02:47 11,8 C 91 % 1012,7 hPa 0,0 l/m 0,0 km/h SO 126 0 min 0,000 mm 0,0 UV-I 0 W/m 10,4 C 11,8 C 0,0 km/h 100,00 %
29.09.2020 02:46 11,8 C 91 % 1012,6 hPa 0,0 l/m 0,4 km/h SO 126 0 min 0,000 mm 0,0 UV-I 0 W/m 10,4 C 11,8 C 1,9 km/h 95,65 %
29.09.2020 02:45 11,8 C 91 % 1012,6 hPa 0,0 l/m 1,0 km/h SO 126 0 min 0,000 mm 0,0 UV-I 0 W/m 10,4 C 11,8 C 1,9 km/h 95,83 %
29.09.2020 02:44 11,8 C 91 % 1012,5 hPa 0,0 l/m 1,7 km/h SO 126 0 min 0,000 mm 0,0 UV-I 0 W/m 10,4 C 11,8 C 5,7 km/h 100,00 %
29.09.2020 02:43 11,8 C 91 % 1012,5 hPa 0,0 l/m 1,9 km/h O-SO 122 0 min 0,000 mm 0,0 UV-I 0 W/m 10,4 C 11,8 C 3,8 km/h 91,67 %
29.09.2020 02:42 11,8 C 91 % 1012,5 hPa 0,0 l/m 2,2 km/h O-SO 122 0 min 0,000 mm 0,0 UV-I 0 W/m 10,4 C 11,8 C 3,8 km/h 95,65 %
29.09.2020 02:41 11,8 C 91 % 1012,5 hPa 0,0 l/m 2,0 km/h O-SO 122 0 min 0,000 mm 0,0 UV-I 0 W/m 10,4 C 11,8 C 3,8 km/h 95,83 %
29.09.2020 02:40 11,8 C 91 % 1012,4 hPa 0,0 l/m 1,1 km/h O-SO 122 0 min 0,000 mm 0,0 UV-I 0 W/m 10,4 C 11,8 C 1,9 km/h 95,65 %
29.09.2020 02:39 11,8 C 91 % 1012,4 hPa 0,0 l/m 0,0 km/h O-SO 122 0 min 0,000 mm 0,0 UV-I 0 W/m 10,4 C 11,8 C 0,0 km/h 96,30 %
29.09.2020 02:38 11,8 C 91 % 1012,4 hPa 0,0 l/m 0,5 km/h O-SO 122 0 min 0,000 mm 0,0 UV-I 0 W/m 10,4 C 11,8 C 1,9 km/h 96,15 %
29.09.2020 02:37 11,8 C 91 % 1012,4 hPa 0,0 l/m 0,9 km/h O-SO 122 0 min 0,000 mm 0,0 UV-I 0 W/m 10,4 C 11,8 C 1,9 km/h 100,00 %
29.09.2020 02:36 11,8 C 91 % 1012,4 hPa 0,0 l/m 1,2 km/h O-SO 122 0 min 0,000 mm 0,0 UV-I 0 W/m 10,4 C 11,8 C 3,8 km/h 91,67 %
29.09.2020 02:35 11,8 C 91 % 1012,4 hPa 0,0 l/m 1,8 km/h O-SO 122 0 min 0,000 mm 0,0 UV-I 0 W/m 10,4 C 11,8 C 3,8 km/h 100,00 %
29.09.2020 02:34 11,8 C 91 % 1012,4 hPa 0,0 l/m 2,5 km/h O-SO 122 0 min 0,000 mm 0,0 UV-I 0 W/m 10,4 C 11,8 C 5,7 km/h 92,00 %
29.09.2020 02:33 11,8 C 91 % 1012,4 hPa 0,0 l/m 0,9 km/h O-SO 122 0 min 0,000 mm 0,0 UV-I 0 W/m 10,4 C 11,8 C 3,8 km/h 100,00 %
29.09.2020 02:32 11,8 C 91 % 1012,4 hPa 0,0 l/m 1,7 km/h O-SO 122 0 min 0,000 mm 0,0 UV-I 0 W/m 10,4 C 11,8 C 3,8 km/h 96,30 %
29.09.2020 02:31 11,8 C 91 % 1012,4 hPa 0,0 l/m 2,4 km/h O-SO 122 0 min 0,000 mm 0,0 UV-I 0 W/m 10,4 C 11,8 C 5,7 km/h 100,00 %
29.09.2020 02:30 11,8 C 91 % 1012,4 hPa 0,0 l/m 4,4 km/h O-SO 122 0 min 0,000 mm 0,0 UV-I 0 W/m 10,4 C 11,8 C 7,7 km/h 95,83 %
29.09.2020 02:29 11,8 C 91 % 1012,4 hPa 0,0 l/m 4,4 km/h O-SO 123 0 min 0,000 mm 0,0 UV-I 0 W/m 10,4 C 11,8 C 7,7 km/h 95,65 %
29.09.2020 02:28 11,8 C 91 % 1012,3 hPa 0,0 l/m 2,6 km/h O-SO 123 0 min 0,000 mm 0,0 UV-I 0 W/m 10,4 C 11,8 C 3,8 km/h 100,00 %
29.09.2020 02:27 11,8 C 91 % 1012,3 hPa 0,0 l/m 3,0 km/h O-SO 123 0 min 0,000 mm 0,0 UV-I 0 W/m 10,4 C 11,8 C 3,8 km/h 95,65 %
29.09.2020 02:26 11,8 C 91 % 1012,3 hPa 0,0 l/m 1,9 km/h O-SO 123 0 min 0,000 mm 0,0 UV-I 0 W/m 10,4 C 11,8 C 3,8 km/h 100,00 %
29.09.2020 02:25 11,8 C 91 % 1012,3 hPa 0,0 l/m 0,7 km/h O-SO 123 0 min 0,000 mm 0,0 UV-I 0 W/m 10,4 C 11,8 C 3,8 km/h 95,65 %
29.09.2020 02:24 11,8 C 91 % 1012,3 hPa 0,0 l/m 1,3 km/h O-SO 123 0 min 0,000 mm 0,0 UV-I 0 W/m 10,4 C 11,8 C 3,8 km/h 100,00 %
29.09.2020 02:23 11,8 C 91 % 1012,3 hPa 0,0 l/m 2,4 km/h O-SO 123 0 min 0,000 mm 0,0 UV-I 0 W/m 10,4 C 11,8 C 5,7 km/h 95,65 %
29.09.2020 02:22 11,8 C 91 % 1012,3 hPa 0,0 l/m 2,0 km/h O-SO 123 0 min 0,000 mm 0,0 UV-I 0 W/m 10,4 C 11,8 C 5,7 km/h 100,00 %
29.09.2020 02:21 11,8 C 91 % 1012,3 hPa 0,0 l/m 1,3 km/h O-SO 123 0 min 0,000 mm 0,0 UV-I 0 W/m 10,4 C 11,8 C 5,7 km/h 96,15 %
29.09.2020 02:20 11,8 C 91 % 1012,3 hPa 0,0 l/m 1,2 km/h O-SO 123 0 min 0,000 mm 0,0 UV-I 0 W/m 10,4 C 11,8 C 3,8 km/h 96,30 %
29.09.2020 02:19 11,8 C 91 % 1012,2 hPa 0,0 l/m 3,8 km/h O-SO 123 0 min 0,000 mm 0,0 UV-I 0 W/m 10,4 C 11,8 C 5,7 km/h 100,00 %
29.09.2020 02:18 11,8 C 90 % 1012,3 hPa 0,0 l/m 1,3 km/h O-SO 121 0 min 0,000 mm 0,0 UV-I 0 W/m 10,2 C 11,8 C 3,8 km/h 93,33 %
29.09.2020 02:17 11,8 C 90 % 1012,2 hPa 0,0 l/m 3,3 km/h O-SO 121 0 min 0,000 mm 0,0 UV-I 0 W/m 10,2 C 11,8 C 5,7 km/h 100,00 %
29.09.2020 02:16 11,8 C 90 % 1012,2 hPa 0,0 l/m 1,5 km/h O-SO 121 0 min 0,000 mm 0,0 UV-I 0 W/m 10,2 C 11,8 C 3,8 km/h 88,46 %
29.09.2020 02:15 11,8 C 90 % 1012,3 hPa 0,0 l/m 1,2 km/h O-SO 121 0 min 0,000 mm 0,0 UV-I 0 W/m 10,2 C 11,8 C 1,9 km/h 100,00 %
29.09.2020 02:14 11,8 C 90 % 1012,2 hPa 0,0 l/m 1,6 km/h O-SO 121 0 min 0,000 mm 0,0 UV-I 0 W/m 10,2 C 11,8 C 3,8 km/h 95,83 %
29.09.2020 02:13 11,8 C 90 % 1012,3 hPa 0,0 l/m 2,7 km/h O-SO 121 0 min 0,000 mm 0,0 UV-I 0 W/m 10,2 C 11,8 C 3,8 km/h 95,83 %
29.09.2020 02:12 11,8 C 90 % 1012,3 hPa 0,0 l/m 2,4 km/h O-SO 121 0 min 0,000 mm 0,0 UV-I 0 W/m 10,2 C 11,8 C 3,8 km/h 100,00 %
29.09.2020 02:11 11,8 C 90 % 1012,3 hPa 0,0 l/m 0,6 km/h O-SO 121 0 min 0,000 mm 0,0 UV-I 0 W/m 10,2 C 11,8 C 1,9 km/h 100,00 %
29.09.2020 02:10 11,8 C 90 % 1012,3 hPa 0,0 l/m 0,0 km/h O-SO 121 0 min 0,000 mm 0,0 UV-I 0 W/m 10,2 C 11,8 C 0,0 km/h 96,15 %
29.09.2020 02:09 11,8 C 90 % 1012,3 hPa 0,0 l/m 0,0 km/h O-SO 121 0 min 0,000 mm 0,0 UV-I 0 W/m 10,2 C 11,8 C 0,0 km/h 96,30 %
29.09.2020 02:08 11,8 C 90 % 1012,3 hPa 0,0 l/m 0,2 km/h O-SO 121 0 min 0,000 mm 0,0 UV-I 0 W/m 10,2 C 11,8 C 1,9 km/h 100,00 %
29.09.2020 02:07 11,8 C 90 % 1012,3 hPa 0,0 l/m 0,4 km/h O-SO 121 0 min 0,000 mm 0,0 UV-I 0 W/m 10,2 C 11,8 C 1,9 km/h 95,83 %
29.09.2020 02:06 11,8 C 90 % 1012,3 hPa 0,0 l/m 0,4 km/h O-SO 121 0 min 0,000 mm 0,0 UV-I 0 W/m 10,2 C 11,8 C 1,9 km/h 100,00 %
29.09.2020 02:05 11,8 C 90 % 1012,3 hPa 0,0 l/m 0,3 km/h O-SO 121 0 min 0,000 mm 0,0 UV-I 0 W/m 10,2 C 11,8 C 1,9 km/h 96,30 %
29.09.2020 02:04 11,8 C 90 % 1012,3 hPa 0,0 l/m 0,1 km/h O-SO 121 0 min 0,000 mm 0,0 UV-I 0 W/m 10,2 C 11,8 C 1,9 km/h 100,00 %
29.09.2020 02:03 11,8 C 90 % 1012,3 hPa 0,0 l/m 0,0 km/h O-SO 121 0 min 0,000 mm 0,0 UV-I 0 W/m 10,2 C 11,8 C 0,0 km/h 95,83 %
29.09.2020 02:02 11,8 C 90 % 1012,3 hPa 0,0 l/m 0,0 km/h O-SO 121 0 min 0,000 mm 0,0 UV-I 0 W/m 10,2 C 11,8 C 0,0 km/h 95,65 %
29.09.2020 02:01 11,8 C 90 % 1012,3 hPa 0,0 l/m 0,0 km/h O-SO 121 0 min 0,000 mm 0,0 UV-I 0 W/m 10,2 C 11,8 C 0,0 km/h 100,00 %
29.09.2020 02:00 11,8 C 90 % 1012,3 hPa 0,0 l/m 0,0 km/h O-SO 121 0 min 0,000 mm 0,0 UV-I 0 W/m 10,2 C 11,8 C 0,0 km/h 95,65 %
29.09.2020 01:59 11,8 C 90 % 1012,3 hPa 0,0 l/m 0,0 km/h O-SO 121 0 min 0,000 mm 0,0 UV-I 0 W/m 10,2 C 11,8 C 0,0 km/h 100,00 %
29.09.2020 01:58 11,8 C 90 % 1012,3 hPa 0,0 l/m 0,0 km/h O-SO 121 0 min 0,000 mm 0,0 UV-I 0 W/m 10,2 C 11,8 C 0,0 km/h 93,33 %
29.09.2020 01:57 11,8 C 90 % 1012,2 hPa 0,0 l/m 0,0 km/h O-SO 121 0 min 0,000 mm 0,0 UV-I 0 W/m 10,2 C 11,8 C 0,0 km/h 100,00 %
29.09.2020 01:56 11,8 C 90 % 1012,2 hPa 0,0 l/m 0,4 km/h O-SO 121 0 min 0,000 mm 0,0 UV-I 0 W/m 10,2 C 11,8 C 1,9 km/h 95,83 %
29.09.2020 01:55 11,8 C 90 % 1012,2 hPa 0,0 l/m 0,0 km/h O-SO 121 0 min 0,000 mm 0,0 UV-I 0 W/m 10,2 C 11,8 C 0,0 km/h 100,00 %
29.09.2020 01:54 11,8 C 90 % 1012,2 hPa 0,0 l/m 0,0 km/h O-SO 121 0 min 0,000 mm 0,0 UV-I 0 W/m 10,2 C 11,8 C 0,0 km/h 95,83 %
29.09.2020 01:53 11,8 C 90 % 1012,2 hPa 0,0 l/m 0,0 km/h O-SO 121 0 min 0,000 mm 0,0 UV-I 0 W/m 10,2 C 11,8 C 0,0 km/h 95,65 %
29.09.2020 01:52 11,8 C 90 % 1012,2 hPa 0,0 l/m 0,0 km/h O-SO 121 0 min 0,000 mm 0,0 UV-I 0 W/m 10,2 C 11,8 C 0,0 km/h 100,00 %
29.09.2020 01:51 11,8 C 90 % 1012,2 hPa 0,0 l/m 0,0 km/h O-SO 121 0 min 0,000 mm 0,0 UV-I 0 W/m 10,2 C 11,8 C 0,0 km/h 95,65 %
29.09.2020 01:50 11,8 C 90 % 1012,2 hPa 0,0 l/m 0,0 km/h O-SO 121 0 min 0,000 mm 0,0 UV-I 0 W/m 10,2 C 11,8 C 0,0 km/h 100,00 %
29.09.2020 01:49 11,8 C 90 % 1012,2 hPa 0,0 l/m 0,0 km/h O-SO 121 0 min 0,000 mm 0,0 UV-I 0 W/m 10,2 C 11,8 C 0,0 km/h 96,15 %
29.09.2020 01:48 11,8 C 90 % 1012,2 hPa 0,0 l/m 0,0 km/h O-SO 121 0 min 0,000 mm 0,0 UV-I 0 W/m 10,2 C 11,8 C 0,0 km/h 95,83 %
29.09.2020 01:47 11,8 C 90 % 1012,2 hPa 0,0 l/m 0,0 km/h O-SO 121 0 min 0,000 mm 0,0 UV-I 0 W/m 10,2 C 11,8 C 0,0 km/h 100,00 %
29.09.2020 01:46 11,8 C 90 % 1012,2 hPa 0,0 l/m 0,2 km/h O-SO 121 0 min 0,000 mm 0,0 UV-I 0 W/m 10,2 C 11,8 C 1,9 km/h 95,83 %
29.09.2020 01:45 11,8 C 90 % 1012,2 hPa 0,0 l/m 0,0 km/h O-SO 121 0 min 0,000 mm 0,0 UV-I 0 W/m 10,2 C 11,8 C 0,0 km/h 100,00 %
29.09.2020 01:44 11,8 C 89 % 1012,2 hPa 0,0 l/m 0,0 km/h O-SO 121 0 min 0,000 mm 0,0 UV-I 0 W/m 10,0 C 11,8 C 0,0 km/h 95,83 %
29.09.2020 01:43 11,8 C 89 % 1012,2 hPa 0,0 l/m 0,0 km/h O-SO 121 0 min 0,000 mm 0,0 UV-I 0 W/m 10,0 C 11,8 C 0,0 km/h 100,00 %
29.09.2020 01:42 11,8 C 89 % 1012,2 hPa 0,0 l/m 0,0 km/h O-SO 121 0 min 0,000 mm 0,0 UV-I 0 W/m 10,0 C 11,8 C 0,0 km/h 100,00 %
29.09.2020 01:41 11,8 C 89 % 1012,2 hPa 0,0 l/m 0,0 km/h O-SO 121 0 min 0,000 mm 0,0 UV-I 0 W/m 10,0 C 11,8 C 0,0 km/h 100,00 %
29.09.2020 01:40 11,8 C 89 % 1012,1 hPa 0,0 l/m 0,4 km/h O-SO 121 0 min 0,000 mm 0,0 UV-I 0 W/m 10,0 C 11,8 C 1,9 km/h 95,65 %
29.09.2020 01:39 11,8 C 89 % 1012,2 hPa 0,0 l/m 1,0 km/h O-SO 121 0 min 0,000 mm 0,0 UV-I 0 W/m 10,0 C 11,8 C 3,8 km/h 100,00 %
29.09.2020 01:38 11,7 C 89 % 1012,1 hPa 0,0 l/m 0,2 km/h O-SO 121 0 min 0,000 mm 0,0 UV-I 0 W/m 9,9 C 11,7 C 1,9 km/h 95,65 %
29.09.2020 01:37 11,7 C 89 % 1012,1 hPa 0,0 l/m 0,0 km/h O-SO 121 0 min 0,000 mm 0,0 UV-I 0 W/m 9,9 C 11,7 C 0,0 km/h 100,00 %
29.09.2020 01:36 11,7 C 89 % 1012,1 hPa 0,0 l/m 0,4 km/h O-SO 121 0 min 0,000 mm 0,0 UV-I 0 W/m 9,9 C 11,7 C 1,9 km/h 100,00 %
29.09.2020 01:35 11,7 C 89 % 1012,0 hPa 0,0 l/m 1,1 km/h O-SO 121 0 min 0,000 mm 0,0 UV-I 0 W/m 9,9 C 11,7 C 3,8 km/h 100,00 %
29.09.2020 01:34 11,7 C 89 % 1012,0 hPa 0,0 l/m 2,6 km/h O-SO 121 0 min 0,000 mm 0,0 UV-I 0 W/m 9,9 C 11,7 C 3,8 km/h 92,59 %
29.09.2020 01:33 11,7 C 89 % 1012,1 hPa 0,0 l/m 2,3 km/h O-SO 121 0 min 0,000 mm 0,0 UV-I 0 W/m 9,9 C 11,7 C 3,8 km/h 100,00 %
29.09.2020 01:32 11,7 C 89 % 1012,1 hPa 0,0 l/m 2,2 km/h O-SO 121 0 min 0,000 mm 0,0 UV-I 0 W/m 9,9 C 11,7 C 3,8 km/h 100,00 %
29.09.2020 01:31 11,7 C 89 % 1012,1 hPa 0,0 l/m 3,2 km/h O-SO 121 0 min 0,000 mm 0,0 UV-I 0 W/m 9,9 C 11,7 C 5,7 km/h 100,00 %
29.09.2020 01:30 11,7 C 89 % 1012,1 hPa 0,0 l/m 4,7 km/h O-SO 121 0 min 0,000 mm 0,0 UV-I 0 W/m 9,9 C 11,7 C 7,7 km/h 100,00 %
29.09.2020 01:29 11,7 C 89 % 1012,1 hPa 0,0 l/m 3,6 km/h O-SO 121 0 min 0,000 mm 0,0 UV-I 0 W/m 9,9 C 11,7 C 5,7 km/h 100,00 %
29.09.2020 01:28 11,7 C 89 % 1012,2 hPa 0,0 l/m 3,0 km/h O-SO 121 0 min 0,000 mm 0,0 UV-I 0 W/m 9,9 C 11,7 C 3,8 km/h 100,00 %
29.09.2020 01:27 11,7 C 89 % 1012,2 hPa 0,0 l/m 2,3 km/h O-SO 121 0 min 0,000 mm 0,0 UV-I 0 W/m 9,9 C 11,7 C 3,8 km/h 100,00 %
29.09.2020 01:26 11,7 C 89 % 1012,2 hPa 0,0 l/m 1,5 km/h O-SO 121 0 min 0,000 mm 0,0 UV-I 0 W/m 9,9 C 11,7 C 3,8 km/h 100,00 %
29.09.2020 01:25 11,7 C 89 % 1012,2 hPa 0,0 l/m 0,2 km/h O-SO 121 0 min 0,000 mm 0,0 UV-I 0 W/m 9,9 C 11,7 C 1,9 km/h 100,00 %
29.09.2020 01:24 11,7 C 89 % 1012,3 hPa 0,0 l/m 0,2 km/h O-SO 121 0 min 0,000 mm 0,0 UV-I 0 W/m 9,9 C 11,7 C 1,9 km/h 100,00 %
29.09.2020 01:23 11,8 C 89 % 1012,3 hPa 0,0 l/m 0,2 km/h O-SO 121 0 min 0,000 mm 0,0 UV-I 0 W/m 10,0 C 11,8 C 1,9 km/h 100,00 %
29.09.2020 01:22 11,8 C 89 % 1012,3 hPa 0,0 l/m 0,0 km/h O-SO 121 0 min 0,000 mm 0,0 UV-I 0 W/m 10,0 C 11,8 C 0,0 km/h 100,00 %
29.09.2020 01:21 11,8 C 89 % 1012,3 hPa 0,0 l/m 0,0 km/h O-SO 121 0 min 0,000 mm 0,0 UV-I 0 W/m 10,0 C 11,8 C 0,0 km/h 100,00 %
29.09.2020 01:20 11,8 C 89 % 1012,3 hPa 0,0 l/m 0,0 km/h O-SO 121 0 min 0,000 mm 0,0 UV-I 0 W/m 10,0 C 11,8 C 0,0 km/h 95,83 %
29.09.2020 01:19 11,8 C 89 % 1012,3 hPa 0,0 l/m 0,0 km/h O-SO 121 0 min 0,000 mm 0,0 UV-I 0 W/m 10,0 C 11,8 C 0,0 km/h 100,00 %
29.09.2020 01:18 11,9 C 89 % 1012,3 hPa 0,0 l/m 0,0 km/h O-SO 121 0 min 0,000 mm 0,0 UV-I 0 W/m 10,1 C 11,9 C 0,0 km/h 96,30 %
29.09.2020 01:17 11,9 C 89 % 1012,3 hPa 0,0 l/m 0,9 km/h O-SO 121 0 min 0,000 mm 0,0 UV-I 0 W/m 10,1 C 11,9 C 3,8 km/h 100,00 %
29.09.2020 01:16 11,9 C 89 % 1012,3 hPa 0,0 l/m 0,0 km/h O-SO 121 0 min 0,000 mm 0,0 UV-I 0 W/m 10,1 C 11,9 C 0,0 km/h 100,00 %
29.09.2020 01:15 11,9 C 89 % 1012,4 hPa 0,0 l/m 0,0 km/h O-SO 121 0 min 0,000 mm 0,0 UV-I 0 W/m 10,1 C 11,9 C 0,0 km/h 100,00 %
29.09.2020 01:14 11,9 C 89 % 1012,3 hPa 0,0 l/m 0,1 km/h O-SO 121 0 min 0,000 mm 0,0 UV-I 0 W/m 10,1 C 11,9 C 1,9 km/h 100,00 %
29.09.2020 01:13 12,0 C 89 % 1012,3 hPa 0,0 l/m 0,4 km/h O-SO 121 0 min 0,000 mm 0,0 UV-I 0 W/m 10,2 C 12,0 C 1,9 km/h 100,00 %
29.09.2020 01:12 12,0 C 89 % 1012,3 hPa 0,0 l/m 0,2 km/h O-SO 121 0 min 0,000 mm 0,0 UV-I 0 W/m 10,2 C 12,0 C 1,9 km/h 95,83 %
29.09.2020 01:11 12,0 C 89 % 1012,3 hPa 0,0 l/m 0,1 km/h O-SO 121 0 min 0,000 mm 0,0 UV-I 0 W/m 10,2 C 12,0 C 1,9 km/h 95,65 %
29.09.2020 01:10 12,1 C 89 % 1012,3 hPa 0,0 l/m 0,3 km/h O-SO 121 0 min 0,000 mm 0,0 UV-I 0 W/m 10,3 C 12,1 C 1,9 km/h 100,00 %
29.09.2020 01:09 12,1 C 89 % 1012,3 hPa 0,0 l/m 0,3 km/h O-SO 121 0 min 0,000 mm 0,0 UV-I 0 W/m 10,3 C 12,1 C 1,9 km/h 100,00 %
29.09.2020 01:08 12,1 C 89 % 1012,3 hPa 0,0 l/m 0,8 km/h O-SO 121 0 min 0,000 mm 0,0 UV-I 0 W/m 10,3 C 12,1 C 3,8 km/h 100,00 %
29.09.2020 01:07 12,1 C 89 % 1012,3 hPa 0,0 l/m 0,1 km/h O-SO 121 0 min 0,000 mm 0,0 UV-I 0 W/m 10,3 C 12,1 C 1,9 km/h 100,00 %
29.09.2020 01:06 12,1 C 89 % 1012,3 hPa 0,0 l/m 0,0 km/h O-SO 121 0 min 0,000 mm 0,0 UV-I 0 W/m 10,3 C 12,1 C 0,0 km/h 100,00 %
29.09.2020 01:05 12,2 C 89 % 1012,3 hPa 0,0 l/m 0,2 km/h O-SO 121 0 min 0,000 mm 0,0 UV-I 0 W/m 10,4 C 12,2 C 1,9 km/h 100,00 %
29.09.2020 01:04 12,2 C 89 % 1012,3 hPa 0,0 l/m 0,0 km/h O-SO 121 0 min 0,000 mm 0,0 UV-I 0 W/m 10,4 C 12,2 C 0,0 km/h 100,00 %
29.09.2020 01:03 12,2 C 89 % 1012,3 hPa 0,0 l/m 0,9 km/h O-SO 121 0 min 0,000 mm 0,0 UV-I 0 W/m 10,4 C 12,2 C 3,8 km/h 100,00 %
29.09.2020 01:02 12,2 C 89 % 1012,3 hPa 0,0 l/m 1,3 km/h O-SO 121 0 min 0,000 mm 0,0 UV-I 0 W/m 10,4 C 12,2 C 3,8 km/h 100,00 %
29.09.2020 01:01 12,3 C 89 % 1012,3 hPa 0,0 l/m 1,0 km/h O-SO 121 0 min 0,000 mm 0,0 UV-I 0 W/m 10,5 C 12,3 C 3,8 km/h 100,00 %
29.09.2020 01:00 12,3 C 89 % 1012,3 hPa 0,0 l/m 0,5 km/h O-SO 121 0 min 0,000 mm 0,0 UV-I 0 W/m 10,5 C 12,3 C 1,9 km/h 100,00 %
29.09.2020 00:59 12,3 C 89 % 1012,3 hPa 0,0 l/m 0,2 km/h O-SO 121 0 min 0,000 mm 0,0 UV-I 0 W/m 10,5 C 12,3 C 1,9 km/h 100,00 %
29.09.2020 00:58 12,3 C 89 % 1012,4 hPa 0,0 l/m 0,2 km/h O-SO 121 0 min 0,000 mm 0,0 UV-I 0 W/m 10,5 C 12,3 C 1,9 km/h 100,00 %
29.09.2020 00:57 12,3 C 89 % 1012,4 hPa 0,0 l/m 0,0 km/h O-SO 121 0 min 0,000 mm 0,0 UV-I 0 W/m 10,5 C 12,3 C 0,0 km/h 100,00 %
29.09.2020 00:56 12,3 C 89 % 1012,4 hPa 0,0 l/m 1,0 km/h O-SO 121 0 min 0,000 mm 0,0 UV-I 0 W/m 10,5 C 12,3 C 3,8 km/h 100,00 %
29.09.2020 00:55 12,3 C 89 % 1012,5 hPa 0,0 l/m 0,5 km/h O-SO 121 0 min 0,000 mm 0,0 UV-I 0 W/m 10,5 C 12,3 C 3,8 km/h 100,00 %
29.09.2020 00:54 12,3 C 89 % 1012,4 hPa 0,0 l/m 0,6 km/h O-SO 118 0 min 0,000 mm 0,0 UV-I 0 W/m 10,5 C 12,3 C 1,9 km/h 95,65 %
29.09.2020 00:53 12,3 C 89 % 1012,4 hPa 0,0 l/m 0,1 km/h O-SO 118 0 min 0,000 mm 0,0 UV-I 0 W/m 10,5 C 12,3 C 1,9 km/h 100,00 %
29.09.2020 00:52 12,4 C 89 % 1012,4 hPa 0,0 l/m 0,0 km/h O-SO 118 0 min 0,000 mm 0,0 UV-I 0 W/m 10,6 C 12,4 C 0,0 km/h 100,00 %
29.09.2020 00:51 12,4 C 89 % 1012,4 hPa 0,0 l/m 0,0 km/h O-SO 118 0 min 0,000 mm 0,0 UV-I 0 W/m 10,6 C 12,4 C 0,0 km/h 100,00 %
29.09.2020 00:50 12,4 C 89 % 1012,4 hPa 0,0 l/m 0,6 km/h O-SO 118 0 min 0,000 mm 0,0 UV-I 0 W/m 10,6 C 12,4 C 1,9 km/h 100,00 %
29.09.2020 00:49 12,4 C 89 % 1012,4 hPa 0,0 l/m 0,8 km/h O-SO 118 0 min 0,000 mm 0,0 UV-I 0 W/m 10,6 C 12,4 C 1,9 km/h 100,00 %
29.09.2020 00:48 12,4 C 89 % 1012,4 hPa 0,0 l/m 0,0 km/h O-SO 118 0 min 0,000 mm 0,0 UV-I 0 W/m 10,6 C 12,4 C 0,0 km/h 100,00 %
29.09.2020 00:47 12,4 C 89 % 1012,4 hPa 0,0 l/m 0,3 km/h O-SO 118 0 min 0,000 mm 0,0 UV-I 0 W/m 10,6 C 12,4 C 1,9 km/h 92,59 %
29.09.2020 00:46 12,4 C 89 % 1012,4 hPa 0,0 l/m 0,0 km/h O-SO 118 0 min 0,000 mm 0,0 UV-I 0 W/m 10,6 C 12,4 C 0,0 km/h 100,00 %
29.09.2020 00:45 12,4 C 89 % 1012,4 hPa 0,0 l/m 0,0 km/h O-SO 118 0 min 0,000 mm 0,0 UV-I 0 W/m 10,6 C 12,4 C 0,0 km/h 100,00 %
29.09.2020 00:44 12,4 C 89 % 1012,4 hPa 0,0 l/m 0,1 km/h O-SO 118 0 min 0,000 mm 0,0 UV-I 0 W/m 10,6 C 12,4 C 1,9 km/h 100,00 %
29.09.2020 00:43 12,4 C 89 % 1012,4 hPa 0,0 l/m 1,0 km/h O-SO 118 0 min 0,000 mm 0,0 UV-I 0 W/m 10,6 C 12,4 C 1,9 km/h 100,00 %
29.09.2020 00:42 12,4 C 89 % 1012,4 hPa 0,0 l/m 0,4 km/h O-SO 118 0 min 0,000 mm 0,0 UV-I 0 W/m 10,6 C 12,4 C 1,9 km/h 100,00 %
29.09.2020 00:41 12,4 C 89 % 1012,4 hPa 0,0 l/m 0,0 km/h O-SO 118 0 min 0,000 mm 0,0 UV-I 0 W/m 10,6 C 12,4 C 0,0 km/h 100,00 %
29.09.2020 00:40 12,5 C 89 % 1012,4 hPa 0,0 l/m 0,0 km/h O-SO 118 0 min 0,000 mm 0,0 UV-I 0 W/m 10,7 C 12,5 C 0,0 km/h 100,00 %
29.09.2020 00:39 12,5 C 89 % 1012,4 hPa 0,0 l/m 0,0 km/h O-SO 118 0 min 0,000 mm 0,0 UV-I 0 W/m 10,7 C 12,5 C 0,0 km/h 100,00 %
29.09.2020 00:38 12,5 C 89 % 1012,4 hPa 0,0 l/m 0,0 km/h O-SO 118 0 min 0,000 mm 0,0 UV-I 0 W/m 10,7 C 12,5 C 0,0 km/h 100,00 %
29.09.2020 00:37 12,5 C 89 % 1012,3 hPa 0,0 l/m 0,0 km/h O-SO 118 0 min 0,000 mm 0,0 UV-I 0 W/m 10,7 C 12,5 C 0,0 km/h 96,15 %
29.09.2020 00:36 12,5 C 89 % 1012,3 hPa 0,0 l/m 0,0 km/h O-SO 118 0 min 0,000 mm 0,0 UV-I 0 W/m 10,7 C 12,5 C 0,0 km/h 100,00 %
29.09.2020 00:35 12,6 C 89 % 1012,3 hPa 0,0 l/m 0,2 km/h O-SO 118 0 min 0,000 mm 0,0 UV-I 0 W/m 10,8 C 12,6 C 1,9 km/h 100,00 %
29.09.2020 00:34 12,6 C 89 % 1012,3 hPa 0,0 l/m 0,0 km/h O-SO 118 0 min 0,000 mm 0,0 UV-I 0 W/m 10,8 C 12,6 C 0,0 km/h 96,30 %
29.09.2020 00:33 12,6 C 89 % 1012,3 hPa 0,0 l/m 0,1 km/h O-SO 118 0 min 0,000 mm 0,0 UV-I 0 W/m 10,8 C 12,6 C 1,9 km/h 100,00 %
29.09.2020 00:32 12,6 C 89 % 1012,4 hPa 0,0 l/m 0,0 km/h O-SO 118 0 min 0,000 mm 0,0 UV-I 0 W/m 10,8 C 12,6 C 0,0 km/h 100,00 %
29.09.2020 00:31 12,6 C 89 % 1012,3 hPa 0,0 l/m 0,0 km/h O-SO 118 0 min 0,000 mm 0,0 UV-I 0 W/m 10,8 C 12,6 C 0,0 km/h 95,65 %
29.09.2020 00:30 12,6 C 89 % 1012,3 hPa 0,0 l/m 0,0 km/h O-SO 118 0 min 0,000 mm 0,0 UV-I 0 W/m 10,8 C 12,6 C 0,0 km/h 100,00 %
29.09.2020 00:29 12,6 C 89 % 1012,3 hPa 0,0 l/m 0,0 km/h O-SO 118 0 min 0,000 mm 0,0 UV-I 0 W/m 10,8 C 12,6 C 0,0 km/h 100,00 %
29.09.2020 00:28 12,6 C 89 % 1012,3 hPa 0,0 l/m 0,2 km/h O-SO 118 0 min 0,000 mm 0,0 UV-I 0 W/m 10,8 C 12,6 C 1,9 km/h 100,00 %
29.09.2020 00:27 12,6 C 89 % 1012,3 hPa 0,0 l/m 0,0 km/h O-SO 118 0 min 0,000 mm 0,0 UV-I 0 W/m 10,8 C 12,6 C 0,0 km/h 95,65 %
29.09.2020 00:26 12,6 C 89 % 1012,4 hPa 0,0 l/m 0,0 km/h O-SO 118 0 min 0,000 mm 0,0 UV-I 0 W/m 10,8 C 12,6 C 0,0 km/h 100,00 %
29.09.2020 00:25 12,6 C 89 % 1012,4 hPa 0,0 l/m 0,0 km/h O-SO 118 0 min 0,000 mm 0,0 UV-I 0 W/m 10,8 C 12,6 C 0,0 km/h 100,00 %
29.09.2020 00:24 12,6 C 89 % 1012,4 hPa 0,0 l/m 0,0 km/h O-SO 118 0 min 0,000 mm 0,0 UV-I 0 W/m 10,8 C 12,6 C 0,0 km/h 100,00 %
29.09.2020 00:23 12,6 C 89 % 1012,3 hPa 0,0 l/m 0,0 km/h O-SO 118 0 min 0,000 mm 0,0 UV-I 0 W/m 10,8 C 12,6 C 0,0 km/h 100,00 %
29.09.2020 00:22 12,6 C 89 % 1012,3 hPa 0,0 l/m 0,0 km/h O-SO 118 0 min 0,000 mm 0,0 UV-I 0 W/m 10,8 C 12,6 C 0,0 km/h 100,00 %
29.09.2020 00:21 12,6 C 89 % 1012,3 hPa 0,0 l/m 0,0 km/h O-SO 118 0 min 0,000 mm 0,0 UV-I 0 W/m 10,8 C 12,6 C 0,0 km/h 100,00 %
29.09.2020 00:20 12,6 C 89 % 1012,4 hPa 0,0 l/m 0,0 km/h O-SO 118 0 min 0,000 mm 0,0 UV-I 0 W/m 10,8 C 12,6 C 0,0 km/h 95,65 %
29.09.2020 00:19 12,6 C 89 % 1012,4 hPa 0,0 l/m 0,0 km/h O-SO 118 0 min 0,000 mm 0,0 UV-I 0 W/m 10,8 C 12,6 C 0,0 km/h 100,00 %
29.09.2020 00:18 12,6 C 89 % 1012,3 hPa 0,0 l/m 0,4 km/h O-SO 118 0 min 0,000 mm 0,0 UV-I 0 W/m 10,8 C 12,6 C 1,9 km/h 100,00 %
29.09.2020 00:17 12,6 C 89 % 1012,3 hPa 0,0 l/m 0,4 km/h O-SO 118 0 min 0,000 mm 0,0 UV-I 0 W/m 10,8 C 12,6 C 1,9 km/h 100,00 %
29.09.2020 00:16 12,6 C 89 % 1012,3 hPa 0,0 l/m 0,0 km/h O-SO 118 0 min 0,000 mm 0,0 UV-I 0 W/m 10,8 C 12,6 C 0,0 km/h 100,00 %
29.09.2020 00:15 12,6 C 89 % 1012,3 hPa 0,0 l/m 0,0 km/h O-SO 118 0 min 0,000 mm 0,0 UV-I 0 W/m 10,8 C 12,6 C 0,0 km/h 100,00 %
29.09.2020 00:14 12,6 C 89 % 1012,4 hPa 0,0 l/m 0,0 km/h O-SO 118 0 min 0,000 mm 0,0 UV-I 0 W/m 10,8 C 12,6 C 0,0 km/h 100,00 %
29.09.2020 00:13 12,6 C 89 % 1012,3 hPa 0,0 l/m 0,0 km/h O-SO 118 0 min 0,000 mm 0,0 UV-I 0 W/m 10,8 C 12,6 C 0,0 km/h 100,00 %
29.09.2020 00:12 12,6 C 89 % 1012,4 hPa 0,0 l/m 0,0 km/h O-SO 118 0 min 0,000 mm 0,0 UV-I 0 W/m 10,8 C 12,6 C 0,0 km/h 100,00 %
29.09.2020 00:11 12,6 C 89 % 1012,4 hPa 0,0 l/m 0,6 km/h O-SO 118 0 min 0,000 mm 0,0 UV-I 0 W/m 10,8 C 12,6 C 1,9 km/h 100,00 %
29.09.2020 00:10 12,6 C 89 % 1012,4 hPa 0,0 l/m 0,3 km/h O-SO 118 0 min 0,000 mm 0,0 UV-I 0 W/m 10,8 C 12,6 C 1,9 km/h 95,83 %
29.09.2020 00:09 12,6 C 89 % 1012,4 hPa 0,0 l/m 0,1 km/h O-SO 118 0 min 0,000 mm 0,0 UV-I 0 W/m 10,8 C 12,6 C 1,9 km/h 100,00 %
29.09.2020 00:08 12,6 C 89 % 1012,4 hPa 0,0 l/m 0,1 km/h O-SO 118 0 min 0,000 mm 0,0 UV-I 0 W/m 10,8 C 12,6 C 1,9 km/h 100,00 %
29.09.2020 00:07 12,6 C 89 % 1012,4 hPa 0,0 l/m 0,0 km/h O-SO 118 0 min 0,000 mm 0,0 UV-I 0 W/m 10,8 C 12,6 C 0,0 km/h 100,00 %
29.09.2020 00:06 12,6 C 89 % 1012,4 hPa 0,0 l/m 0,0 km/h O-SO 118 0 min 0,000 mm 0,0 UV-I 0 W/m 10,8 C 12,6 C 0,0 km/h 100,00 %
29.09.2020 00:05 12,6 C 89 % 1012,4 hPa 0,0 l/m 0,0 km/h O-SO 118 0 min 0,000 mm 0,0 UV-I 0 W/m 10,8 C 12,6 C 0,0 km/h 100,00 %
29.09.2020 00:04 12,6 C 89 % 1012,4 hPa 0,0 l/m 0,0 km/h O-SO 118 0 min 0,000 mm 0,0 UV-I 0 W/m 10,8 C 12,6 C 0,0 km/h 100,00 %
29.09.2020 00:03 12,6 C 89 % 1012,4 hPa 0,0 l/m 0,5 km/h O-SO 118 0 min 0,000 mm 0,0 UV-I 0 W/m 10,8 C 12,6 C 1,9 km/h 92,59 %
29.09.2020 00:02 12,6 C 90 % 1012,4 hPa 0,0 l/m 1,9 km/h O-SO 118 0 min 0,000 mm 0,0 UV-I 0 W/m 11,0 C 12,6 C 1,9 km/h 100,00 %
29.09.2020 00:01 12,6 C 90 % 1012,4 hPa 0,0 l/m 2,0 km/h O-SO 118 0 min 0,000 mm 0,0 UV-I 0 W/m 11,0 C 12,6 C 3,8 km/h 100,00 %
29.09.2020 00:00 12,6 C 90 % 1012,3 hPa 0,0 l/m 1,8 km/h O-SO 118 0 min 0,000 mm 0,0 UV-I 0 W/m 11,0 C 12,6 C 3,8 km/h 100,00 %
28.09.2020 23:59 12,6 C 90 % 1012,3 hPa 0,0 l/m 2,0 km/h O-SO 117 0 min 0,000 mm 0,0 UV-I 0 W/m 11,0 C 12,6 C 3,8 km/h 100,00 %
28.09.2020 23:58 12,6 C 90 % 1012,3 hPa 0,0 l/m 2,2 km/h O-SO 118 0 min 0,000 mm 0,0 UV-I 0 W/m 11,0 C 12,6 C 3,8 km/h 100,00 %
28.09.2020 23:57 12,6 C 90 % 1012,3 hPa 0,0 l/m 3,9 km/h O-SO 118 0 min 0,000 mm 0,0 UV-I 0 W/m 11,0 C 12,6 C 5,7 km/h 100,00 %
28.09.2020 23:56 12,6 C 90 % 1012,3 hPa 0,0 l/m 3,3 km/h O-SO 118 0 min 0,000 mm 0,0 UV-I 0 W/m 11,0 C 12,6 C 3,8 km/h 100,00 %
28.09.2020 23:55 12,5 C 90 % 1012,3 hPa 0,0 l/m 1,6 km/h O-SO 117 0 min 0,000 mm 0,0 UV-I 0 W/m 10,9 C 12,5 C 3,8 km/h 100,00 %
28.09.2020 23:54 12,5 C 90 % 1012,3 hPa 0,0 l/m 3,2 km/h O-SO 118 0 min 0,000 mm 0,0 UV-I 0 W/m 10,9 C 12,5 C 5,7 km/h 100,00 %
28.09.2020 23:53 12,6 C 90 % 1012,3 hPa 0,0 l/m 2,2 km/h O-SO 118 0 min 0,000 mm 0,0 UV-I 0 W/m 11,0 C 12,6 C 3,8 km/h 96,15 %
28.09.2020 23:52 12,5 C 90 % 1012,3 hPa 0,0 l/m 2,0 km/h O-SO 118 0 min 0,000 mm 0,0 UV-I 0 W/m 10,9 C 12,5 C 3,8 km/h 95,83 %
28.09.2020 23:51 12,5 C 90 % 1012,3 hPa 0,0 l/m 0,4 km/h O-SO 117 0 min 0,000 mm 0,0 UV-I 0 W/m 10,9 C 12,5 C 1,9 km/h 100,00 %
28.09.2020 23:50 12,5 C 90 % 1012,3 hPa 0,0 l/m 1,3 km/h O-SO 117 0 min 0,000 mm 0,0 UV-I 0 W/m 10,9 C 12,5 C 3,8 km/h 100,00 %
28.09.2020 23:49 12,5 C 90 % 1012,2 hPa 0,0 l/m 2,8 km/h O-SO 117 0 min 0,000 mm 0,0 UV-I 0 W/m 10,9 C 12,5 C 5,7 km/h 100,00 %
28.09.2020 23:48 12,5 C 90 % 1012,3 hPa 0,0 l/m 0,6 km/h O-SO 118 0 min 0,000 mm 0,0 UV-I 0 W/m 10,9 C 12,5 C 1,9 km/h 100,00 %
28.09.2020 23:47 12,5 C 90 % 1012,3 hPa 0,0 l/m 0,0 km/h O-SO 118 0 min 0,000 mm 0,0 UV-I 0 W/m 10,9 C 12,5 C 0,0 km/h 95,65 %
28.09.2020 23:46 12,5 C 90 % 1012,3 hPa 0,0 l/m 0,0 km/h O-SO 117 0 min 0,000 mm 0,0 UV-I 0 W/m 10,9 C 12,5 C 0,0 km/h 100,00 %
28.09.2020 23:45 12,5 C 90 % 1012,3 hPa 0,0 l/m 0,2 km/h O-SO 118 0 min 0,000 mm 0,0 UV-I 0 W/m 10,9 C 12,5 C 1,9 km/h 100,00 %
28.09.2020 23:44 12,5 C 90 % 1012,3 hPa 0,0 l/m 0,0 km/h O-SO 118 0 min 0,000 mm 0,0 UV-I 0 W/m 10,9 C 12,5 C 0,0 km/h 100,00 %
28.09.2020 23:43 12,5 C 90 % 1012,3 hPa 0,0 l/m 0,0 km/h O-SO 118 0 min 0,000 mm 0,0 UV-I 0 W/m 10,9 C 12,5 C 0,0 km/h 100,00 %
28.09.2020 23:42 12,5 C 90 % 1012,3 hPa 0,0 l/m 0,0 km/h O-SO 118 0 min 0,000 mm 0,0 UV-I 0 W/m 10,9 C 12,5 C 0,0 km/h 100,00 %
28.09.2020 23:41 12,4 C 90 % 1012,2 hPa 0,0 l/m 0,2 km/h O-SO 118 0 min 0,000 mm 0,0 UV-I 0 W/m 10,8 C 12,4 C 1,9 km/h 100,00 %
28.09.2020 23:40 12,5 C 90 % 1012,2 hPa 0,0 l/m 0,0 km/h O-SO 117 0 min 0,000 mm 0,0 UV-I 0 W/m 10,9 C 12,5 C 0,0 km/h 100,00 %
28.09.2020 23:39 12,4 C 90 % 1012,3 hPa 0,0 l/m 0,0 km/h O-SO 117 0 min 0,000 mm 0,0 UV-I 0 W/m 10,8 C 12,4 C 0,0 km/h 100,00 %
28.09.2020 23:38 12,4 C 90 % 1012,2 hPa 0,0 l/m 0,0 km/h O-SO 118 0 min 0,000 mm 0,0 UV-I 0 W/m 10,8 C 12,4 C 0,0 km/h 100,00 %
28.09.2020 23:37 12,4 C 90 % 1012,2 hPa 0,0 l/m 0,0 km/h O-SO 118 0 min 0,000 mm 0,0 UV-I 0 W/m 10,8 C 12,4 C 0,0 km/h 96,30 %
28.09.2020 23:36 12,4 C 90 % 1012,2 hPa 0,0 l/m 0,0 km/h O-SO 118 0 min 0,000 mm 0,0 UV-I 0 W/m 10,8 C 12,4 C 0,0 km/h 100,00 %
28.09.2020 23:35 12,4 C 90 % 1012,3 hPa 0,0 l/m 0,2 km/h O-SO 118 0 min 0,000 mm 0,0 UV-I 0 W/m 10,8 C 12,4 C 1,9 km/h 100,00 %
28.09.2020 23:34 12,4 C 90 % 1012,2 hPa 0,0 l/m 0,0 km/h O-SO 118 0 min 0,000 mm 0,0 UV-I 0 W/m 10,8 C 12,4 C 0,0 km/h 100,00 %
28.09.2020 23:33 12,4 C 90 % 1012,3 hPa 0,0 l/m 0,4 km/h O-SO 118 0 min 0,000 mm 0,0 UV-I 0 W/m 10,8 C 12,4 C 1,9 km/h 100,00 %
28.09.2020 23:32 12,4 C 90 % 1012,2 hPa 0,0 l/m 0,0 km/h O-SO 118 0 min 0,000 mm 0,0 UV-I 0 W/m 10,8 C 12,4 C 0,0 km/h 100,00 %
28.09.2020 23:31 12,4 C 90 % 1012,3 hPa 0,0 l/m 0,0 km/h O-SO 118 0 min 0,000 mm 0,0 UV-I 0 W/m 10,8 C 12,4 C 0,0 km/h 100,00 %
28.09.2020 23:30 12,4 C 90 % 1012,2 hPa 0,0 l/m 0,0 km/h O-SO 118 0 min 0,000 mm 0,0 UV-I 0 W/m 10,8 C 12,4 C 0,0 km/h 100,00 %
28.09.2020 23:29 12,4 C 90 % 1012,2 hPa 0,0 l/m 0,5 km/h O-SO 118 0 min 0,000 mm 0,0 UV-I 0 W/m 10,8 C 12,4 C 1,9 km/h 100,00 %
28.09.2020 23:28 12,4 C 90 % 1012,2 hPa 0,0 l/m 0,9 km/h O-SO 117 0 min 0,000 mm 0,0 UV-I 0 W/m 10,8 C 12,4 C 3,8 km/h 100,00 %
28.09.2020 23:27 12,4 C 90 % 1012,3 hPa 0,0 l/m 0,6 km/h O-SO 118 0 min 0,000 mm 0,0 UV-I 0 W/m 10,8 C 12,4 C 1,9 km/h 100,00 %
28.09.2020 23:26 12,4 C 90 % 1012,2 hPa 0,0 l/m 0,0 km/h O-SO 118 0 min 0,000 mm 0,0 UV-I 0 W/m 10,8 C 12,4 C 0,0 km/h 100,00 %
28.09.2020 23:25 12,4 C 90 % 1012,2 hPa 0,0 l/m 1,0 km/h O-SO 117 0 min 0,000 mm 0,0 UV-I 0 W/m 10,8 C 12,4 C 3,8 km/h 100,00 %
28.09.2020 23:24 12,4 C 90 % 1012,2 hPa 0,0 l/m 3,2 km/h O-SO 118 0 min 0,000 mm 0,0 UV-I 0 W/m 10,8 C 12,4 C 3,8 km/h 96,30 %
28.09.2020 23:23 12,4 C 90 % 1012,2 hPa 0,0 l/m 1,5 km/h O-SO 117 0 min 0,000 mm 0,0 UV-I 0 W/m 10,8 C 12,4 C 3,8 km/h 96,15 %
28.09.2020 23:22 12,4 C 90 % 1012,2 hPa 0,0 l/m 1,0 km/h O-SO 118 0 min 0,000 mm 0,0 UV-I 0 W/m 10,8 C 12,4 C 3,8 km/h 100,00 %
28.09.2020 23:21 12,4 C 90 % 1012,2 hPa 0,0 l/m 0,0 km/h O-SO 118 0 min 0,000 mm 0,0 UV-I 0 W/m 10,8 C 12,4 C 0,0 km/h 100,00 %
28.09.2020 23:20 12,4 C 90 % 1012,2 hPa 0,0 l/m 0,0 km/h O-SO 118 0 min 0,000 mm 0,0 UV-I 0 W/m 10,8 C 12,4 C 0,0 km/h 100,00 %
28.09.2020 23:19 12,4 C 89 % 1012,2 hPa 0,0 l/m 0,0 km/h O-SO 118 0 min 0,000 mm 0,0 UV-I 0 W/m 10,6 C 12,4 C 0,0 km/h 100,00 %
28.09.2020 23:18 12,4 C 89 % 1012,2 hPa 0,0 l/m 0,0 km/h O-SO 118 0 min 0,000 mm 0,0 UV-I 0 W/m 10,6 C 12,4 C 0,0 km/h 100,00 %
28.09.2020 23:17 12,4 C 89 % 1012,2 hPa 0,0 l/m 0,0 km/h O-SO 118 0 min 0,000 mm 0,0 UV-I 0 W/m 10,6 C 12,4 C 0,0 km/h 100,00 %
28.09.2020 23:16 12,4 C 89 % 1012,2 hPa 0,0 l/m 0,0 km/h O-SO 118 0 min 0,000 mm 0,0 UV-I 0 W/m 10,6 C 12,4 C 0,0 km/h 100,00 %
28.09.2020 23:15 12,4 C 89 % 1012,2 hPa 0,0 l/m 0,0 km/h O-SO 118 0 min 0,000 mm 0,0 UV-I 0 W/m 10,6 C 12,4 C 0,0 km/h 100,00 %
28.09.2020 23:14 12,5 C 89 % 1012,2 hPa 0,0 l/m 0,0 km/h O-SO 117 0 min 0,000 mm 0,0 UV-I 0 W/m 10,7 C 12,5 C 0,0 km/h 100,00 %
28.09.2020 23:13 12,5 C 89 % 1012,2 hPa 0,0 l/m 0,0 km/h O-SO 117 0 min 0,000 mm 0,0 UV-I 0 W/m 10,7 C 12,5 C 0,0 km/h 91,30 %
28.09.2020 23:12 12,5 C 89 % 1012,2 hPa 0,0 l/m 0,0 km/h O-SO 118 0 min 0,000 mm 0,0 UV-I 0 W/m 10,7 C 12,5 C 0,0 km/h 100,00 %
28.09.2020 23:11 12,5 C 89 % 1012,2 hPa 0,0 l/m 0,0 km/h O-SO 118 0 min 0,000 mm 0,0 UV-I 0 W/m 10,7 C 12,5 C 0,0 km/h 100,00 %
28.09.2020 23:10 12,5 C 89 % 1012,2 hPa 0,0 l/m 0,0 km/h O-SO 117 0 min 0,000 mm 0,0 UV-I 0 W/m 10,7 C 12,5 C 0,0 km/h 100,00 %
28.09.2020 23:09 12,5 C 89 % 1012,2 hPa 0,0 l/m 0,0 km/h O-SO 117 0 min 0,000 mm 0,0 UV-I 0 W/m 10,7 C 12,5 C 0,0 km/h 100,00 %
28.09.2020 23:08 12,5 C 89 % 1012,1 hPa 0,0 l/m 0,3 km/h O-SO 118 0 min 0,000 mm 0,0 UV-I 0 W/m 10,7 C 12,5 C 1,9 km/h 100,00 %
28.09.2020 23:07 12,5 C 89 % 1012,2 hPa 0,0 l/m 0,0 km/h O-SO 118 0 min 0,000 mm 0,0 UV-I 0 W/m 10,7 C 12,5 C 0,0 km/h 100,00 %
28.09.2020 23:06 12,5 C 89 % 1012,2 hPa 0,0 l/m 0,7 km/h O-SO 118 0 min 0,000 mm 0,0 UV-I 0 W/m 10,7 C 12,5 C 1,9 km/h 100,00 %
28.09.2020 23:05 12,5 C 89 % 1012,2 hPa 0,0 l/m 0,0 km/h O-SO 117 0 min 0,000 mm 0,0 UV-I 0 W/m 10,7 C 12,5 C 0,0 km/h 100,00 %
28.09.2020 23:04 12,5 C 89 % 1012,1 hPa 0,0 l/m 0,5 km/h O-SO 118 0 min 0,000 mm 0,0 UV-I 0 W/m 10,7 C 12,5 C 1,9 km/h 100,00 %
28.09.2020 23:03 12,5 C 89 % 1012,1 hPa 0,0 l/m 1,3 km/h O-SO 118 0 min 0,000 mm 0,0 UV-I 0 W/m 10,7 C 12,5 C 1,9 km/h 100,00 %
28.09.2020 23:02 12,4 C 89 % 1012,2 hPa 0,0 l/m 2,3 km/h O-SO 117 0 min 0,000 mm 0,0 UV-I 0 W/m 10,6 C 12,4 C 3,8 km/h 100,00 %
28.09.2020 23:01 12,5 C 89 % 1012,2 hPa 0,0 l/m 0,3 km/h O-SO 118 0 min 0,000 mm 0,0 UV-I 0 W/m 10,7 C 12,5 C 1,9 km/h 100,00 %
28.09.2020 23:00 12,4 C 89 % 1012,1 hPa 0,0 l/m 0,0 km/h O-SO 117 0 min 0,000 mm 0,0 UV-I 0 W/m 10,6 C 12,4 C 0,0 km/h 97,37 %
28.09.2020 22:59 12,4 C 89 % 1012,1 hPa 0,0 l/m 0,0 km/h O-SO 117 0 min 0,000 mm 0,0 UV-I 0 W/m 10,6 C 12,4 C 0,0 km/h 100,00 %
28.09.2020 22:58 12,5 C 89 % 1012,1 hPa 0,0 l/m 0,0 km/h O-SO 118 0 min 0,000 mm 0,0 UV-I 0 W/m 10,7 C 12,5 C 0,0 km/h 100,00 %
28.09.2020 22:57 12,5 C 89 % 1012,1 hPa 0,0 l/m 1,0 km/h O-SO 118 0 min 0,000 mm 0,0 UV-I 0 W/m 10,7 C 12,5 C 3,8 km/h 100,00 %
28.09.2020 22:56 12,4 C 89 % 1012,1 hPa 0,0 l/m 0,2 km/h O-SO 118 0 min 0,000 mm 0,0 UV-I 0 W/m 10,6 C 12,4 C 1,9 km/h 100,00 %
28.09.2020 22:55 12,5 C 89 % 1012,0 hPa 0,0 l/m 0,0 km/h O-SO 118 0 min 0,000 mm 0,0 UV-I 0 W/m 10,7 C 12,5 C 0,0 km/h 100,00 %
28.09.2020 22:54 12,5 C 89 % 1012,0 hPa 0,0 l/m 0,0 km/h O-SO 118 0 min 0,000 mm 0,0 UV-I 0 W/m 10,7 C 12,5 C 0,0 km/h 100,00 %
28.09.2020 22:53 12,5 C 89 % 1012,0 hPa 0,0 l/m 0,0 km/h O-SO 117 0 min 0,000 mm 0,0 UV-I 0 W/m 10,7 C 12,5 C 0,0 km/h 96,67 %
28.09.2020 22:52 12,5 C 89 % 1011,9 hPa 0,0 l/m 0,0 km/h O-SO 117 0 min 0,000 mm 0,0 UV-I 0 W/m 10,7 C 12,5 C 0,0 km/h 100,00 %
28.09.2020 22:51 12,5 C 89 % 1012,0 hPa 0,0 l/m 0,0 km/h O-SO 118 0 min 0,000 mm 0,0 UV-I 0 W/m 10,7 C 12,5 C 0,0 km/h 95,83 %
28.09.2020 22:50 12,5 C 89 % 1011,9 hPa 0,0 l/m 0,0 km/h O-SO 117 0 min 0,000 mm 0,0 UV-I 0 W/m 10,7 C 12,5 C 0,0 km/h 96,15 %
28.09.2020 22:49 12,5 C 89 % 1011,9 hPa 0,0 l/m 0,0 km/h O-SO 118 0 min 0,000 mm 0,0 UV-I 0 W/m 10,7 C 12,5 C 0,0 km/h 100,00 %
28.09.2020 22:48 12,5 C 89 % 1011,9 hPa 0,0 l/m 0,0 km/h O-SO 118 0 min 0,000 mm 0,0 UV-I 0 W/m 10,7 C 12,5 C 0,0 km/h 100,00 %
28.09.2020 22:47 12,5 C 89 % 1011,9 hPa 0,0 l/m 0,0 km/h O-SO 118 0 min 0,000 mm 0,0 UV-I 0 W/m 10,7 C 12,5 C 0,0 km/h 100,00 %
28.09.2020 22:46 12,5 C 89 % 1011,9 hPa 0,0 l/m 0,0 km/h O-SO 117 0 min 0,000 mm 0,0 UV-I 0 W/m 10,7 C 12,5 C 0,0 km/h 100,00 %
28.09.2020 22:45 12,5 C 89 % 1011,9 hPa 0,0 l/m 0,0 km/h O-SO 118 0 min 0,000 mm 0,0 UV-I 0 W/m 10,7 C 12,5 C 0,0 km/h 96,00 %
28.09.2020 22:44 12,5 C 89 % 1011,9 hPa 0,0 l/m 0,0 km/h O-SO 118 0 min 0,000 mm 0,0 UV-I 0 W/m 10,7 C 12,5 C 0,0 km/h 100,00 %
28.09.2020 22:43 12,5 C 89 % 1011,9 hPa 0,0 l/m 0,0 km/h O-SO 118 0 min 0,000 mm 0,0 UV-I 0 W/m 10,7 C 12,5 C 0,0 km/h 100,00 %
28.09.2020 22:42 12,5 C 89 % 1011,9 hPa 0,0 l/m 0,0 km/h O-SO 118 0 min 0,000 mm 0,0 UV-I 0 W/m 10,7 C 12,5 C 0,0 km/h 100,00 %
28.09.2020 22:41 12,6 C 89 % 1011,9 hPa 0,0 l/m 0,0 km/h O-SO 118 0 min 0,000 mm 0,0 UV-I 0 W/m 10,8 C 12,6 C 0,0 km/h 100,00 %
28.09.2020 22:40 12,6 C 89 % 1011,9 hPa 0,0 l/m 0,0 km/h O-SO 118 0 min 0,000 mm 0,0 UV-I 0 W/m 10,8 C 12,6 C 0,0 km/h 100,00 %
28.09.2020 22:39 12,6 C 89 % 1011,9 hPa 0,0 l/m 0,0 km/h O-SO 118 0 min 0,000 mm 0,0 UV-I 0 W/m 10,8 C 12,6 C 0,0 km/h 100,00 %
28.09.2020 22:38 12,6 C 89 % 1011,8 hPa 0,0 l/m 0,0 km/h O-SO 117 0 min 0,000 mm 0,0 UV-I 0 W/m 10,8 C 12,6 C 0,0 km/h 100,00 %
28.09.2020 22:37 12,6 C 89 % 1011,9 hPa 0,0 l/m 0,0 km/h O-SO 118 0 min 0,000 mm 0,0 UV-I 0 W/m 10,8 C 12,6 C 0,0 km/h 100,00 %
28.09.2020 22:36 12,6 C 89 % 1011,8 hPa 0,0 l/m 0,0 km/h O-SO 118 0 min 0,000 mm 0,0 UV-I 0 W/m 10,8 C 12,6 C 0,0 km/h 100,00 %
28.09.2020 22:35 12,6 C 89 % 1011,9 hPa 0,0 l/m 0,0 km/h O-SO 118 0 min 0,000 mm 0,0 UV-I 0 W/m 10,8 C 12,6 C 0,0 km/h 100,00 %
28.09.2020 22:34 12,6 C 89 % 1011,8 hPa 0,0 l/m 0,0 km/h O-SO 118 0 min 0,000 mm 0,0 UV-I 0 W/m 10,8 C 12,6 C 0,0 km/h 100,00 %
28.09.2020 22:33 12,6 C 89 % 1011,9 hPa 0,0 l/m 0,0 km/h O-SO 118 0 min 0,000 mm 0,0 UV-I 0 W/m 10,8 C 12,6 C 0,0 km/h 95,83 %
28.09.2020 22:32 12,6 C 89 % 1011,9 hPa 0,0 l/m 0,0 km/h O-SO 118 0 min 0,000 mm 0,0 UV-I 0 W/m 10,8 C 12,6 C 0,0 km/h 100,00 %
28.09.2020 22:31 12,6 C 89 % 1011,9 hPa 0,0 l/m 0,0 km/h O-SO 117 0 min 0,000 mm 0,0 UV-I 0 W/m 10,8 C 12,6 C 0,0 km/h 100,00 %
28.09.2020 22:30 12,6 C 89 % 1011,9 hPa 0,0 l/m 0,1 km/h O-SO 118 0 min 0,000 mm 0,0 UV-I 0 W/m 10,8 C 12,6 C 1,9 km/h 100,00 %
28.09.2020 22:29 12,6 C 89 % 1011,9 hPa 0,0 l/m 0,0 km/h O-SO 118 0 min 0,000 mm 0,0 UV-I 0 W/m 10,8 C 12,6 C 0,0 km/h 98,62 %
28.09.2020 22:28 12,6 C 89 % 1011,9 hPa 0,0 l/m 0,1 km/h O-SO 118 0 min 0,000 mm 0,0 UV-I 0 W/m 10,8 C 12,6 C 1,9 km/h 100,00 %
28.09.2020 22:27 12,6 C 89 % 1011,9 hPa 0,0 l/m 0,2 km/h O-SO 118 0 min 0,000 mm 0,0 UV-I 0 W/m 10,8 C 12,6 C 1,9 km/h 90,91 %
28.09.2020 22:26 12,6 C 88 % 1011,9 hPa 0,0 l/m 1,4 km/h O-SO 118 0 min 0,000 mm 0,0 UV-I 0 W/m 10,7 C 12,6 C 3,8 km/h 100,00 %
28.09.2020 22:25 12,6 C 88 % 1011,9 hPa 0,0 l/m 1,1 km/h O-SO 118 0 min 0,000 mm 0,0 UV-I 0 W/m 10,7 C 12,6 C 1,9 km/h 100,00 %
28.09.2020 22:24 12,6 C 88 % 1011,9 hPa 0,0 l/m 0,0 km/h O-SO 118 0 min 0,000 mm 0,0 UV-I 0 W/m 10,7 C 12,6 C 0,0 km/h 100,00 %
28.09.2020 22:23 12,6 C 88 % 1011,9 hPa 0,0 l/m 0,0 km/h O-SO 118 0 min 0,000 mm 0,0 UV-I 0 W/m 10,7 C 12,6 C 0,0 km/h 100,00 %
28.09.2020 22:22 12,6 C 88 % 1011,8 hPa 0,0 l/m 0,0 km/h O-SO 118 0 min 0,000 mm 0,0 UV-I 0 W/m 10,7 C 12,6 C 0,0 km/h 100,00 %
28.09.2020 22:21 12,6 C 88 % 1011,9 hPa 0,0 l/m 0,0 km/h O-SO 118 0 min 0,000 mm 0,0 UV-I 0 W/m 10,7 C 12,6 C 0,0 km/h 100,00 %
28.09.2020 22:20 12,6 C 88 % 1011,8 hPa 0,0 l/m 0,0 km/h O-SO 118 0 min 0,000 mm 0,0 UV-I 0 W/m 10,7 C 12,6 C 0,0 km/h 100,00 %
28.09.2020 22:19 12,6 C 88 % 1011,9 hPa 0,0 l/m 0,0 km/h O-SO 118 0 min 0,000 mm 0,0 UV-I 0 W/m 10,7 C 12,6 C 0,0 km/h 100,00 %
28.09.2020 22:18 12,6 C 88 % 1011,8 hPa 0,0 l/m 0,0 km/h O-SO 118 0 min 0,000 mm 0,0 UV-I 0 W/m 10,7 C 12,6 C 0,0 km/h 95,83 %
28.09.2020 22:17 12,6 C 88 % 1011,8 hPa 0,0 l/m 0,0 km/h O-SO 118 0 min 0,000 mm 0,0 UV-I 0 W/m 10,7 C 12,6 C 0,0 km/h 100,00 %
28.09.2020 22:16 12,6 C 88 % 1011,8 hPa 0,0 l/m 0,0 km/h O-SO 118 0 min 0,000 mm 0,0 UV-I 0 W/m 10,7 C 12,6 C 0,0 km/h 100,00 %
28.09.2020 22:15 12,6 C 88 % 1011,8 hPa 0,0 l/m 0,0 km/h O-SO 118 0 min 0,000 mm 0,0 UV-I 0 W/m 10,7 C 12,6 C 0,0 km/h 96,30 %
28.09.2020 22:14 12,6 C 88 % 1011,8 hPa 0,0 l/m 0,0 km/h O-SO 118 0 min 0,000 mm 0,0 UV-I 0 W/m 10,7 C 12,6 C 0,0 km/h 100,00 %
28.09.2020 22:13 12,7 C 88 % 1011,8 hPa 0,0 l/m 0,0 km/h O-SO 118 0 min 0,000 mm 0,0 UV-I 0 W/m 10,8 C 12,7 C 0,0 km/h 100,00 %
28.09.2020 22:12 12,6 C 88 % 1011,8 hPa 0,0 l/m 0,0 km/h O-SO 118 0 min 0,000 mm 0,0 UV-I 0 W/m 10,7 C 12,6 C 0,0 km/h 100,00 %
28.09.2020 22:11 12,7 C 88 % 1011,8 hPa 0,0 l/m 0,0 km/h O-SO 118 0 min 0,000 mm 0,0 UV-I 0 W/m 10,8 C 12,7 C 0,0 km/h 100,00 %
28.09.2020 22:10 12,7 C 88 % 1011,8 hPa 0,0 l/m 0,0 km/h O-SO 118 0 min 0,000 mm 0,0 UV-I 0 W/m 10,8 C 12,7 C 0,0 km/h 95,65 %
28.09.2020 22:09 12,7 C 88 % 1011,8 hPa 0,0 l/m 0,0 km/h O-SO 118 0 min 0,000 mm 0,0 UV-I 0 W/m 10,8 C 12,7 C 0,0 km/h 100,00 %
28.09.2020 22:08 12,7 C 88 % 1011,7 hPa 0,0 l/m 0,0 km/h O-SO 118 0 min 0,000 mm 0,0 UV-I 0 W/m 10,8 C 12,7 C 0,0 km/h 100,00 %
28.09.2020 22:07 12,7 C 88 % 1011,7 hPa 0,0 l/m 0,0 km/h O-SO 118 0 min 0,000 mm 0,0 UV-I 0 W/m 10,8 C 12,7 C 0,0 km/h 100,00 %
28.09.2020 22:06 12,7 C 88 % 1011,7 hPa 0,0 l/m 0,0 km/h O-SO 118 0 min 0,000 mm 0,0 UV-I 0 W/m 10,8 C 12,7 C 0,0 km/h 100,00 %
28.09.2020 22:05 12,7 C 88 % 1011,6 hPa 0,0 l/m 1,4 km/h O-SO 118 0 min 0,000 mm 0,0 UV-I 0 W/m 10,8 C 12,7 C 3,8 km/h 93,33 %
28.09.2020 22:04 12,7 C 88 % 1011,6 hPa 0,0 l/m 1,2 km/h O-SO 118 0 min 0,000 mm 0,0 UV-I 0 W/m 10,8 C 12,7 C 3,8 km/h 95,83 %
28.09.2020 22:03 12,7 C 88 % 1011,6 hPa 0,0 l/m 0,9 km/h O-SO 118 0 min 0,000 mm 0,0 UV-I 0 W/m 10,8 C 12,7 C 3,8 km/h 100,00 %
28.09.2020 22:02 12,7 C 88 % 1011,6 hPa 0,0 l/m 0,2 km/h O-SO 117 0 min 0,000 mm 0,0 UV-I 0 W/m 10,8 C 12,7 C 1,9 km/h 100,00 %
28.09.2020 22:01 12,7 C 88 % 1011,6 hPa 0,0 l/m 0,0 km/h O-SO 118 0 min 0,000 mm 0,0 UV-I 0 W/m 10,8 C 12,7 C 0,0 km/h 100,00 %
28.09.2020 22:00 12,7 C 88 % 1011,6 hPa 0,0 l/m 0,0 km/h O-SO 117 0 min 0,000 mm 0,0 UV-I 0 W/m 10,8 C 12,7 C 0,0 km/h 100,00 %
28.09.2020 21:59 12,7 C 88 % 1011,6 hPa 0,0 l/m 0,2 km/h O-SO 118 0 min 0,000 mm 0,0 UV-I 0 W/m 10,8 C 12,7 C 1,9 km/h 100,00 %
28.09.2020 21:58 12,7 C 88 % 1011,6 hPa 0,0 l/m 0,6 km/h O-SO 117 0 min 0,000 mm 0,0 UV-I 0 W/m 10,8 C 12,7 C 1,9 km/h 100,00 %
28.09.2020 21:57 12,7 C 88 % 1011,6 hPa 0,0 l/m 0,5 km/h O-SO 117 0 min 0,000 mm 0,0 UV-I 0 W/m 10,8 C 12,7 C 1,9 km/h 100,00 %
28.09.2020 21:56 12,7 C 88 % 1011,6 hPa 0,0 l/m 1,1 km/h O-SO 118 0 min 0,000 mm 0,0 UV-I 0 W/m 10,8 C 12,7 C 3,8 km/h 100,00 %
28.09.2020 21:55 12,7 C 88 % 1011,5 hPa 0,0 l/m 0,4 km/h O-SO 117 0 min 0,000 mm 0,0 UV-I 0 W/m 10,8 C 12,7 C 1,9 km/h 96,15 %
28.09.2020 21:54 12,7 C 88 % 1011,6 hPa 0,0 l/m 0,4 km/h O-SO 117 0 min 0,000 mm 0,0 UV-I 0 W/m 10,8 C 12,7 C 1,9 km/h 100,00 %
28.09.2020 21:53 12,7 C 88 % 1011,6 hPa 0,0 l/m 0,5 km/h O-SO 117 0 min 0,000 mm 0,0 UV-I 0 W/m 10,8 C 12,7 C 1,9 km/h 100,00 %
28.09.2020 21:52 12,7 C 88 % 1011,5 hPa 0,0 l/m 0,6 km/h O-SO 117 0 min 0,000 mm 0,0 UV-I 0 W/m 10,8 C 12,7 C 1,9 km/h 100,00 %
28.09.2020 21:51 12,7 C 88 % 1011,5 hPa 0,0 l/m 0,1 km/h O-SO 117 0 min 0,000 mm 0,0 UV-I 0 W/m 10,8 C 12,7 C 1,9 km/h 100,00 %
28.09.2020 21:50 12,7 C 88 % 1011,5 hPa 0,0 l/m 0,4 km/h O-SO 117 0 min 0,000 mm 0,0 UV-I 0 W/m 10,8 C 12,7 C 1,9 km/h 100,00 %
28.09.2020 21:49 12,7 C 88 % 1011,5 hPa 0,0 l/m 0,7 km/h O-SO 117 0 min 0,000 mm 0,0 UV-I 0 W/m 10,8 C 12,7 C 1,9 km/h 100,00 %
28.09.2020 21:48 12,7 C 88 % 1011,5 hPa 0,0 l/m 0,5 km/h O-SO 117 0 min 0,000 mm 0,0 UV-I 0 W/m 10,8 C 12,7 C 1,9 km/h 100,00 %
28.09.2020 21:47 12,7 C 88 % 1011,5 hPa 0,0 l/m 0,7 km/h O-SO 117 0 min 0,000 mm 0,0 UV-I 0 W/m 10,8 C 12,7 C 3,8 km/h 100,00 %
28.09.2020 21:46 12,7 C 88 % 1011,5 hPa 0,0 l/m 1,2 km/h O-SO 117 0 min 0,000 mm 0,0 UV-I 0 W/m 10,8 C 12,7 C 3,8 km/h 100,00 %
28.09.2020 21:45 12,7 C 88 % 1011,5 hPa 0,0 l/m 1,5 km/h O-SO 117 0 min 0,000 mm 0,0 UV-I 0 W/m 10,8 C 12,7 C 3,8 km/h 100,00 %
28.09.2020 21:44 12,7 C 88 % 1011,5 hPa 0,0 l/m 1,3 km/h O-SO 117 0 min 0,000 mm 0,0 UV-I 0 W/m 10,8 C 12,7 C 3,8 km/h 100,00 %
28.09.2020 21:43 12,7 C 88 % 1011,4 hPa 0,0 l/m 2,3 km/h O-SO 117 0 min 0,000 mm 0,0 UV-I 0 W/m 10,8 C 12,7 C 3,8 km/h 93,33 %
28.09.2020 21:42 12,7 C 88 % 1011,5 hPa 0,0 l/m 2,8 km/h O-SO 116 0 min 0,000 mm 0,0 UV-I 0 W/m 10,8 C 12,7 C 5,7 km/h 100,00 %
28.09.2020 21:41 12,7 C 89 % 1011,5 hPa 0,0 l/m 1,4 km/h O-SO 108 0 min 0,000 mm 0,0 UV-I 0 W/m 10,9 C 12,7 C 3,8 km/h 100,00 %
28.09.2020 21:40 12,7 C 88 % 1011,5 hPa 0,0 l/m 1,3 km/h O-SO 108 0 min 0,000 mm 0,0 UV-I 0 W/m 10,8 C 12,7 C 1,9 km/h 100,00 %
28.09.2020 21:39 12,7 C 89 % 1011,5 hPa 0,0 l/m 0,8 km/h O-SO 108 0 min 0,000 mm 0,0 UV-I 0 W/m 10,9 C 12,7 C 1,9 km/h 100,00 %
28.09.2020 21:38 12,7 C 89 % 1011,5 hPa 0,0 l/m 1,2 km/h O-SO 108 0 min 0,000 mm 0,0 UV-I 0 W/m 10,9 C 12,7 C 1,9 km/h 100,00 %
28.09.2020 21:37 12,7 C 89 % 1011,5 hPa 0,0 l/m 1,4 km/h O-SO 108 0 min 0,000 mm 0,0 UV-I 0 W/m 10,9 C 12,7 C 3,8 km/h 95,83 %
28.09.2020 21:36 12,7 C 89 % 1011,5 hPa 0,0 l/m 0,5 km/h O-SO 108 0 min 0,000 mm 0,0 UV-I 0 W/m 10,9 C 12,7 C 1,9 km/h 100,00 %
28.09.2020 21:35 12,7 C 89 % 1011,4 hPa 0,0 l/m 0,2 km/h O-SO 108 0 min 0,000 mm 0,0 UV-I 0 W/m 10,9 C 12,7 C 1,9 km/h 100,00 %
28.09.2020 21:34 12,7 C 88 % 1011,5 hPa 0,0 l/m 0,4 km/h O-SO 108 0 min 0,000 mm 0,0 UV-I 0 W/m 10,8 C 12,7 C 1,9 km/h 100,00 %
28.09.2020 21:33 12,7 C 88 % 1011,5 hPa 0,0 l/m 0,5 km/h O-SO 108 0 min 0,000 mm 0,0 UV-I 0 W/m 10,8 C 12,7 C 1,9 km/h 100,00 %
28.09.2020 21:32 12,7 C 88 % 1011,5 hPa 0,0 l/m 1,2 km/h O-SO 108 0 min 0,000 mm 0,0 UV-I 0 W/m 10,8 C 12,7 C 3,8 km/h 100,00 %
28.09.2020 21:31 12,7 C 88 % 1011,5 hPa 0,0 l/m 2,4 km/h O-SO 108 0 min 0,000 mm 0,0 UV-I 0 W/m 10,8 C 12,7 C 5,7 km/h 100,00 %
28.09.2020 21:30 12,7 C 88 % 1011,5 hPa 0,0 l/m 0,4 km/h O-SO 105 0 min 0,000 mm 0,0 UV-I 0 W/m 10,8 C 12,7 C 1,9 km/h 100,00 %
28.09.2020 21:29 12,7 C 88 % 1011,6 hPa 0,0 l/m 0,0 km/h O-SO 105 0 min 0,000 mm 0,0 UV-I 0 W/m 10,8 C 12,7 C 0,0 km/h 100,00 %
28.09.2020 21:28 12,7 C 88 % 1011,6 hPa 0,0 l/m 0,0 km/h O-SO 105 0 min 0,000 mm 0,0 UV-I 0 W/m 10,8 C 12,7 C 0,0 km/h 100,00 %
28.09.2020 21:27 12,7 C 88 % 1011,6 hPa 0,0 l/m 0,0 km/h O-SO 105 0 min 0,000 mm 0,0 UV-I 0 W/m 10,8 C 12,7 C 0,0 km/h 100,00 %
28.09.2020 21:26 12,7 C 88 % 1011,6 hPa 0,0 l/m 0,0 km/h O-SO 105 0 min 0,000 mm 0,0 UV-I 0 W/m 10,8 C 12,7 C 0,0 km/h 100,00 %
28.09.2020 21:25 12,7 C 88 % 1011,6 hPa 0,0 l/m 0,0 km/h O-SO 105 0 min 0,000 mm 0,0 UV-I 0 W/m 10,8 C 12,7 C 0,0 km/h 100,00 %
28.09.2020 21:24 12,7 C 88 % 1011,6 hPa 0,0 l/m 0,0 km/h O-SO 105 0 min 0,000 mm 0,0 UV-I 0 W/m 10,8 C 12,7 C 0,0 km/h 100,00 %
28.09.2020 21:23 12,7 C 88 % 1011,6 hPa 0,0 l/m 0,2 km/h O-SO 105 0 min 0,000 mm 0,0 UV-I 0 W/m 10,8 C 12,7 C 1,9 km/h 100,00 %
28.09.2020 21:22 12,7 C 88 % 1011,6 hPa 0,0 l/m 1,0 km/h O-SO 105 0 min 0,000 mm 0,0 UV-I 0 W/m 10,8 C 12,7 C 3,8 km/h 100,00 %
28.09.2020 21:21 12,7 C 88 % 1011,6 hPa 0,0 l/m 0,0 km/h O-SO 105 0 min 0,000 mm 0,0 UV-I 0 W/m 10,8 C 12,7 C 0,0 km/h 100,00 %
28.09.2020 21:20 12,7 C 88 % 1011,6 hPa 0,0 l/m 0,0 km/h O-SO 105 0 min 0,000 mm 0,0 UV-I 0 W/m 10,8 C 12,7 C 0,0 km/h 100,00 %
28.09.2020 21:19 12,7 C 88 % 1011,5 hPa 0,0 l/m 0,0 km/h O-SO 105 0 min 0,000 mm 0,0 UV-I 0 W/m 10,8 C 12,7 C 0,0 km/h 100,00 %
28.09.2020 21:18 12,7 C 88 % 1011,5 hPa 0,0 l/m 0,0 km/h O-SO 105 0 min 0,000 mm 0,0 UV-I 0 W/m 10,8 C 12,7 C 0,0 km/h 100,00 %
28.09.2020 21:17 12,7 C 88 % 1011,5 hPa 0,0 l/m 0,0 km/h O-SO 105 0 min 0,000 mm 0,0 UV-I 0 W/m 10,8 C 12,7 C 0,0 km/h 100,00 %
28.09.2020 21:16 12,7 C 88 % 1011,5 hPa 0,0 l/m 0,0 km/h O-SO 105 0 min 0,000 mm 0,0 UV-I 0 W/m 10,8 C 12,7 C 0,0 km/h 100,00 %
28.09.2020 21:15 12,7 C 88 % 1011,5 hPa 0,0 l/m 0,0 km/h O-SO 105 0 min 0,000 mm 0,0 UV-I 0 W/m 10,8 C 12,7 C 0,0 km/h 100,00 %
28.09.2020 21:14 12,7 C 88 % 1011,5 hPa 0,0 l/m 0,0 km/h O-SO 105 0 min 0,000 mm 0,0 UV-I 0 W/m 10,8 C 12,7 C 0,0 km/h 100,00 %
28.09.2020 21:13 12,7 C 88 % 1011,5 hPa 0,0 l/m 0,0 km/h O-SO 105 0 min 0,000 mm 0,0 UV-I 0 W/m 10,8 C 12,7 C 0,0 km/h 100,00 %
28.09.2020 21:12 12,7 C 88 % 1011,5 hPa 0,0 l/m 0,0 km/h O-SO 105 0 min 0,000 mm 0,0 UV-I 0 W/m 10,8 C 12,7 C 0,0 km/h 100,00 %
28.09.2020 21:11 12,7 C 88 % 1011,5 hPa 0,0 l/m 0,0 km/h O-SO 105 0 min 0,000 mm 0,0 UV-I 0 W/m 10,8 C 12,7 C 0,0 km/h 100,00 %
28.09.2020 21:10 12,7 C 88 % 1011,4 hPa 0,0 l/m 0,0 km/h O-SO 105 0 min 0,000 mm 0,0 UV-I 0 W/m 10,8 C 12,7 C 0,0 km/h 100,00 %
28.09.2020 21:09 12,7 C 88 % 1011,4 hPa 0,0 l/m 0,0 km/h O-SO 105 0 min 0,000 mm 0,0 UV-I 0 W/m 10,8 C 12,7 C 0,0 km/h 95,65 %
28.09.2020 21:08 12,7 C 88 % 1011,4 hPa 0,0 l/m 0,0 km/h O-SO 105 0 min 0,000 mm 0,0 UV-I 0 W/m 10,8 C 12,7 C 0,0 km/h 100,00 %
28.09.2020 21:07 12,7 C 88 % 1011,4 hPa 0,0 l/m 0,0 km/h O-SO 105 0 min 0,000 mm 0,0 UV-I 0 W/m 10,8 C 12,7 C 0,0 km/h 95,83 %
28.09.2020 21:06 12,7 C 88 % 1011,4 hPa 0,0 l/m 0,0 km/h O-SO 105 0 min 0,000 mm 0,0 UV-I 0 W/m 10,8 C 12,7 C 0,0 km/h 100,00 %
28.09.2020 21:05 12,7 C 88 % 1011,4 hPa 0,0 l/m 0,0 km/h O-SO 105 0 min 0,000 mm 0,0 UV-I 0 W/m 10,8 C 12,7 C 0,0 km/h 100,00 %
28.09.2020 21:04 12,7 C 88 % 1011,4 hPa 0,0 l/m 0,0 km/h O-SO 105 0 min 0,000 mm 0,0 UV-I 0 W/m 10,8 C 12,7 C 0,0 km/h 95,65 %
28.09.2020 21:03 12,7 C 88 % 1011,4 hPa 0,0 l/m 0,2 km/h O-SO 105 0 min 0,000 mm 0,0 UV-I 0 W/m 10,8 C 12,7 C 1,9 km/h 100,00 %
28.09.2020 21:02 12,7 C 88 % 1011,4 hPa 0,0 l/m 0,0 km/h O-SO 105 0 min 0,000 mm 0,0 UV-I 0 W/m 10,8 C 12,7 C 0,0 km/h 95,65 %
28.09.2020 21:01 12,7 C 88 % 1011,3 hPa 0,0 l/m 0,0 km/h O-SO 105 0 min 0,000 mm 0,0 UV-I 0 W/m 10,8 C 12,7 C 0,0 km/h 100,00 %
28.09.2020 21:00 12,7 C 88 % 1011,3 hPa 0,0 l/m 0,0 km/h O-SO 105 0 min 0,000 mm 0,0 UV-I 0 W/m 10,8 C 12,7 C 0,0 km/h 100,00 %
28.09.2020 20:59 12,7 C 88 % 1011,2 hPa 0,0 l/m 0,0 km/h O-SO 105 0 min 0,000 mm 0,0 UV-I 0 W/m 10,8 C 12,7 C 0,0 km/h 100,00 %
28.09.2020 20:58 12,7 C 88 % 1011,2 hPa 0,0 l/m 0,1 km/h O-SO 105 0 min 0,000 mm 0,0 UV-I 0 W/m 10,8 C 12,7 C 1,9 km/h 100,00 %
28.09.2020 20:57 12,7 C 88 % 1011,2 hPa 0,0 l/m 1,1 km/h O-SO 105 0 min 0,000 mm 0,0 UV-I 0 W/m 10,8 C 12,7 C 3,8 km/h 97,56 %
28.09.2020 20:56 12,7 C 88 % 1011,2 hPa 0,0 l/m 2,3 km/h O-SO 105 0 min 0,000 mm 0,0 UV-I 0 W/m 10,8 C 12,7 C 3,8 km/h 100,00 %
28.09.2020 20:55 12,7 C 88 % 1011,2 hPa 0,0 l/m 5,5 km/h O-SO 105 0 min 0,000 mm 0,0 UV-I 0 W/m 10,8 C 12,7 C 7,7 km/h 100,00 %
28.09.2020 20:54 12,7 C 88 % 1011,1 hPa 0,0 l/m 3,0 km/h O-SO 106 0 min 0,000 mm 0,0 UV-I 0 W/m 10,8 C 12,7 C 5,7 km/h 100,00 %
28.09.2020 20:53 12,7 C 88 % 1011,1 hPa 0,0 l/m 3,4 km/h O-SO 106 0 min 0,000 mm 0,0 UV-I 0 W/m 10,8 C 12,7 C 5,7 km/h 100,00 %
28.09.2020 20:52 12,7 C 88 % 1011,1 hPa 0,0 l/m 3,7 km/h O-SO 106 0 min 0,000 mm 0,0 UV-I 0 W/m 10,8 C 12,7 C 5,7 km/h 100,00 %
28.09.2020 20:51 12,7 C 89 % 1011,1 hPa 0,0 l/m 4,3 km/h O-SO 106 0 min 0,000 mm 0,0 UV-I 0 W/m 10,9 C 12,7 C 7,7 km/h 100,00 %
28.09.2020 20:50 12,7 C 89 % 1011,1 hPa 0,0 l/m 3,1 km/h O-SO 105 0 min 0,000 mm 0,0 UV-I 0 W/m 10,9 C 12,7 C 3,8 km/h 100,00 %
28.09.2020 20:49 12,7 C 89 % 1011,1 hPa 0,0 l/m 4,2 km/h O-SO 105 0 min 0,000 mm 0,0 UV-I 0 W/m 10,9 C 12,7 C 7,7 km/h 100,00 %
28.09.2020 20:48 12,7 C 89 % 1011,1 hPa 0,0 l/m 4,0 km/h O-SO 107 0 min 0,000 mm 0,0 UV-I 0 W/m 10,9 C 12,7 C 7,7 km/h 100,00 %
28.09.2020 20:47 12,7 C 89 % 1011,1 hPa 0,0 l/m 1,9 km/h O-SO 113 0 min 0,000 mm 0,0 UV-I 0 W/m 10,9 C 12,7 C 3,8 km/h 100,00 %
28.09.2020 20:46 12,6 C 89 % 1011,1 hPa 0,0 l/m 3,9 km/h O-SO 113 0 min 0,000 mm 0,0 UV-I 0 W/m 10,8 C 12,6 C 5,7 km/h 100,00 %
28.09.2020 20:45 12,6 C 89 % 1011,1 hPa 0,0 l/m 4,6 km/h O-SO 115 0 min 0,000 mm 0,0 UV-I 0 W/m 10,8 C 12,6 C 7,7 km/h 96,15 %
28.09.2020 20:44 12,7 C 89 % 1011,1 hPa 0,0 l/m 4,9 km/h O 100 0 min 0,000 mm 0,0 UV-I 0 W/m 10,9 C 12,7 C 7,7 km/h 96,15 %
28.09.2020 20:43 12,6 C 89 % 1011,1 hPa 0,0 l/m 3,9 km/h O-SO 102 0 min 0,000 mm 0,0 UV-I 0 W/m 10,8 C 12,6 C 5,7 km/h 100,00 %
28.09.2020 20:42 12,7 C 89 % 1011,1 hPa 0,0 l/m 5,3 km/h O 101 0 min 0,000 mm 0,0 UV-I 0 W/m 10,9 C 12,7 C 7,7 km/h 100,00 %
28.09.2020 20:41 12,7 C 89 % 1011,1 hPa 0,0 l/m 3,2 km/h O 98 0 min 0,000 mm 0,0 UV-I 0 W/m 10,9 C 12,7 C 5,7 km/h 100,00 %
28.09.2020 20:40 12,7 C 89 % 1011,1 hPa 0,0 l/m 2,2 km/h O 95 0 min 0,000 mm 0,0 UV-I 0 W/m 10,9 C 12,7 C 3,8 km/h 100,00 %
28.09.2020 20:39 12,7 C 89 % 1011,1 hPa 0,0 l/m 2,6 km/h O 95 0 min 0,000 mm 0,0 UV-I 0 W/m 10,9 C 12,7 C 5,7 km/h 100,00 %
28.09.2020 20:38 12,7 C 89 % 1011,1 hPa 0,0 l/m 2,7 km/h S 176 0 min 0,000 mm 0,0 UV-I 0 W/m 10,9 C 12,7 C 3,8 km/h 100,00 %
28.09.2020 20:37 12,7 C 89 % 1011,1 hPa 0,0 l/m 2,0 km/h S 176 0 min 0,000 mm 0,0 UV-I 0 W/m 10,9 C 12,7 C 3,8 km/h 100,00 %
28.09.2020 20:36 12,7 C 89 % 1011,2 hPa 0,0 l/m 1,0 km/h S 176 0 min 0,000 mm 0,0 UV-I 0 W/m 10,9 C 12,7 C 1,9 km/h 100,00 %
28.09.2020 20:35 12,7 C 89 % 1011,2 hPa 0,0 l/m 2,5 km/h S 176 0 min 0,000 mm 0,0 UV-I 0 W/m 10,9 C 12,7 C 3,8 km/h 100,00 %
28.09.2020 20:34 12,7 C 88 % 1011,2 hPa 0,0 l/m 1,7 km/h S 176 0 min 0,000 mm 0,0 UV-I 0 W/m 10,8 C 12,7 C 3,8 km/h 100,00 %
28.09.2020 20:33 12,7 C 88 % 1011,1 hPa 0,0 l/m 2,0 km/h S 176 0 min 0,000 mm 0,0 UV-I 0 W/m 10,8 C 12,7 C 3,8 km/h 100,00 %
28.09.2020 20:32 12,7 C 88 % 1011,1 hPa 0,0 l/m 1,1 km/h S 176 0 min 0,000 mm 0,0 UV-I 0 W/m 10,8 C 12,7 C 1,9 km/h 100,00 %
28.09.2020 20:31 12,7 C 88 % 1011,2 hPa 0,0 l/m 0,4 km/h S 176 0 min 0,000 mm 0,0 UV-I 0 W/m 10,8 C 12,7 C 1,9 km/h 100,00 %
28.09.2020 20:30 12,7 C 88 % 1011,2 hPa 0,0 l/m 2,0 km/h S 176 0 min 0,000 mm 0,0 UV-I 0 W/m 10,8 C 12,7 C 5,7 km/h 100,00 %
28.09.2020 20:29 12,7 C 88 % 1011,2 hPa 0,0 l/m 1,4 km/h S 176 0 min 0,000 mm 0,0 UV-I 0 W/m 10,8 C 12,7 C 3,8 km/h 100,00 %
28.09.2020 20:28 12,7 C 88 % 1011,2 hPa 0,0 l/m 0,5 km/h S 176 0 min 0,000 mm 0,0 UV-I 0 W/m 10,8 C 12,7 C 1,9 km/h 98,52 %
28.09.2020 20:27 12,7 C 88 % 1011,2 hPa 0,0 l/m 0,5 km/h S 176 0 min 0,000 mm 0,0 UV-I 0 W/m 10,8 C 12,7 C 1,9 km/h 96,43 %
28.09.2020 20:26 12,7 C 88 % 1011,2 hPa 0,0 l/m 0,0 km/h S 176 0 min 0,000 mm 0,0 UV-I 0 W/m 10,8 C 12,7 C 0,0 km/h 100,00 %
28.09.2020 20:25 12,7 C 88 % 1011,1 hPa 0,0 l/m 0,1 km/h S 176 0 min 0,000 mm 0,0 UV-I 0 W/m 10,8 C 12,7 C 1,9 km/h 100,00 %
28.09.2020 20:24 12,7 C 88 % 1011,1 hPa 0,0 l/m 0,4 km/h S 176 0 min 0,000 mm 0,0 UV-I 0 W/m 10,8 C 12,7 C 1,9 km/h 100,00 %
28.09.2020 20:23 12,7 C 89 % 1011,1 hPa 0,0 l/m 0,6 km/h S 176 0 min 0,000 mm 0,0 UV-I 0 W/m 10,9 C 12,7 C 1,9 km/h 100,00 %
28.09.2020 20:22 12,7 C 88 % 1011,1 hPa 0,0 l/m 0,7 km/h S 176 0 min 0,000 mm 0,0 UV-I 0 W/m 10,8 C 12,7 C 1,9 km/h 100,00 %
28.09.2020 20:21 12,7 C 88 % 1011,1 hPa 0,0 l/m 0,4 km/h S 176 0 min 0,000 mm 0,0 UV-I 0 W/m 10,8 C 12,7 C 1,9 km/h 100,00 %
28.09.2020 20:20 12,7 C 88 % 1011,1 hPa 0,0 l/m 1,6 km/h S 176 0 min 0,000 mm 0,0 UV-I 0 W/m 10,8 C 12,7 C 3,8 km/h 90,91 %
28.09.2020 20:19 12,7 C 88 % 1011,1 hPa 0,0 l/m 3,1 km/h S 176 0 min 0,000 mm 0,0 UV-I 0 W/m 10,8 C 12,7 C 5,7 km/h 95,83 %
28.09.2020 20:18 12,7 C 88 % 1011,1 hPa 0,0 l/m 1,1 km/h S 176 0 min 0,000 mm 0,0 UV-I 0 W/m 10,8 C 12,7 C 1,9 km/h 100,00 %
28.09.2020 20:17 12,7 C 88 % 1011,1 hPa 0,0 l/m 0,9 km/h S 176 0 min 0,000 mm 0,0 UV-I 0 W/m 10,8 C 12,7 C 1,9 km/h 100,00 %
28.09.2020 20:16 12,7 C 88 % 1011,1 hPa 0,0 l/m 0,3 km/h S 176 0 min 0,000 mm 0,0 UV-I 0 W/m 10,8 C 12,7 C 1,9 km/h 100,00 %
28.09.2020 20:15 12,7 C 88 % 1011,1 hPa 0,0 l/m 0,0 km/h S 176 0 min 0,000 mm 0,0 UV-I 0 W/m 10,8 C 12,7 C 0,0 km/h 95,83 %
28.09.2020 20:14 12,7 C 88 % 1011,1 hPa 0,0 l/m 0,0 km/h S 176 0 min 0,000 mm 0,0 UV-I 0 W/m 10,8 C 12,7 C 0,0 km/h 100,00 %
28.09.2020 20:13 12,7 C 88 % 1011,1 hPa 0,0 l/m 0,0 km/h S 176 0 min 0,000 mm 0,0 UV-I 0 W/m 10,8 C 12,7 C 0,0 km/h 100,00 %
28.09.2020 20:12 12,7 C 88 % 1011,1 hPa 0,0 l/m 0,0 km/h S 176 0 min 0,000 mm 0,0 UV-I 0 W/m 10,8 C 12,7 C 0,0 km/h 100,00 %
28.09.2020 20:11 12,7 C 88 % 1011,1 hPa 0,0 l/m 0,0 km/h S 176 0 min 0,000 mm 0,0 UV-I 0 W/m 10,8 C 12,7 C 0,0 km/h 100,00 %
28.09.2020 20:10 12,7 C 88 % 1011,1 hPa 0,0 l/m 0,0 km/h S 176 0 min 0,000 mm 0,0 UV-I 0 W/m 10,8 C 12,7 C 0,0 km/h 100,00 %
28.09.2020 20:09 12,7 C 88 % 1011,1 hPa 0,0 l/m 0,0 km/h S 176 0 min 0,000 mm 0,0 UV-I 0 W/m 10,8 C 12,7 C 0,0 km/h 100,00 %
28.09.2020 20:08 12,7 C 88 % 1011,1 hPa 0,0 l/m 0,0 km/h S 176 0 min 0,000 mm 0,0 UV-I 0 W/m 10,8 C 12,7 C 0,0 km/h 100,00 %
28.09.2020 20:07 12,7 C 88 % 1011,1 hPa 0,0 l/m 0,0 km/h S 176 0 min 0,000 mm 0,0 UV-I 0 W/m 10,8 C 12,7 C 0,0 km/h 100,00 %
28.09.2020 20:06 12,7 C 88 % 1011,1 hPa 0,0 l/m 0,1 km/h S 176 0 min 0,000 mm 0,0 UV-I 0 W/m 10,8 C 12,7 C 1,9 km/h 100,00 %
28.09.2020 20:05 12,7 C 88 % 1011,1 hPa 0,0 l/m 0,2 km/h S 176 0 min 0,000 mm 0,0 UV-I 0 W/m 10,8 C 12,7 C 1,9 km/h 100,00 %
28.09.2020 20:04 12,7 C 88 % 1011,1 hPa 0,0 l/m 0,0 km/h S 176 0 min 0,000 mm 0,0 UV-I 0 W/m 10,8 C 12,7 C 0,0 km/h 100,00 %
28.09.2020 20:03 12,7 C 88 % 1011,1 hPa 0,0 l/m 0,2 km/h S 176 0 min 0,000 mm 0,0 UV-I 0 W/m 10,8 C 12,7 C 1,9 km/h 100,00 %
28.09.2020 20:02 12,7 C 88 % 1011,1 hPa 0,0 l/m 0,0 km/h S 176 0 min 0,000 mm 0,0 UV-I 0 W/m 10,8 C 12,7 C 0,0 km/h 100,00 %
28.09.2020 20:01 12,6 C 88 % 1011,1 hPa 0,0 l/m 0,0 km/h S 176 0 min 0,000 mm 0,0 UV-I 0 W/m 10,7 C 12,6 C 0,0 km/h 100,00 %
28.09.2020 20:00 12,7 C 88 % 1011,1 hPa 0,0 l/m 0,0 km/h S 176 0 min 0,000 mm 0,0 UV-I 0 W/m 10,8 C 12,7 C 0,0 km/h 100,00 %
28.09.2020 19:59 12,6 C 88 % 1011,1 hPa 0,0 l/m 0,1 km/h S 176 0 min 0,000 mm 0,0 UV-I 0 W/m 10,7 C 12,6 C 1,9 km/h 100,00 %
28.09.2020 19:58 12,7 C 88 % 1011,0 hPa 0,0 l/m 0,0 km/h S 176 0 min 0,000 mm 0,0 UV-I 0 W/m 10,8 C 12,7 C 0,0 km/h 100,00 %
28.09.2020 19:57 12,6 C 88 % 1011,1 hPa 0,0 l/m 0,2 km/h S 176 0 min 0,000 mm 0,0 UV-I 0 W/m 10,7 C 12,6 C 1,9 km/h 100,00 %
28.09.2020 19:56 12,6 C 88 % 1011,1 hPa 0,0 l/m 0,1 km/h S 176 0 min 0,000 mm 0,0 UV-I 0 W/m 10,7 C 12,6 C 1,9 km/h 96,67 %
28.09.2020 19:55 12,7 C 88 % 1011,0 hPa 0,0 l/m 0,0 km/h S 176 0 min 0,000 mm 0,0 UV-I 0 W/m 10,8 C 12,7 C 0,0 km/h 100,00 %
28.09.2020 19:54 12,6 C 88 % 1011,0 hPa 0,0 l/m 0,0 km/h S 176 0 min 0,000 mm 0,0 UV-I 0 W/m 10,7 C 12,6 C 0,0 km/h 100,00 %
28.09.2020 19:53 12,7 C 88 % 1011,0 hPa 0,0 l/m 0,0 km/h S 176 0 min 0,000 mm 0,0 UV-I 0 W/m 10,8 C 12,7 C 0,0 km/h 95,83 %
28.09.2020 19:52 12,7 C 88 % 1011,0 hPa 0,0 l/m 0,0 km/h S 176 0 min 0,000 mm 0,0 UV-I 0 W/m 10,8 C 12,7 C 0,0 km/h 100,00 %
28.09.2020 19:51 12,6 C 88 % 1011,0 hPa 0,0 l/m 0,0 km/h S 176 0 min 0,000 mm 0,0 UV-I 0 W/m 10,7 C 12,6 C 0,0 km/h 100,00 %
28.09.2020 19:50 12,6 C 88 % 1010,9 hPa 0,0 l/m 0,0 km/h S 176 0 min 0,000 mm 0,0 UV-I 0 W/m 10,7 C 12,6 C 0,0 km/h 100,00 %
28.09.2020 19:49 12,6 C 88 % 1010,9 hPa 0,0 l/m 0,0 km/h S 176 0 min 0,000 mm 0,0 UV-I 0 W/m 10,7 C 12,6 C 0,0 km/h 100,00 %
28.09.2020 19:48 12,6 C 88 % 1010,9 hPa 0,0 l/m 0,2 km/h S 176 0 min 0,000 mm 0,0 UV-I 0 W/m 10,7 C 12,6 C 1,9 km/h 100,00 %
28.09.2020 19:47 12,6 C 88 % 1010,9 hPa 0,0 l/m 1,4 km/h S 176 0 min 0,000 mm 0,0 UV-I 0 W/m 10,7 C 12,6 C 3,8 km/h 100,00 %
28.09.2020 19:46 12,6 C 88 % 1010,9 hPa 0,0 l/m 0,7 km/h S 176 0 min 0,000 mm 0,0 UV-I 0 W/m 10,7 C 12,6 C 1,9 km/h 100,00 %
28.09.2020 19:45 12,6 C 88 % 1010,9 hPa 0,0 l/m 0,0 km/h S 176 0 min 0,000 mm 0,0 UV-I 0 W/m 10,7 C 12,6 C 0,0 km/h 100,00 %
28.09.2020 19:44 12,6 C 88 % 1010,9 hPa 0,0 l/m 0,1 km/h S 176 0 min 0,000 mm 0,0 UV-I 0 W/m 10,7 C 12,6 C 1,9 km/h 100,00 %
28.09.2020 19:43 12,6 C 88 % 1010,8 hPa 0,0 l/m 0,1 km/h S 176 0 min 0,000 mm 0,0 UV-I 0 W/m 10,7 C 12,6 C 1,9 km/h 100,00 %
28.09.2020 19:42 12,6 C 88 % 1010,9 hPa 0,0 l/m 0,8 km/h S 176 0 min 0,000 mm 0,0 UV-I 0 W/m 10,7 C 12,6 C 1,9 km/h 100,00 %
28.09.2020 19:41 12,6 C 88 % 1010,8 hPa 0,0 l/m 0,4 km/h S 176 0 min 0,000 mm 0,0 UV-I 0 W/m 10,7 C 12,6 C 1,9 km/h 100,00 %
28.09.2020 19:40 12,6 C 88 % 1010,8 hPa 0,0 l/m 0,6 km/h S 176 0 min 0,000 mm 0,0 UV-I 0 W/m 10,7 C 12,6 C 1,9 km/h 100,00 %
28.09.2020 19:39 12,6 C 88 % 1010,8 hPa 0,0 l/m 0,3 km/h S 176 0 min 0,000 mm 0,0 UV-I 0 W/m 10,7 C 12,6 C 1,9 km/h 100,00 %
28.09.2020 19:38 12,6 C 88 % 1010,8 hPa 0,0 l/m 2,3 km/h S 176 0 min 0,000 mm 0,0 UV-I 0 W/m 10,7 C 12,6 C 3,8 km/h 100,00 %
28.09.2020 19:37 12,6 C 88 % 1010,7 hPa 0,0 l/m 1,5 km/h S 176 0 min 0,000 mm 0,0 UV-I 0 W/m 10,7 C 12,6 C 3,8 km/h 100,00 %
28.09.2020 19:36 12,6 C 88 % 1010,7 hPa 0,0 l/m 0,0 km/h S 176 0 min 0,000 mm 0,0 UV-I 0 W/m 10,7 C 12,6 C 0,0 km/h 100,00 %
28.09.2020 19:35 12,6 C 88 % 1010,7 hPa 0,0 l/m 0,0 km/h S 176 0 min 0,000 mm 0,0 UV-I 0 W/m 10,7 C 12,6 C 0,0 km/h 100,00 %
28.09.2020 19:34 12,6 C 88 % 1010,7 hPa 0,0 l/m 0,1 km/h S 176 0 min 0,000 mm 0,0 UV-I 0 W/m 10,7 C 12,6 C 1,9 km/h 100,00 %
28.09.2020 19:33 12,6 C 88 % 1010,7 hPa 0,0 l/m 2,8 km/h S 176 0 min 0,000 mm 0,0 UV-I 0 W/m 10,7 C 12,6 C 5,7 km/h 100,00 %
28.09.2020 19:32 12,6 C 88 % 1010,7 hPa 0,0 l/m 2,3 km/h S 176 0 min 0,000 mm 0,0 UV-I 0 W/m 10,7 C 12,6 C 3,8 km/h 100,00 %
28.09.2020 19:31 12,6 C 88 % 1010,7 hPa 0,0 l/m 1,2 km/h S 176 0 min 0,000 mm 0,0 UV-I 0 W/m 10,7 C 12,6 C 3,8 km/h 96,00 %
28.09.2020 19:30 12,6 C 88 % 1010,6 hPa 0,0 l/m 0,8 km/h S 177 0 min 0,000 mm 0,0 UV-I 0 W/m 10,7 C 12,6 C 1,9 km/h 100,00 %
28.09.2020 19:29 12,6 C 88 % 1010,6 hPa 0,0 l/m 0,0 km/h S 177 0 min 0,000 mm 0,0 UV-I 0 W/m 10,7 C 12,6 C 0,0 km/h 100,00 %
28.09.2020 19:28 12,6 C 88 % 1010,7 hPa 0,0 l/m 0,0 km/h S 177 0 min 0,000 mm 0,0 UV-I 0 W/m 10,7 C 12,6 C 0,0 km/h 100,00 %
28.09.2020 19:27 12,6 C 88 % 1010,6 hPa 0,0 l/m 0,0 km/h S 177 0 min 0,000 mm 0,0 UV-I 0 W/m 10,7 C 12,6 C 0,0 km/h 100,00 %
28.09.2020 19:26 12,6 C 88 % 1010,6 hPa 0,0 l/m 0,0 km/h S 177 0 min 0,000 mm 0,0 UV-I 0 W/m 10,7 C 12,6 C 0,0 km/h 100,00 %
28.09.2020 19:25 12,6 C 88 % 1010,7 hPa 0,0 l/m 0,0 km/h S 176 0 min 0,000 mm 0,0 UV-I 0 W/m 10,7 C 12,6 C 0,0 km/h 100,00 %
28.09.2020 19:24 12,6 C 88 % 1010,7 hPa 0,0 l/m 0,7 km/h S 177 0 min 0,000 mm 0,0 UV-I 0 W/m 10,7 C 12,6 C 1,9 km/h 100,00 %
28.09.2020 19:23 12,6 C 88 % 1010,6 hPa 0,0 l/m 0,7 km/h S 177 0 min 0,000 mm 0,0 UV-I 0 W/m 10,7 C 12,6 C 1,9 km/h 100,00 %
28.09.2020 19:22 12,6 C 88 % 1010,6 hPa 0,0 l/m 1,2 km/h S 177 0 min 0,000 mm 0,0 UV-I 0 W/m 10,7 C 12,6 C 3,8 km/h 100,00 %
28.09.2020 19:21 12,6 C 88 % 1010,6 hPa 0,0 l/m 1,6 km/h S 176 0 min 0,000 mm 0,0 UV-I 0 W/m 10,7 C 12,6 C 3,8 km/h 100,00 %
28.09.2020 19:20 12,6 C 88 % 1010,6 hPa 0,0 l/m 0,0 km/h S 176 0 min 0,000 mm 0,0 UV-I 0 W/m 10,7 C 12,6 C 0,0 km/h 100,00 %
28.09.2020 19:19 12,6 C 88 % 1010,6 hPa 0,0 l/m 0,6 km/h S 177 0 min 0,000 mm 0,0 UV-I 0 W/m 10,7 C 12,6 C 1,9 km/h 100,00 %
28.09.2020 19:18 12,6 C 88 % 1010,6 hPa 0,0 l/m 1,6 km/h S 176 0 min 0,000 mm 0,0 UV-I 0 W/m 10,7 C 12,6 C 3,8 km/h 100,00 %
28.09.2020 19:17 12,6 C 88 % 1010,6 hPa 0,0 l/m 0,1 km/h S 177 0 min 0,000 mm 0,0 UV-I 0 W/m 10,7 C 12,6 C 1,9 km/h 100,00 %
28.09.2020 19:16 12,6 C 88 % 1010,6 hPa 0,0 l/m 1,3 km/h S 177 0 min 0,000 mm 0,0 UV-I 0 W/m 10,7 C 12,6 C 3,8 km/h 100,00 %
28.09.2020 19:15 12,6 C 88 % 1010,6 hPa 0,0 l/m 2,5 km/h S 177 0 min 0,000 mm 0,0 UV-I 0 W/m 10,7 C 12,6 C 5,7 km/h 95,65 %
28.09.2020 19:14 12,6 C 88 % 1010,6 hPa 0,0 l/m 0,2 km/h S 177 0 min 0,000 mm 0,0 UV-I 0 W/m 10,7 C 12,6 C 1,9 km/h 100,00 %
28.09.2020 19:13 12,7 C 88 % 1010,6 hPa 0,0 l/m 0,0 km/h S 177 0 min 0,000 mm 0,0 UV-I 0 W/m 10,8 C 12,7 C 0,0 km/h 100,00 %
28.09.2020 19:12 12,6 C 88 % 1010,6 hPa 0,0 l/m 0,0 km/h S 177 0 min 0,000 mm 0,0 UV-I 0 W/m 10,7 C 12,6 C 0,0 km/h 100,00 %
28.09.2020 19:11 12,7 C 88 % 1010,6 hPa 0,0 l/m 0,0 km/h S 177 0 min 0,000 mm 0,0 UV-I 0 W/m 10,8 C 12,7 C 0,0 km/h 100,00 %
28.09.2020 19:10 12,7 C 88 % 1010,5 hPa 0,0 l/m 0,0 km/h S 177 0 min 0,000 mm 0,0 UV-I 0 W/m 10,8 C 12,7 C 0,0 km/h 96,67 %
28.09.2020 19:09 12,6 C 88 % 1010,5 hPa 0,0 l/m 0,8 km/h S 176 0 min 0,000 mm 0,0 UV-I 0 W/m 10,7 C 12,6 C 1,9 km/h 100,00 %
28.09.2020 19:08 12,6 C 88 % 1010,5 hPa 0,0 l/m 1,1 km/h S 177 0 min 0,000 mm 0,0 UV-I 0 W/m 10,7 C 12,6 C 3,8 km/h 100,00 %
28.09.2020 19:07 12,7 C 88 % 1010,5 hPa 0,0 l/m 1,2 km/h S 176 0 min 0,000 mm 0,0 UV-I 0 W/m 10,8 C 12,7 C 1,9 km/h 100,00 %
28.09.2020 19:06 12,6 C 88 % 1010,5 hPa 0,0 l/m 0,6 km/h S 177 0 min 0,000 mm 0,0 UV-I 0 W/m 10,7 C 12,6 C 3,8 km/h 100,00 %
28.09.2020 19:05 12,6 C 88 % 1010,5 hPa 0,0 l/m 3,2 km/h S 177 0 min 0,000 mm 0,0 UV-I 0 W/m 10,7 C 12,6 C 5,7 km/h 100,00 %
28.09.2020 19:04 12,6 C 88 % 1010,5 hPa 0,0 l/m 3,2 km/h S 177 0 min 0,000 mm 0,0 UV-I 0 W/m 10,7 C 12,6 C 5,7 km/h 100,00 %
28.09.2020 19:03 12,6 C 88 % 1010,5 hPa 0,0 l/m 0,6 km/h S 178 0 min 0,000 mm 0,0 UV-I 0 W/m 10,7 C 12,6 C 1,9 km/h 100,00 %
28.09.2020 19:02 12,6 C 88 % 1010,5 hPa 0,0 l/m 1,1 km/h S 178 0 min 0,000 mm 0,0 UV-I 0 W/m 10,7 C 12,6 C 3,8 km/h 100,00 %
28.09.2020 19:01 12,7 C 88 % 1010,5 hPa 0,0 l/m 2,7 km/h S 178 0 min 0,025 mm 0,0 UV-I 0 W/m 10,8 C 12,7 C 5,7 km/h 100,00 %
28.09.2020 19:00 12,6 C 88 % 1010,5 hPa 0,0 l/m 2,3 km/h S 178 0 min 0,000 mm 0,0 UV-I 5 W/m 10,7 C 12,6 C 3,8 km/h 100,00 %
28.09.2020 18:59 12,6 C 88 % 1010,5 hPa 0,0 l/m 1,4 km/h S 178 0 min 0,000 mm 0,0 UV-I 5 W/m 10,7 C 12,6 C 3,8 km/h 100,00 %
28.09.2020 18:58 12,6 C 88 % 1010,5 hPa 0,0 l/m 2,7 km/h S 178 0 min 0,000 mm 0,0 UV-I 5 W/m 10,7 C 12,6 C 5,7 km/h 100,00 %
28.09.2020 18:57 12,6 C 88 % 1010,5 hPa 0,0 l/m 0,3 km/h S 178 0 min 0,000 mm 0,0 UV-I 5 W/m 10,7 C 12,6 C 1,9 km/h 100,00 %
28.09.2020 18:56 12,6 C 88 % 1010,4 hPa 0,0 l/m 2,6 km/h S 178 0 min 0,000 mm 0,0 UV-I 7 W/m 10,7 C 12,6 C 3,8 km/h 100,00 %
28.09.2020 18:55 12,6 C 88 % 1010,4 hPa 0,0 l/m 3,5 km/h S 178 0 min 0,000 mm 0,0 UV-I 7 W/m 10,7 C 12,6 C 5,7 km/h 100,00 %
28.09.2020 18:54 12,6 C 88 % 1010,4 hPa 0,0 l/m 1,1 km/h S 178 0 min 0,000 mm 0,0 UV-I 8 W/m 10,7 C 12,6 C 3,8 km/h 100,00 %
28.09.2020 18:53 12,6 C 88 % 1010,4 hPa 0,0 l/m 2,6 km/h S 178 0 min 0,000 mm 0,0 UV-I 9 W/m 10,7 C 12,6 C 5,7 km/h 100,00 %
28.09.2020 18:52 12,6 C 88 % 1010,4 hPa 0,0 l/m 1,1 km/h S-SO 158 0 min 0,000 mm 0,0 UV-I 9 W/m 10,7 C 12,6 C 3,8 km/h 100,00 %
28.09.2020 18:51 12,6 C 88 % 1010,4 hPa 0,0 l/m 0,9 km/h S-SO 158 0 min 0,000 mm 0,0 UV-I 11 W/m 10,7 C 12,6 C 1,9 km/h 100,00 %
28.09.2020 18:50 12,6 C 88 % 1010,4 hPa 0,0 l/m 2,1 km/h S-SO 158 0 min 0,000 mm 0,0 UV-I 11 W/m 10,7 C 12,6 C 3,8 km/h 100,00 %
28.09.2020 18:49 12,6 C 88 % 1010,3 hPa 0,0 l/m 2,2 km/h S-SO 158 0 min 0,000 mm 0,0 UV-I 12 W/m 10,7 C 12,6 C 3,8 km/h 100,00 %
28.09.2020 18:48 12,6 C 88 % 1010,4 hPa 0,0 l/m 2,2 km/h S-SO 158 0 min 0,000 mm 0,0 UV-I 13 W/m 10,7 C 12,6 C 3,8 km/h 96,15 %
28.09.2020 18:47 12,6 C 88 % 1010,4 hPa 0,0 l/m 1,5 km/h S-SO 158 0 min 0,000 mm 0,0 UV-I 15 W/m 10,7 C 12,6 C 3,8 km/h 100,00 %
28.09.2020 18:46 12,6 C 88 % 1010,3 hPa 0,0 l/m 2,4 km/h S-SO 158 0 min 0,000 mm 0,0 UV-I 16 W/m 10,7 C 12,6 C 9,6 km/h 96,30 %
28.09.2020 18:45 12,6 C 88 % 1010,4 hPa 0,0 l/m 1,6 km/h S 181 0 min 0,000 mm 0,0 UV-I 18 W/m 10,7 C 12,6 C 3,8 km/h 100,00 %
28.09.2020 18:44 12,6 C 88 % 1010,3 hPa 0,0 l/m 3,3 km/h S 181 0 min 0,000 mm 0,0 UV-I 18 W/m 10,7 C 12,6 C 5,7 km/h 100,00 %
28.09.2020 18:43 12,6 C 88 % 1010,4 hPa 0,0 l/m 1,5 km/h S 185 0 min 0,000 mm 0,0 UV-I 19 W/m 10,7 C 12,6 C 1,9 km/h 100,00 %
28.09.2020 18:42 12,6 C 88 % 1010,3 hPa 0,0 l/m 1,1 km/h S 185 0 min 0,000 mm 0,0 UV-I 22 W/m 10,7 C 12,6 C 1,9 km/h 100,00 %
28.09.2020 18:41 12,6 C 88 % 1010,3 hPa 0,0 l/m 2,5 km/h S 185 0 min 0,000 mm 0,0 UV-I 24 W/m 10,7 C 12,6 C 5,7 km/h 100,00 %
28.09.2020 18:40 12,6 C 88 % 1010,3 hPa 0,0 l/m 3,2 km/h S 185 0 min 0,000 mm 0,0 UV-I 26 W/m 10,7 C 12,6 C 5,7 km/h 100,00 %
28.09.2020 18:39 12,6 C 88 % 1010,3 hPa 0,0 l/m 2,1 km/h S 185 0 min 0,000 mm 0,0 UV-I 29 W/m 10,7 C 12,6 C 3,8 km/h 100,00 %
28.09.2020 18:38 12,6 C 88 % 1010,3 hPa 0,0 l/m 1,3 km/h S 185 0 min 0,000 mm 0,0 UV-I 33 W/m 10,7 C 12,6 C 3,8 km/h 100,00 %
28.09.2020 18:37 12,6 C 88 % 1010,3 hPa 0,0 l/m 0,8 km/h S 185 0 min 0,000 mm 0,0 UV-I 35 W/m 10,7 C 12,6 C 1,9 km/h 100,00 %
28.09.2020 18:36 12,6 C 88 % 1010,3 hPa 0,0 l/m 1,1 km/h S 185 0 min 0,000 mm 0,0 UV-I 33 W/m 10,7 C 12,6 C 1,9 km/h 100,00 %
28.09.2020 18:35 12,6 C 88 % 1010,3 hPa 0,0 l/m 2,6 km/h S 185 0 min 0,000 mm 0,0 UV-I 32 W/m 10,7 C 12,6 C 3,8 km/h 96,15 %
28.09.2020 18:34 12,6 C 88 % 1010,2 hPa 0,0 l/m 3,0 km/h S-SW 208 0 min 0,000 mm 0,0 UV-I 29 W/m 10,7 C 12,6 C 5,7 km/h 100,00 %
28.09.2020 18:33 12,6 C 88 % 1010,3 hPa 0,0 l/m 1,0 km/h S-SW 208 0 min 0,000 mm 0,0 UV-I 26 W/m 10,7 C 12,6 C 1,9 km/h 100,00 %
28.09.2020 18:32 12,6 C 88 % 1010,3 hPa 0,0 l/m 0,8 km/h S-SW 208 0 min 0,000 mm 0,0 UV-I 25 W/m 10,7 C 12,6 C 1,9 km/h 100,00 %
28.09.2020 18:31 12,6 C 88 % 1010,3 hPa 0,0 l/m 1,8 km/h S-SW 208 0 min 0,000 mm 0,0 UV-I 25 W/m 10,7 C 12,6 C 3,8 km/h 100,00 %
28.09.2020 18:30 12,6 C 88 % 1010,3 hPa 0,0 l/m 2,7 km/h S-SW 208 0 min 0,000 mm 0,0 UV-I 23 W/m 10,7 C 12,6 C 5,7 km/h 100,00 %
28.09.2020 18:29 12,6 C 88 % 1010,3 hPa 0,0 l/m 1,2 km/h S-SW 208 0 min 0,000 mm 0,0 UV-I 23 W/m 10,7 C 12,6 C 3,8 km/h 100,00 %
28.09.2020 18:28 12,6 C 88 % 1010,3 hPa 0,0 l/m 0,3 km/h S-SW 208 0 min 0,000 mm 0,0 UV-I 22 W/m 10,7 C 12,6 C 1,9 km/h 100,00 %
28.09.2020 18:27 12,6 C 88 % 1010,3 hPa 0,0 l/m 0,3 km/h S-SW 208 0 min 0,000 mm 0,0 UV-I 21 W/m 10,7 C 12,6 C 1,9 km/h 100,00 %
28.09.2020 18:26 12,6 C 88 % 1010,3 hPa 0,0 l/m 0,4 km/h S-SW 208 0 min 0,000 mm 0,0 UV-I 19 W/m 10,7 C 12,6 C 1,9 km/h 100,00 %
28.09.2020 18:25 12,6 C 88 % 1010,3 hPa 0,0 l/m 0,2 km/h S-SW 208 0 min 0,000 mm 0,0 UV-I 19 W/m 10,7 C 12,6 C 1,9 km/h 96,30 %
28.09.2020 18:24 12,6 C 88 % 1010,3 hPa 0,0 l/m 0,4 km/h S-SW 208 0 min 0,000 mm 0,0 UV-I 19 W/m 10,7 C 12,6 C 1,9 km/h 95,65 %
28.09.2020 18:23 12,6 C 87 % 1010,3 hPa 0,0 l/m 1,5 km/h S-SW 208 0 min 0,000 mm 0,0 UV-I 19 W/m 10,5 C 12,6 C 3,8 km/h 100,00 %
28.09.2020 18:22 12,6 C 87 % 1010,2 hPa 0,0 l/m 2,1 km/h S-SW 208 0 min 0,000 mm 0,0 UV-I 20 W/m 10,5 C 12,6 C 5,7 km/h 100,00 %
28.09.2020 18:21 12,6 C 87 % 1010,2 hPa 0,0 l/m 2,6 km/h S-SW 208 0 min 0,000 mm 0,0 UV-I 22 W/m 10,5 C 12,6 C 5,7 km/h 100,00 %
28.09.2020 18:20 12,6 C 87 % 1010,2 hPa 0,0 l/m 4,1 km/h S-SW 208 0 min 0,000 mm 0,0 UV-I 23 W/m 10,5 C 12,6 C 7,7 km/h 100,00 %
28.09.2020 18:19 12,6 C 87 % 1010,2 hPa 0,0 l/m 3,7 km/h S-SW 208 0 min 0,000 mm 0,0 UV-I 25 W/m 10,5 C 12,6 C 5,7 km/h 100,00 %
28.09.2020 18:18 12,6 C 87 % 1010,2 hPa 0,0 l/m 4,3 km/h S-SW 208 0 min 0,000 mm 0,0 UV-I 24 W/m 10,5 C 12,6 C 7,7 km/h 96,15 %
28.09.2020 18:17 12,6 C 87 % 1010,2 hPa 0,0 l/m 3,3 km/h S-SW 193 0 min 0,000 mm 0,0 UV-I 23 W/m 10,5 C 12,6 C 5,7 km/h 100,00 %
28.09.2020 18:16 12,6 C 87 % 1010,2 hPa 0,0 l/m 3,6 km/h S-SW 207 0 min 0,000 mm 0,0 UV-I 23 W/m 10,5 C 12,6 C 7,7 km/h 100,00 %
28.09.2020 18:15 12,6 C 87 % 1010,2 hPa 0,0 l/m 0,6 km/h S-SW 207 0 min 0,000 mm 0,0 UV-I 23 W/m 10,5 C 12,6 C 1,9 km/h 100,00 %
28.09.2020 18:14 12,6 C 87 % 1010,2 hPa 0,0 l/m 0,8 km/h S-SW 207 0 min 0,000 mm 0,0 UV-I 25 W/m 10,5 C 12,6 C 1,9 km/h 100,00 %
28.09.2020 18:13 12,6 C 87 % 1010,2 hPa 0,0 l/m 2,3 km/h S-SW 207 0 min 0,000 mm 0,0 UV-I 25 W/m 10,5 C 12,6 C 3,8 km/h 100,00 %
28.09.2020 18:12 12,6 C 87 % 1010,2 hPa 0,0 l/m 1,6 km/h S-SW 207 0 min 0,000 mm 0,0 UV-I 27 W/m 10,5 C 12,6 C 3,8 km/h 100,00 %
28.09.2020 18:11 12,6 C 87 % 1010,2 hPa 0,0 l/m 4,3 km/h S-SW 207 0 min 0,000 mm 0,0 UV-I 28 W/m 10,5 C 12,6 C 5,7 km/h 95,65 %
28.09.2020 18:10 12,6 C 87 % 1010,2 hPa 0,0 l/m 3,0 km/h S-SW 205 0 min 0,000 mm 0,0 UV-I 28 W/m 10,5 C 12,6 C 5,7 km/h 100,00 %
28.09.2020 18:09 12,6 C 87 % 1010,2 hPa 0,0 l/m 4,6 km/h S-SW 205 0 min 0,000 mm 0,0 UV-I 30 W/m 10,5 C 12,6 C 7,7 km/h 100,00 %
28.09.2020 18:08 12,7 C 87 % 1010,2 hPa 0,0 l/m 3,6 km/h S-SW 202 0 min 0,000 mm 0,0 UV-I 30 W/m 10,6 C 12,7 C 5,7 km/h 100,00 %
28.09.2020 18:07 12,6 C 87 % 1010,2 hPa 0,0 l/m 5,5 km/h S-SW 202 0 min 0,000 mm 0,0 UV-I 30 W/m 10,5 C 12,6 C 7,7 km/h 95,65 %
28.09.2020 18:06 12,7 C 87 % 1010,2 hPa 0,0 l/m 1,9 km/h S 191 0 min 0,000 mm 0,0 UV-I 30 W/m 10,6 C 12,7 C 7,7 km/h 100,00 %
28.09.2020 18:05 12,6 C 87 % 1010,2 hPa 0,0 l/m 1,7 km/h S 191 0 min 0,000 mm 0,0 UV-I 30 W/m 10,5 C 12,6 C 5,7 km/h 100,00 %
28.09.2020 18:04 12,7 C 87 % 1010,2 hPa 0,0 l/m 1,0 km/h S 191 0 min 0,000 mm 0,0 UV-I 30 W/m 10,6 C 12,7 C 3,8 km/h 100,00 %
28.09.2020 18:03 12,7 C 87 % 1010,2 hPa 0,0 l/m 1,0 km/h S 191 0 min 0,000 mm 0,0 UV-I 30 W/m 10,6 C 12,7 C 1,9 km/h 100,00 %
28.09.2020 18:02 12,6 C 87 % 1010,3 hPa 0,0 l/m 2,3 km/h S 191 0 min 0,000 mm 0,0 UV-I 28 W/m 10,5 C 12,6 C 3,8 km/h 100,00 %
28.09.2020 18:01 12,6 C 87 % 1010,3 hPa 0,0 l/m 1,0 km/h S 191 0 min 0,025 mm 0,0 UV-I 27 W/m 10,5 C 12,6 C 1,9 km/h 100,00 %
28.09.2020 18:00 12,6 C 87 % 1010,2 hPa 0,0 l/m 1,8 km/h S 191 0 min 0,000 mm 0,0 UV-I 26 W/m 10,5 C 12,6 C 3,8 km/h 100,00 %
28.09.2020 17:59 12,6 C 87 % 1010,2 hPa 0,0 l/m 3,1 km/h S 191 0 min 0,000 mm 0,0 UV-I 26 W/m 10,5 C 12,6 C 5,7 km/h 95,65 %
28.09.2020 17:58 12,6 C 87 % 1010,2 hPa 0,0 l/m 2,0 km/h S 191 0 min 0,000 mm 0,0 UV-I 27 W/m 10,5 C 12,6 C 3,8 km/h 100,00 %
28.09.2020 17:57 12,6 C 87 % 1010,2 hPa 0,0 l/m 4,2 km/h S 191 0 min 0,000 mm 0,0 UV-I 28 W/m 10,5 C 12,6 C 7,7 km/h 100,00 %
28.09.2020 17:56 12,6 C 87 % 1010,1 hPa 0,0 l/m 6,1 km/h S-SW 196 0 min 0,000 mm 0,0 UV-I 28 W/m 10,5 C 12,6 C 9,6 km/h 100,00 %
28.09.2020 17:55 12,6 C 87 % 1010,1 hPa 0,0 l/m 4,5 km/h S 184 0 min 0,000 mm 0,0 UV-I 28 W/m 10,5 C 12,6 C 9,6 km/h 100,00 %
28.09.2020 17:54 12,6 C 87 % 1010,1 hPa 0,0 l/m 3,1 km/h S-SO 166 0 min 0,000 mm 0,0 UV-I 27 W/m 10,5 C 12,6 C 7,7 km/h 95,65 %
28.09.2020 17:53 12,6 C 87 % 1010,2 hPa 0,0 l/m 5,5 km/h S-SO 165 0 min 0,000 mm 0,0 UV-I 26 W/m 10,5 C 12,6 C 9,6 km/h 100,00 %
28.09.2020 17:52 12,6 C 87 % 1010,2 hPa 0,0 l/m 2,5 km/h S-SW 199 0 min 0,000 mm 0,0 UV-I 26 W/m 10,5 C 12,6 C 9,6 km/h 100,00 %
28.09.2020 17:51 12,6 C 87 % 1010,1 hPa 0,0 l/m 1,3 km/h S 190 0 min 0,000 mm 0,0 UV-I 26 W/m 10,5 C 12,6 C 1,9 km/h 100,00 %
28.09.2020 17:50 12,6 C 87 % 1010,1 hPa 0,0 l/m 2,6 km/h S 190 0 min 0,000 mm 0,0 UV-I 26 W/m 10,5 C 12,6 C 5,7 km/h 100,00 %
28.09.2020 17:49 12,6 C 87 % 1010,2 hPa 0,0 l/m 2,7 km/h S 190 0 min 0,000 mm 0,0 UV-I 26 W/m 10,5 C 12,6 C 5,7 km/h 100,00 %
28.09.2020 17:48 12,6 C 87 % 1010,2 hPa 0,0 l/m 1,7 km/h S-SW 213 0 min 0,000 mm 0,0 UV-I 26 W/m 10,5 C 12,6 C 3,8 km/h 100,00 %
28.09.2020 17:47 12,6 C 87 % 1010,1 hPa 0,0 l/m 5,0 km/h S-SW 212 0 min 0,000 mm 0,0 UV-I 26 W/m 10,5 C 12,6 C 7,7 km/h 100,00 %
28.09.2020 17:46 12,6 C 87 % 1010,1 hPa 0,0 l/m 3,7 km/h S 184 0 min 0,000 mm 0,0 UV-I 28 W/m 10,5 C 12,6 C 5,7 km/h 100,00 %
28.09.2020 17:45 12,6 C 87 % 1010,1 hPa 0,0 l/m 3,3 km/h S 185 0 min 0,000 mm 0,0 UV-I 28 W/m 10,5 C 12,6 C 5,7 km/h 100,00 %
28.09.2020 17:44 12,6 C 87 % 1010,1 hPa 0,0 l/m 4,1 km/h S 185 0 min 0,000 mm 0,0 UV-I 28 W/m 10,5 C 12,6 C 7,7 km/h 95,65 %
28.09.2020 17:43 12,5 C 87 % 1010,1 hPa 0,0 l/m 3,3 km/h S 174 0 min 0,000 mm 0,0 UV-I 28 W/m 10,4 C 12,5 C 5,7 km/h 100,00 %
28.09.2020 17:42 12,5 C 87 % 1010,0 hPa 0,0 l/m 4,1 km/h S 174 0 min 0,000 mm 0,0 UV-I 29 W/m 10,4 C 12,5 C 7,7 km/h 100,00 %
28.09.2020 17:41 12,5 C 87 % 1010,0 hPa 0,0 l/m 5,7 km/h S 171 0 min 0,000 mm 0,0 UV-I 31 W/m 10,4 C 12,5 C 9,6 km/h 100,00 %
28.09.2020 17:40 12,5 C 88 % 1010,0 hPa 0,0 l/m 4,4 km/h S 177 0 min 0,000 mm 0,0 UV-I 32 W/m 10,6 C 12,5 C 7,7 km/h 100,00 %
28.09.2020 17:39 12,5 C 88 % 1010,0 hPa 0,0 l/m 2,9 km/h S 179 0 min 0,000 mm 0,0 UV-I 33 W/m 10,6 C 12,5 C 7,7 km/h 100,00 %
28.09.2020 17:38 12,5 C 88 % 1010,0 hPa 0,0 l/m 1,7 km/h S 182 0 min 0,000 mm 0,0 UV-I 34 W/m 10,6 C 12,5 C 3,8 km/h 100,00 %
28.09.2020 17:37 12,4 C 88 % 1010,0 hPa 0,0 l/m 5,1 km/h S 182 0 min 0,000 mm 0,0 UV-I 35 W/m 10,5 C 12,4 C 11,5 km/h 100,00 %
28.09.2020 17:36 12,4 C 88 % 1010,0 hPa 0,0 l/m 6,9 km/h S-SO 165 0 min 0,000 mm 0,0 UV-I 35 W/m 10,5 C 12,1 C 11,5 km/h 100,00 %
28.09.2020 17:35 12,4 C 88 % 1009,9 hPa 0,0 l/m 5,0 km/h S-SO 168 0 min 0,000 mm 0,0 UV-I 35 W/m 10,5 C 12,4 C 9,6 km/h 100,00 %
28.09.2020 17:34 12,4 C 88 % 1009,9 hPa 0,0 l/m 4,7 km/h S-SO 163 0 min 0,000 mm 0,0 UV-I 35 W/m 10,5 C 12,4 C 7,7 km/h 100,00 %
28.09.2020 17:33 12,4 C 88 % 1009,9 hPa 0,0 l/m 5,5 km/h S-SW 195 0 min 0,000 mm 0,0 UV-I 35 W/m 10,5 C 12,4 C 11,5 km/h 100,00 %
28.09.2020 17:32 12,4 C 88 % 1009,9 hPa 0,0 l/m 3,0 km/h S 176 0 min 0,000 mm 0,0 UV-I 33 W/m 10,5 C 12,4 C 7,7 km/h 100,00 %
28.09.2020 17:31 12,4 C 88 % 1010,0 hPa 0,0 l/m 6,8 km/h S-SO 165 0 min 0,000 mm 0,0 UV-I 31 W/m 10,5 C 12,1 C 11,5 km/h 100,00 %
28.09.2020 17:30 12,4 C 88 % 1010,0 hPa 0,0 l/m 3,6 km/h S 172 0 min 0,000 mm 0,0 UV-I 30 W/m 10,5 C 12,4 C 9,6 km/h 100,00 %
28.09.2020 17:29 12,4 C 88 % 1010,0 hPa 0,0 l/m 8,2 km/h S 190 0 min 0,000 mm 0,0 UV-I 30 W/m 10,5 C 11,3 C 11,5 km/h 100,00 %
28.09.2020 17:28 12,4 C 88 % 1010,0 hPa 0,0 l/m 6,1 km/h S-SO 168 0 min 0,000 mm 0,0 UV-I 30 W/m 10,5 C 12,4 C 11,5 km/h 100,00 %
28.09.2020 17:27 12,4 C 88 % 1010,0 hPa 0,0 l/m 2,3 km/h S 182 0 min 0,000 mm 0,0 UV-I 30 W/m 10,5 C 12,4 C 5,7 km/h 100,00 %
28.09.2020 17:26 12,4 C 88 % 1010,0 hPa 0,0 l/m 1,1 km/h S 188 0 min 0,000 mm 0,0 UV-I 30 W/m 10,5 C 12,4 C 1,9 km/h 100,00 %
28.09.2020 17:25 12,4 C 88 % 1010,0 hPa 0,0 l/m 3,2 km/h S 188 0 min 0,000 mm 0,0 UV-I 30 W/m 10,5 C 12,4 C 5,7 km/h 100,00 %
28.09.2020 17:24 12,4 C 88 % 1010,0 hPa 0,0 l/m 3,8 km/h S 188 0 min 0,000 mm 0,0 UV-I 30 W/m 10,5 C 12,4 C 5,7 km/h 100,00 %
28.09.2020 17:23 12,4 C 88 % 1010,0 hPa 0,0 l/m 3,2 km/h S-SW 194 0 min 0,000 mm 0,0 UV-I 30 W/m 10,5 C 12,4 C 5,7 km/h 100,00 %
28.09.2020 17:22 12,4 C 88 % 1010,0 hPa 0,0 l/m 1,0 km/h S-SW 196 0 min 0,000 mm 0,0 UV-I 30 W/m 10,5 C 12,4 C 3,8 km/h 100,00 %
28.09.2020 17:21 12,4 C 88 % 1010,0 hPa 0,0 l/m 1,0 km/h S-SW 196 0 min 0,000 mm 0,0 UV-I 30 W/m 10,5 C 12,4 C 1,9 km/h 100,00 %
28.09.2020 17:20 12,4 C 88 % 1010,1 hPa 0,0 l/m 0,7 km/h S-SW 196 0 min 0,000 mm 0,0 UV-I 30 W/m 10,5 C 12,4 C 1,9 km/h 100,00 %
28.09.2020 17:19 12,4 C 88 % 1010,0 hPa 0,0 l/m 1,0 km/h S-SW 196 0 min 0,000 mm 0,0 UV-I 30 W/m 10,5 C 12,4 C 3,8 km/h 100,00 %
28.09.2020 17:18 12,4 C 88 % 1010,0 hPa 0,0 l/m 0,4 km/h S-SW 196 0 min 0,000 mm 0,0 UV-I 30 W/m 10,5 C 12,4 C 1,9 km/h 96,30 %
28.09.2020 17:17 12,4 C 88 % 1010,0 hPa 0,0 l/m 1,5 km/h S-SW 196 0 min 0,000 mm 0,0 UV-I 30 W/m 10,5 C 12,4 C 3,8 km/h 100,00 %
28.09.2020 17:16 12,4 C 88 % 1010,0 hPa 0,0 l/m 1,5 km/h S-SW 196 0 min 0,000 mm 0,0 UV-I 32 W/m 10,5 C 12,4 C 3,8 km/h 100,00 %
28.09.2020 17:15 12,4 C 88 % 1010,0 hPa 0,0 l/m 0,8 km/h S-SW 196 0 min 0,000 mm 0,0 UV-I 32 W/m 10,5 C 12,4 C 1,9 km/h 100,00 %
28.09.2020 17:14 12,4 C 88 % 1010,0 hPa 0,0 l/m 2,4 km/h S-SW 196 0 min 0,000 mm 0,0 UV-I 32 W/m 10,5 C 12,4 C 5,7 km/h 100,00 %
28.09.2020 17:13 12,4 C 88 % 1010,0 hPa 0,0 l/m 0,8 km/h S-SW 207 0 min 0,000 mm 0,0 UV-I 33 W/m 10,5 C 12,4 C 1,9 km/h 100,00 %
28.09.2020 17:12 12,4 C 88 % 1010,0 hPa 0,0 l/m 0,1 km/h S-SW 207 0 min 0,000 mm 0,0 UV-I 34 W/m 10,5 C 12,4 C 1,9 km/h 100,00 %
28.09.2020 17:11 12,4 C 88 % 1009,9 hPa 0,0 l/m 1,1 km/h S-SW 207 0 min 0,000 mm 0,0 UV-I 36 W/m 10,5 C 12,4 C 1,9 km/h 100,00 %
28.09.2020 17:10 12,4 C 88 % 1009,9 hPa 0,0 l/m 0,3 km/h S-SW 207 0 min 0,000 mm 0,0 UV-I 37 W/m 10,5 C 12,4 C 1,9 km/h 95,65 %
28.09.2020 17:09 12,3 C 88 % 1009,9 hPa 0,0 l/m 1,3 km/h S-SW 207 0 min 0,000 mm 0,0 UV-I 39 W/m 10,4 C 12,3 C 3,8 km/h 100,00 %
28.09.2020 17:08 12,3 C 88 % 1009,9 hPa 0,0 l/m 1,0 km/h S-SW 207 0 min 0,000 mm 0,0 UV-I 40 W/m 10,4 C 12,3 C 3,8 km/h 100,00 %
28.09.2020 17:07 12,3 C 88 % 1009,8 hPa 0,0 l/m 1,6 km/h S-SW 207 0 min 0,000 mm 0,0 UV-I 41 W/m 10,4 C 12,3 C 3,8 km/h 100,00 %
28.09.2020 17:06 12,3 C 88 % 1009,8 hPa 0,0 l/m 3,1 km/h S-SW 207 0 min 0,000 mm 0,0 UV-I 42 W/m 10,4 C 12,3 C 5,7 km/h 100,00 %
28.09.2020 17:05 12,3 C 88 % 1009,8 hPa 0,0 l/m 1,6 km/h S-SW 207 0 min 0,000 mm 0,0 UV-I 42 W/m 10,4 C 12,3 C 5,7 km/h 100,00 %
28.09.2020 17:04 12,3 C 88 % 1009,8 hPa 0,0 l/m 1,0 km/h S-SW 207 0 min 0,000 mm 0,0 UV-I 40 W/m 10,4 C 12,3 C 1,9 km/h 96,15 %
28.09.2020 17:03 12,3 C 88 % 1009,8 hPa 0,0 l/m 5,4 km/h S-SW 207 0 min 0,000 mm 0,0 UV-I 40 W/m 10,4 C 12,3 C 7,7 km/h 100,00 %
28.09.2020 17:02 12,3 C 88 % 1009,8 hPa 0,0 l/m 5,1 km/h SW 221 0 min 0,001 mm 0,0 UV-I 40 W/m 10,4 C 12,3 C 9,6 km/h 100,00 %
28.09.2020 17:01 12,3 C 88 % 1009,8 hPa 0,0 l/m 2,5 km/h SW 215 0 min 0,025 mm 0,0 UV-I 39 W/m 10,4 C 12,3 C 7,7 km/h 100,00 %
28.09.2020 17:00 12,3 C 88 % 1009,8 hPa 0,0 l/m 3,3 km/h S 175 0 min 0,000 mm 0,0 UV-I 38 W/m 10,4 C 12,3 C 7,7 km/h 100,00 %
28.09.2020 16:59 12,4 C 88 % 1009,8 hPa 0,0 l/m 2,8 km/h S-SW 194 0 min 0,000 mm 0,0 UV-I 37 W/m 10,5 C 12,4 C 7,7 km/h 100,00 %
28.09.2020 16:58 12,4 C 88 % 1009,8 hPa 0,0 l/m 3,7 km/h S 191 0 min 0,000 mm 0,0 UV-I 35 W/m 10,5 C 12,4 C 9,6 km/h 100,00 %
28.09.2020 16:57 12,4 C 88 % 1009,8 hPa 0,0 l/m 3,7 km/h S 178 0 min 0,000 mm 0,0 UV-I 35 W/m 10,5 C 12,4 C 5,7 km/h 96,00 %
28.09.2020 16:56 12,4 C 88 % 1009,8 hPa 0,0 l/m 6,1 km/h S 186 0 min 0,000 mm 0,0 UV-I 35 W/m 10,5 C 12,4 C 11,5 km/h 100,00 %
28.09.2020 16:55 12,4 C 88 % 1009,8 hPa 0,0 l/m 3,9 km/h S-SW 207 0 min 0,000 mm 0,0 UV-I 35 W/m 10,5 C 12,4 C 7,7 km/h 100,00 %
28.09.2020 16:54 12,4 C 88 % 1009,8 hPa 0,0 l/m 5,6 km/h S-SW 207 0 min 0,000 mm 0,0 UV-I 36 W/m 10,5 C 12,4 C 9,6 km/h 100,00 %
28.09.2020 16:53 12,5 C 88 % 1009,7 hPa 0,0 l/m 5,7 km/h SW 219 0 min 0,000 mm 0,0 UV-I 39 W/m 10,6 C 12,5 C 11,5 km/h 100,00 %
28.09.2020 16:52 12,5 C 87 % 1009,7 hPa 0,0 l/m 2,7 km/h S-SW 206 0 min 0,000 mm 0,0 UV-I 40 W/m 10,4 C 12,5 C 5,7 km/h 100,00 %
28.09.2020 16:51 12,5 C 87 % 1009,8 hPa 0,0 l/m 2,2 km/h S-SW 206 0 min 0,000 mm 0,0 UV-I 40 W/m 10,4 C 12,5 C 5,7 km/h 100,00 %
28.09.2020 16:50 12,5 C 87 % 1009,8 hPa 0,0 l/m 0,6 km/h S-SW 206 0 min 0,000 mm 0,0 UV-I 42 W/m 10,4 C 12,5 C 1,9 km/h 100,00 %
28.09.2020 16:49 12,6 C 87 % 1009,8 hPa 0,0 l/m 6,2 km/h S-SW 206 0 min 0,000 mm 0,0 UV-I 42 W/m 10,5 C 12,6 C 9,6 km/h 100,00 %
28.09.2020 16:48 12,6 C 87 % 1009,8 hPa 0,0 l/m 5,2 km/h S-SW 211 0 min 0,000 mm 0,0 UV-I 43 W/m 10,5 C 12,6 C 7,7 km/h 100,00 %
28.09.2020 16:47 12,6 C 87 % 1009,8 hPa 0,0 l/m 1,9 km/h S-SW 199 0 min 0,000 mm 0,0 UV-I 44 W/m 10,5 C 12,6 C 3,8 km/h 98,23 %
28.09.2020 16:46 12,6 C 87 % 1009,7 hPa 0,0 l/m 5,8 km/h S-SW 199 0 min 0,000 mm 0,0 UV-I 46 W/m 10,5 C 12,6 C 11,5 km/h 100,00 %
28.09.2020 16:45 12,6 C 87 % 1009,7 hPa 0,0 l/m 6,3 km/h S-SW 209 0 min 0,000 mm 0,0 UV-I 47 W/m 10,5 C 12,6 C 13,4 km/h 100,00 %
28.09.2020 16:44 12,6 C 87 % 1009,8 hPa 0,0 l/m 3,4 km/h S-SW 203 0 min 0,000 mm 0,0 UV-I 47 W/m 10,5 C 12,6 C 5,7 km/h 100,00 %
28.09.2020 16:43 12,6 C 87 % 1009,7 hPa 0,2 l/m 4,8 km/h S-SW 202 0 min 0,000 mm 0,0 UV-I 47 W/m 10,5 C 12,6 C 7,7 km/h 100,00 %
28.09.2020 16:42 12,6 C 86 % 1009,8 hPa 0,0 l/m 6,5 km/h S-SW 203 0 min 0,000 mm 0,0 UV-I 46 W/m 10,3 C 12,6 C 9,6 km/h 100,00 %
28.09.2020 16:41 12,6 C 86 % 1009,8 hPa 0,0 l/m 5,7 km/h S-SW 194 0 min 0,000 mm 0,0 UV-I 46 W/m 10,3 C 12,6 C 7,7 km/h 100,00 %
28.09.2020 16:40 12,6 C 86 % 1009,8 hPa 0,0 l/m 6,6 km/h S 175 0 min 0,000 mm 0,0 UV-I 46 W/m 10,3 C 12,5 C 11,5 km/h 100,00 %
28.09.2020 16:39 12,6 C 86 % 1009,7 hPa 0,0 l/m 6,6 km/h S-SW 207 0 min 0,000 mm 0,0 UV-I 46 W/m 10,3 C 12,5 C 11,5 km/h 100,00 %
28.09.2020 16:38 12,6 C 86 % 1009,8 hPa 0,0 l/m 6,9 km/h SW 221 0 min 0,000 mm 0,0 UV-I 46 W/m 10,3 C 12,3 C 11,5 km/h 100,00 %
28.09.2020 16:37 12,6 C 86 % 1009,8 hPa 0,0 l/m 6,4 km/h S-SO 167 0 min 0,000 mm 0,0 UV-I 45 W/m 10,3 C 12,6 C 9,6 km/h 100,00 %
28.09.2020 16:36 12,6 C 86 % 1009,7 hPa 0,0 l/m 7,0 km/h S 191 0 min 0,000 mm 0,0 UV-I 44 W/m 10,3 C 12,2 C 15,3 km/h 100,00 %
28.09.2020 16:35 12,6 C 86 % 1009,7 hPa 0,0 l/m 2,5 km/h S-SW 203 0 min 0,000 mm 0,0 UV-I 44 W/m 10,3 C 12,6 C 7,7 km/h 100,00 %
28.09.2020 16:34 12,6 C 86 % 1009,7 hPa 0,0 l/m 5,7 km/h S-SW 207 0 min 0,000 mm 0,0 UV-I 44 W/m 10,3 C 12,6 C 9,6 km/h 100,00 %
28.09.2020 16:33 12,6 C 86 % 1009,7 hPa 0,0 l/m 7,3 km/h S-SW 213 0 min 0,000 mm 0,0 UV-I 44 W/m 10,3 C 12,0 C 9,6 km/h 95,83 %
28.09.2020 16:32 12,6 C 86 % 1009,7 hPa 0,0 l/m 4,2 km/h S 190 0 min 0,000 mm 0,0 UV-I 43 W/m 10,3 C 12,6 C 7,7 km/h 100,00 %
28.09.2020 16:31 12,6 C 86 % 1009,7 hPa 0,0 l/m 4,7 km/h S 189 0 min 0,000 mm 0,0 UV-I 43 W/m 10,3 C 12,6 C 7,7 km/h 100,00 %
28.09.2020 16:30 12,6 C 86 % 1009,7 hPa 0,0 l/m 4,3 km/h S 188 0 min 0,000 mm 0,0 UV-I 44 W/m 10,3 C 12,6 C 9,6 km/h 92,86 %
28.09.2020 16:29 12,6 C 86 % 1009,6 hPa 0,0 l/m 10,2 km/h S-SW 196 0 min 0,000 mm 0,0 UV-I 46 W/m 10,3 C 10,4 C 13,4 km/h 100,00 %
28.09.2020 16:28 12,6 C 86 % 1009,7 hPa 0,0 l/m 10,7 km/h SW 221 0 min 0,000 mm 0,0 UV-I 46 W/m 10,3 C 10,1 C 15,3 km/h 100,00 %
28.09.2020 16:27 12,6 C 86 % 1009,6 hPa 0,0 l/m 11,0 km/h SO 146 0 min 0,000 mm 0,0 UV-I 48 W/m 10,3 C 10,0 C 17,2 km/h 100,00 %
28.09.2020 16:26 12,6 C 86 % 1009,6 hPa 0,0 l/m 5,4 km/h S 188 0 min 0,000 mm 0,0 UV-I 50 W/m 10,3 C 12,6 C 11,5 km/h 100,00 %
28.09.2020 16:25 12,6 C 86 % 1009,7 hPa 0,0 l/m 4,9 km/h S-SW 198 0 min 0,000 mm 0,0 UV-I 53 W/m 10,3 C 12,6 C 11,5 km/h 100,00 %
28.09.2020 16:24 12,6 C 86 % 1009,7 hPa 0,0 l/m 5,6 km/h S-SW 192 0 min 0,000 mm 0,0 UV-I 57 W/m 10,3 C 12,6 C 11,5 km/h 100,00 %
28.09.2020 16:23 12,6 C 86 % 1009,7 hPa 0,0 l/m 7,9 km/h S 177 0 min 0,000 mm 0,0 UV-I 60 W/m 10,3 C 11,6 C 13,4 km/h 100,00 %
28.09.2020 16:22 12,6 C 86 % 1009,7 hPa 0,0 l/m 8,7 km/h S 169 0 min 0,000 mm 0,0 UV-I 62 W/m 10,3 C 11,2 C 17,2 km/h 100,00 %
28.09.2020 16:21 12,6 C 86 % 1009,7 hPa 0,0 l/m 5,8 km/h S 188 0 min 0,000 mm 0,0 UV-I 62 W/m 10,3 C 12,6 C 9,6 km/h 100,00 %
28.09.2020 16:20 12,6 C 86 % 1009,7 hPa 0,0 l/m 6,8 km/h SW 221 0 min 0,000 mm 0,0 UV-I 61 W/m 10,3 C 12,4 C 13,4 km/h 95,65 %
28.09.2020 16:19 12,6 C 86 % 1009,7 hPa 0,0 l/m 4,6 km/h S 177 0 min 0,000 mm 0,0 UV-I 59 W/m 10,3 C 12,6 C 9,6 km/h 100,00 %
28.09.2020 16:18 12,5 C 86 % 1009,7 hPa 0,0 l/m 4,7 km/h S 191 0 min 0,000 mm 0,0 UV-I 56 W/m 10,2 C 12,5 C 7,7 km/h 98,18 %
28.09.2020 16:17 12,5 C 86 % 1009,7 hPa 0,0 l/m 6,5 km/h S 174 0 min 0,000 mm 0,0 UV-I 54 W/m 10,2 C 12,5 C 13,4 km/h 96,15 %
28.09.2020 16:16 12,4 C 86 % 1009,7 hPa 0,0 l/m 6,4 km/h S 169 0 min 0,000 mm 0,0 UV-I 54 W/m 10,1 C 12,4 C 11,5 km/h 100,00 %
28.09.2020 16:15 12,4 C 86 % 1009,7 hPa 0,0 l/m 10,9 km/h S 179 0 min 0,000 mm 0,0 UV-I 53 W/m 10,1 C 9,8 C 15,3 km/h 100,00 %
28.09.2020 16:14 12,4 C 86 % 1009,7 hPa 0,0 l/m 12,0 km/h SO 142 0 min 0,000 mm 0,0 UV-I 53 W/m 10,1 C 9,3 C 19,1 km/h 100,00 %
28.09.2020 16:13 12,4 C 86 % 1009,7 hPa 0,0 l/m 6,5 km/h S 190 0 min 0,000 mm 0,0 UV-I 52 W/m 10,1 C 12,4 C 11,5 km/h 100,00 %
28.09.2020 16:12 12,4 C 86 % 1009,7 hPa 0,0 l/m 9,3 km/h S 190 0 min 0,000 mm 0,0 UV-I 49 W/m 10,1 C 10,6 C 13,4 km/h 100,00 %
28.09.2020 16:11 12,4 C 86 % 1009,7 hPa 0,0 l/m 11,9 km/h S-SO 164 0 min 0,000 mm 0,0 UV-I 49 W/m 10,1 C 9,3 C 23,0 km/h 100,00 %
28.09.2020 16:10 12,4 C 86 % 1009,6 hPa 0,0 l/m 8,2 km/h S 178 0 min 0,000 mm 0,0 UV-I 49 W/m 10,1 C 11,3 C 17,2 km/h 100,00 %
28.09.2020 16:09 12,4 C 86 % 1009,6 hPa 0,0 l/m 10,6 km/h SW 233 0 min 0,000 mm 0,0 UV-I 49 W/m 10,1 C 9,9 C 17,2 km/h 100,00 %
28.09.2020 16:08 12,4 C 86 % 1009,6 hPa 0,0 l/m 12,4 km/h S 173 0 min 0,000 mm 0,0 UV-I 49 W/m 10,1 C 9,1 C 21,0 km/h 100,00 %
28.09.2020 16:07 12,4 C 86 % 1009,6 hPa 0,0 l/m 10,0 km/h S 181 0 min 0,000 mm 0,0 UV-I 50 W/m 10,1 C 10,2 C 13,4 km/h 100,00 %
28.09.2020 16:06 12,4 C 86 % 1009,6 hPa 0,0 l/m 8,5 km/h S-SO 151 0 min 0,000 mm 0,0 UV-I 54 W/m 10,1 C 11,1 C 15,3 km/h 96,30 %
28.09.2020 16:05 12,4 C 86 % 1009,6 hPa 0,0 l/m 10,9 km/h S-SW 192 0 min 0,000 mm 0,0 UV-I 56 W/m 10,1 C 9,8 C 15,3 km/h 100,00 %
28.09.2020 16:04 12,4 C 86 % 1009,5 hPa 0,0 l/m 10,1 km/h S-SO 160 0 min 0,000 mm 0,0 UV-I 59 W/m 10,1 C 10,2 C 19,1 km/h 100,00 %
28.09.2020 16:03 12,4 C 86 % 1009,5 hPa 0,0 l/m 13,1 km/h S-SO 153 0 min 0,000 mm 0,0 UV-I 61 W/m 10,1 C 8,8 C 21,0 km/h 100,00 %
28.09.2020 16:02 12,4 C 86 % 1009,5 hPa 0,0 l/m 9,0 km/h S 170 0 min 0,000 mm 0,0 UV-I 61 W/m 10,1 C 10,8 C 13,4 km/h 92,59 %
28.09.2020 16:01 12,5 C 86 % 1009,5 hPa 0,0 l/m 6,8 km/h S 171 0 min 0,051 mm 0,0 UV-I 58 W/m 10,2 C 12,2 C 13,4 km/h 100,00 %
28.09.2020 16:00 12,5 C 86 % 1009,5 hPa 0,0 l/m 9,5 km/h SW 214 0 min 0,000 mm 0,0 UV-I 56 W/m 10,2 C 10,6 C 15,3 km/h 100,00 %
28.09.2020 15:59 12,5 C 86 % 1009,5 hPa 0,0 l/m 9,4 km/h S-SW 192 0 min 0,000 mm 0,0 UV-I 54 W/m 10,2 C 10,7 C 13,4 km/h 100,00 %
28.09.2020 15:58 12,6 C 86 % 1009,5 hPa 0,0 l/m 13,6 km/h S 173 0 min 0,000 mm 0,0 UV-I 54 W/m 10,3 C 8,8 C 21,0 km/h 100,00 %
28.09.2020 15:57 12,6 C 86 % 1009,5 hPa 0,0 l/m 12,0 km/h S-SO 157 0 min 0,000 mm 0,0 UV-I 55 W/m 10,3 C 9,5 C 21,0 km/h 100,00 %
28.09.2020 15:56 12,6 C 86 % 1009,5 hPa 0,0 l/m 8,4 km/h S-SW 192 0 min 0,000 mm 0,0 UV-I 57 W/m 10,3 C 11,3 C 15,3 km/h 100,00 %
28.09.2020 15:55 12,6 C 86 % 1009,5 hPa 0,0 l/m 9,3 km/h S 188 0 min 0,000 mm 0,0 UV-I 60 W/m 10,3 C 10,8 C 19,1 km/h 100,00 %
28.09.2020 15:54 12,6 C 86 % 1009,5 hPa 0,0 l/m 10,5 km/h S-SO 161 0 min 0,000 mm 0,0 UV-I 63 W/m 10,3 C 10,2 C 13,4 km/h 100,00 %
28.09.2020 15:53 12,6 C 86 % 1009,5 hPa 0,0 l/m 11,9 km/h SW 218 0 min 0,000 mm 0,0 UV-I 65 W/m 10,3 C 9,6 C 21,0 km/h 100,00 %
28.09.2020 15:52 12,6 C 86 % 1009,5 hPa 0,0 l/m 10,8 km/h S-SW 198 0 min 0,000 mm 0,0 UV-I 67 W/m 10,3 C 10,1 C 15,3 km/h 100,00 %
28.09.2020 15:51 12,6 C 86 % 1009,4 hPa 0,0 l/m 10,9 km/h S 179 0 min 0,000 mm 0,0 UV-I 67 W/m 10,3 C 10,0 C 17,2 km/h 100,00 %
28.09.2020 15:50 12,6 C 86 % 1009,5 hPa 0,0 l/m 9,7 km/h S-SO 163 0 min 0,000 mm 0,0 UV-I 68 W/m 10,3 C 10,6 C 17,2 km/h 100,00 %
28.09.2020 15:49 12,6 C 86 % 1009,5 hPa 0,0 l/m 8,3 km/h S-SW 207 0 min 0,000 mm 0,0 UV-I 69 W/m 10,3 C 11,4 C 15,3 km/h 96,30 %
28.09.2020 15:48 12,7 C 86 % 1009,4 hPa 0,0 l/m 9,9 km/h S-SO 155 0 min 0,000 mm 0,0 UV-I 70 W/m 10,4 C 10,6 C 13,4 km/h 100,00 %
28.09.2020 15:47 12,7 C 86 % 1009,5 hPa 0,0 l/m 7,4 km/h SO 132 0 min 0,000 mm 0,0 UV-I 74 W/m 10,4 C 12,1 C 11,5 km/h 100,00 %
28.09.2020 15:46 12,7 C 86 % 1009,5 hPa 0,0 l/m 6,1 km/h S 189 0 min 0,000 mm 0,0 UV-I 76 W/m 10,4 C 12,7 C 9,6 km/h 100,00 %
28.09.2020 15:45 12,7 C 86 % 1009,5 hPa 0,0 l/m 9,0 km/h S-SO 156 0 min 0,000 mm 0,0 UV-I 80 W/m 10,4 C 11,1 C 13,4 km/h 96,30 %
28.09.2020 15:44 12,7 C 87 % 1009,4 hPa 0,0 l/m 8,4 km/h S 186 0 min 0,000 mm 0,0 UV-I 85 W/m 10,6 C 11,5 C 15,3 km/h 100,00 %
28.09.2020 15:43 12,7 C 87 % 1009,4 hPa 0,0 l/m 5,8 km/h S 182 0 min 0,000 mm 0,5 UV-I 88 W/m 10,6 C 12,7 C 11,5 km/h 100,00 %
28.09.2020 15:42 12,7 C 87 % 1009,4 hPa 0,0 l/m 6,8 km/h SO 136 0 min 0,000 mm 0,5 UV-I 88 W/m 10,6 C 12,5 C 17,2 km/h 100,00 %
28.09.2020 15:41 12,8 C 87 % 1009,4 hPa 0,0 l/m 12,2 km/h SO 136 0 min 0,000 mm 0,5 UV-I 91 W/m 10,7 C 9,7 C 19,1 km/h 95,83 %
28.09.2020 15:40 12,8 C 87 % 1009,4 hPa 0,0 l/m 2,8 km/h S-SO 152 0 min 0,000 mm 0,5 UV-I 91 W/m 10,7 C 12,8 C 9,6 km/h 100,00 %
28.09.2020 15:39 12,7 C 87 % 1009,4 hPa 0,0 l/m 4,2 km/h S-SO 153 0 min 0,000 mm 0,5 UV-I 91 W/m 10,6 C 12,7 C 9,6 km/h 100,00 %
28.09.2020 15:38 12,7 C 87 % 1009,4 hPa 0,0 l/m 4,9 km/h S-SO 148 0 min 0,000 mm 0,5 UV-I 91 W/m 10,6 C 12,7 C 9,6 km/h 95,65 %
28.09.2020 15:37 12,7 C 87 % 1009,4 hPa 0,0 l/m 8,5 km/h S-SO 167 0 min 0,000 mm 0,5 UV-I 93 W/m 10,6 C 11,4 C 15,3 km/h 100,00 %
28.09.2020 15:36 12,7 C 87 % 1009,4 hPa 0,0 l/m 10,1 km/h S-SO 163 0 min 0,000 mm 0,5 UV-I 91 W/m 10,6 C 10,5 C 17,2 km/h 96,00 %
28.09.2020 15:35 12,7 C 87 % 1009,5 hPa 0,0 l/m 6,0 km/h S 171 0 min 0,000 mm 0,5 UV-I 89 W/m 10,6 C 12,7 C 7,7 km/h 100,00 %
28.09.2020 15:34 12,7 C 87 % 1009,5 hPa 0,0 l/m 10,3 km/h S-SO 161 0 min 0,000 mm 0,5 UV-I 85 W/m 10,6 C 10,4 C 15,3 km/h 100,00 %
28.09.2020 15:33 12,7 C 87 % 1009,5 hPa 0,0 l/m 8,6 km/h S 175 0 min 0,000 mm 0,1 UV-I 83 W/m 10,6 C 11,3 C 11,5 km/h 100,00 %
28.09.2020 15:32 12,7 C 87 % 1009,5 hPa 0,0 l/m 10,5 km/h S 178 0 min 0,000 mm 0,0 UV-I 82 W/m 10,6 C 10,3 C 15,3 km/h 100,00 %
28.09.2020 15:31 12,7 C 87 % 1009,5 hPa 0,0 l/m 5,3 km/h S-SO 162 0 min 0,000 mm 0,0 UV-I 79 W/m 10,6 C 12,7 C 11,5 km/h 100,00 %
28.09.2020 15:30 12,7 C 87 % 1009,5 hPa 0,0 l/m 11,8 km/h S-SO 165 0 min 0,000 mm 0,0 UV-I 79 W/m 10,6 C 9,7 C 15,3 km/h 100,00 %
28.09.2020 15:29 12,7 C 87 % 1009,5 hPa 0,0 l/m 8,0 km/h SO 145 0 min 0,000 mm 0,0 UV-I 82 W/m 10,6 C 11,7 C 13,4 km/h 100,00 %
28.09.2020 15:28 12,7 C 87 % 1009,5 hPa 0,0 l/m 10,8 km/h S 175 0 min 0,000 mm 0,0 UV-I 83 W/m 10,6 C 10,2 C 15,3 km/h 100,00 %
28.09.2020 15:27 12,7 C 87 % 1009,5 hPa 0,0 l/m 11,0 km/h S-SO 168 0 min 0,000 mm 0,4 UV-I 84 W/m 10,6 C 10,1 C 17,2 km/h 100,00 %
28.09.2020 15:26 12,7 C 86 % 1009,5 hPa 0,0 l/m 10,9 km/h S 175 0 min 0,000 mm 0,1 UV-I 84 W/m 10,4 C 10,1 C 19,1 km/h 100,00 %
28.09.2020 15:25 12,7 C 86 % 1009,5 hPa 0,0 l/m 10,6 km/h S 178 0 min 0,000 mm 0,0 UV-I 84 W/m 10,4 C 10,3 C 15,3 km/h 100,00 %
28.09.2020 15:24 12,7 C 86 % 1009,5 hPa 0,0 l/m 10,2 km/h S-SO 167 0 min 0,000 mm 0,0 UV-I 86 W/m 10,4 C 10,5 C 17,2 km/h 100,00 %
28.09.2020 15:23 12,8 C 86 % 1009,6 hPa 0,0 l/m 8,2 km/h S-SO 154 0 min 0,000 mm 0,0 UV-I 86 W/m 10,5 C 11,7 C 15,3 km/h 100,00 %
28.09.2020 15:22 12,8 C 86 % 1009,6 hPa 0,0 l/m 11,9 km/h S 177 0 min 0,000 mm 0,3 UV-I 88 W/m 10,5 C 9,8 C 17,2 km/h 100,00 %
28.09.2020 15:21 12,8 C 86 % 1009,6 hPa 0,0 l/m 13,6 km/h S 179 0 min 0,000 mm 0,5 UV-I 94 W/m 10,5 C 9,1 C 21,0 km/h 100,00 %
28.09.2020 15:20 12,9 C 86 % 1009,6 hPa 0,0 l/m 12,0 km/h S-SW 194 0 min 0,000 mm 0,5 UV-I 95 W/m 10,6 C 9,9 C 19,1 km/h 100,00 %
28.09.2020 15:19 12,9 C 87 % 1009,6 hPa 0,0 l/m 9,6 km/h S-SO 153 0 min 0,000 mm 0,5 UV-I 96 W/m 10,8 C 11,0 C 17,2 km/h 100,00 %
28.09.2020 15:18 13,0 C 87 % 1009,6 hPa 0,0 l/m 8,1 km/h S 188 0 min 0,000 mm 0,3 UV-I 91 W/m 10,9 C 11,9 C 19,1 km/h 100,00 %
28.09.2020 15:17 13,0 C 87 % 1009,7 hPa 0,0 l/m 7,8 km/h S-SO 166 0 min 0,000 mm 0,0 UV-I 82 W/m 10,9 C 12,1 C 15,3 km/h 100,00 %
28.09.2020 15:16 13,0 C 87 % 1009,6 hPa 0,0 l/m 4,8 km/h S 169 0 min 0,000 mm 0,0 UV-I 75 W/m 10,9 C 13,0 C 11,5 km/h 100,00 %
28.09.2020 15:15 13,0 C 86 % 1009,6 hPa 0,0 l/m 5,7 km/h S 180 0 min 0,000 mm 0,0 UV-I 74 W/m 10,7 C 13,0 C 9,6 km/h 100,00 %
28.09.2020 15:14 13,0 C 86 % 1009,6 hPa 0,0 l/m 10,1 km/h SO 142 0 min 0,000 mm 0,0 UV-I 82 W/m 10,7 C 10,9 C 15,3 km/h 100,00 %
28.09.2020 15:13 13,1 C 86 % 1009,6 hPa 0,0 l/m 12,3 km/h S 181 0 min 0,000 mm 0,1 UV-I 90 W/m 10,8 C 10,0 C 17,2 km/h 100,00 %
28.09.2020 15:12 13,1 C 86 % 1009,6 hPa 0,0 l/m 10,5 km/h S 186 0 min 0,000 mm 0,5 UV-I 96 W/m 10,8 C 10,8 C 17,2 km/h 100,00 %
28.09.2020 15:11 13,1 C 86 % 1009,5 hPa 0,0 l/m 11,1 km/h S-SO 150 0 min 0,000 mm 0,5 UV-I 100 W/m 10,8 C 10,5 C 17,2 km/h 100,00 %
28.09.2020 15:10 13,1 C 86 % 1009,6 hPa 0,0 l/m 9,5 km/h S 191 0 min 0,000 mm 0,5 UV-I 98 W/m 10,8 C 11,3 C 15,3 km/h 95,65 %
28.09.2020 15:09 13,1 C 86 % 1009,5 hPa 0,0 l/m 7,5 km/h S 182 0 min 0,000 mm 0,5 UV-I 95 W/m 10,8 C 12,4 C 11,5 km/h 100,00 %
28.09.2020 15:08 13,1 C 86 % 1009,5 hPa 0,0 l/m 9,0 km/h S-SO 163 0 min 0,000 mm 0,5 UV-I 92 W/m 10,8 C 11,5 C 13,4 km/h 100,00 %
28.09.2020 15:07 13,1 C 86 % 1009,5 hPa 0,0 l/m 11,6 km/h S 175 0 min 0,000 mm 0,4 UV-I 83 W/m 10,8 C 10,3 C 17,2 km/h 100,00 %
28.09.2020 15:06 13,2 C 86 % 1009,5 hPa 0,0 l/m 10,5 km/h S-SO 162 0 min 0,000 mm 0,0 UV-I 76 W/m 10,9 C 10,9 C 17,2 km/h 100,00 %
28.09.2020 15:05 13,2 C 86 % 1009,5 hPa 0,0 l/m 7,3 km/h SO 130 0 min 0,000 mm 0,0 UV-I 73 W/m 10,9 C 12,6 C 15,3 km/h 100,00 %
28.09.2020 15:04 13,2 C 86 % 1009,5 hPa 0,0 l/m 9,2 km/h SO 146 0 min 0,000 mm 0,0 UV-I 69 W/m 10,9 C 11,5 C 17,2 km/h 100,00 %
28.09.2020 15:03 13,2 C 86 % 1009,5 hPa 0,0 l/m 13,3 km/h S-SO 149 0 min 0,000 mm 0,0 UV-I 67 W/m 10,9 C 9,7 C 17,2 km/h 100,00 %
28.09.2020 15:02 13,2 C 86 % 1009,5 hPa 0,0 l/m 8,5 km/h SO 128 0 min 0,000 mm 0,0 UV-I 70 W/m 10,9 C 11,9 C 11,5 km/h 100,00 %
28.09.2020 15:01 13,2 C 86 % 1009,5 hPa 0,0 l/m 9,1 km/h S 190 0 min 0,000 mm 0,1 UV-I 76 W/m 10,9 C 11,6 C 13,4 km/h 100,00 %
28.09.2020 15:00 13,2 C 86 % 1009,5 hPa 0,0 l/m 10,8 km/h S-SW 194 0 min 0,050 mm 0,5 UV-I 85 W/m 10,9 C 10,7 C 15,3 km/h 100,00 %
_ Min-Zeit 03:57 15:00 15:36 - 19:10 - - - - - - 03:57 16:03 19:10 02:16
Minimum _ 11,2 C 86 % 1009,4 hPa - 0,0 km/h - - - - - - 9,6 C 8,8 C 0,0 km/h 88,46 %
_ Max-Zeit 14:45 11:20 13:47 16:43 15:21 - - 15:00 16:01 12:47 12:50 14:45 14:45 16:11 15:00
Maximum _ 14,3 C 98 % 1016,0 hPa 0,2 l/m 13,6 km/h
S
- - 0 min 0,051 mm 0,7 UV-I 108 W/m 14,0 C 14,3 C 23,0 km/h
S-SO
100,00 %
Durchschnitt _ 12,4 C 91 % 1012,4 hPa #3,8 l/m 3,3 km/h S - #0 min. #0,127 mm 0,5 UV-I 50 W/m 11,0 C 12,1 C 6,0 km/h 99,01 %